<?xml version="1.0" encoding="UTF-8" standalone="no" ?>
<gpx xmlns="http://www.topografix.com/GPX/1/1" xmlns:xsi="http://www.w3.org/2001/XMLSchema-instance" xsi:schemaLocation="http://www.topografix.com/GPX/1/1 http://www.topografix.com/GPX/1/1/gpx.xsd" version="1.1" creator="VisuGPX - https://www.visugpx.com">
  <metadata>
    <name>GILHOC SUR ORMEZE 5 Les Horts </name>
  </metadata>
  <trk>
    <name><![CDATA[GILHOC SUR ORMEZE 5 Les Horts _1]]></name>
    <extensions>
      <line xmlns="http://www.topografix.com/GPX/gpx_style/0/2">
        <color>0000FF</color>
        <width>4</width>
      </line>
    </extensions>
    <trkseg>
      <trkpt lat="44.98609" lon="4.68803">
        <ele>492</ele>
      </trkpt>
      <trkpt lat="44.986" lon="4.6873">
        <ele>492</ele>
        <time>2018-10-24T09:46:26+02:00</time>
      </trkpt>
      <trkpt lat="44.98598" lon="4.68716">
        <ele>492</ele>
        <time>2018-10-24T09:46:33+02:00</time>
      </trkpt>
      <trkpt lat="44.98596" lon="4.6871">
        <ele>492</ele>
        <time>2018-10-24T09:46:36+02:00</time>
      </trkpt>
      <trkpt lat="44.98594" lon="4.68688">
        <ele>490</ele>
        <time>2018-10-24T09:46:46+02:00</time>
      </trkpt>
      <trkpt lat="44.98593" lon="4.68668">
        <ele>489</ele>
        <time>2018-10-24T09:46:56+02:00</time>
      </trkpt>
      <trkpt lat="44.98593" lon="4.68658">
        <ele>489</ele>
        <time>2018-10-24T09:47:01+02:00</time>
      </trkpt>
      <trkpt lat="44.98592" lon="4.68643">
        <ele>490</ele>
        <time>2018-10-24T09:47:08+02:00</time>
      </trkpt>
      <trkpt lat="44.98591" lon="4.6864">
        <ele>490</ele>
        <time>2018-10-24T09:47:10+02:00</time>
      </trkpt>
      <trkpt lat="44.98588" lon="4.68616">
        <ele>491</ele>
        <time>2018-10-24T09:47:21+02:00</time>
      </trkpt>
      <trkpt lat="44.98591" lon="4.68595">
        <ele>491</ele>
        <time>2018-10-24T09:47:31+02:00</time>
      </trkpt>
      <trkpt lat="44.98594" lon="4.68582">
        <ele>491</ele>
        <time>2018-10-24T09:47:38+02:00</time>
      </trkpt>
      <trkpt lat="44.98602" lon="4.6857">
        <ele>491</ele>
        <time>2018-10-24T09:47:47+02:00</time>
      </trkpt>
      <trkpt lat="44.98614" lon="4.68556">
        <ele>491</ele>
        <time>2018-10-24T09:47:58+02:00</time>
      </trkpt>
      <trkpt lat="44.98622" lon="4.68546">
        <ele>490</ele>
        <time>2018-10-24T09:48:06+02:00</time>
      </trkpt>
      <trkpt lat="44.98626" lon="4.68536">
        <ele>490</ele>
        <time>2018-10-24T09:48:13+02:00</time>
      </trkpt>
      <trkpt lat="44.98635" lon="4.68518">
        <ele>490</ele>
        <time>2018-10-24T09:48:23+02:00</time>
      </trkpt>
      <trkpt lat="44.98642" lon="4.68506">
        <ele>490</ele>
        <time>2018-10-24T09:48:31+02:00</time>
      </trkpt>
      <trkpt lat="44.9865" lon="4.6849">
        <ele>489</ele>
        <time>2018-10-24T09:48:40+02:00</time>
      </trkpt>
      <trkpt lat="44.98655" lon="4.68476">
        <ele>489</ele>
        <time>2018-10-24T09:48:48+02:00</time>
      </trkpt>
      <trkpt lat="44.98655" lon="4.68461">
        <ele>489</ele>
        <time>2018-10-24T09:48:56+02:00</time>
      </trkpt>
      <trkpt lat="44.98653" lon="4.68448">
        <ele>489</ele>
        <time>2018-10-24T09:49:04+02:00</time>
      </trkpt>
      <trkpt lat="44.98653" lon="4.68443">
        <ele>490</ele>
        <time>2018-10-24T09:49:08+02:00</time>
      </trkpt>
      <trkpt lat="44.9865" lon="4.68428">
        <ele>490</ele>
        <time>2018-10-24T09:49:16+02:00</time>
      </trkpt>
      <trkpt lat="44.98649" lon="4.68425">
        <ele>491</ele>
        <time>2018-10-24T09:49:18+02:00</time>
      </trkpt>
      <trkpt lat="44.98646" lon="4.68408">
        <ele>492</ele>
        <time>2018-10-24T09:49:27+02:00</time>
      </trkpt>
      <trkpt lat="44.98646" lon="4.68404">
        <ele>491</ele>
        <time>2018-10-24T09:49:29+02:00</time>
      </trkpt>
      <trkpt lat="44.98647" lon="4.68399">
        <ele>491</ele>
        <time>2018-10-24T09:49:31+02:00</time>
      </trkpt>
      <trkpt lat="44.98651" lon="4.68385">
        <ele>490</ele>
        <time>2018-10-24T09:49:37+02:00</time>
      </trkpt>
      <trkpt lat="44.98653" lon="4.68374">
        <ele>489</ele>
        <time>2018-10-24T09:49:42+02:00</time>
      </trkpt>
      <trkpt lat="44.98656" lon="4.68358">
        <ele>488</ele>
        <time>2018-10-24T09:49:50+02:00</time>
      </trkpt>
      <trkpt lat="44.98656" lon="4.68346">
        <ele>488</ele>
        <time>2018-10-24T09:49:56+02:00</time>
      </trkpt>
      <trkpt lat="44.98659" lon="4.68328">
        <ele>487</ele>
        <time>2018-10-24T09:50:05+02:00</time>
      </trkpt>
      <trkpt lat="44.98664" lon="4.6831">
        <ele>485</ele>
        <time>2018-10-24T09:50:14+02:00</time>
      </trkpt>
      <trkpt lat="44.98665" lon="4.68308">
        <ele>485</ele>
        <time>2018-10-24T09:50:15+02:00</time>
      </trkpt>
      <trkpt lat="44.98681" lon="4.68282">
        <ele>482</ele>
        <time>2018-10-24T09:50:26+02:00</time>
      </trkpt>
      <trkpt lat="44.98689" lon="4.68261">
        <ele>481</ele>
        <time>2018-10-24T09:50:35+02:00</time>
      </trkpt>
      <trkpt lat="44.98691" lon="4.68237">
        <ele>480</ele>
        <time>2018-10-24T09:50:47+02:00</time>
      </trkpt>
      <trkpt lat="44.98683" lon="4.68219">
        <ele>479</ele>
        <time>2018-10-24T09:50:58+02:00</time>
      </trkpt>
      <trkpt lat="44.98679" lon="4.682">
        <ele>478</ele>
        <time>2018-10-24T09:51:08+02:00</time>
      </trkpt>
      <trkpt lat="44.98673" lon="4.68176">
        <ele>477</ele>
        <time>2018-10-24T09:51:21+02:00</time>
      </trkpt>
      <trkpt lat="44.98668" lon="4.68157">
        <ele>476</ele>
        <time>2018-10-24T09:51:31+02:00</time>
      </trkpt>
      <trkpt lat="44.98662" lon="4.68139">
        <ele>475</ele>
        <time>2018-10-24T09:51:41+02:00</time>
      </trkpt>
      <trkpt lat="44.98653" lon="4.68123">
        <ele>474</ele>
        <time>2018-10-24T09:51:52+02:00</time>
      </trkpt>
      <trkpt lat="44.98649" lon="4.68104">
        <ele>473</ele>
        <time>2018-10-24T09:52:01+02:00</time>
      </trkpt>
      <trkpt lat="44.98646" lon="4.68083">
        <ele>471</ele>
        <time>2018-10-24T09:52:11+02:00</time>
      </trkpt>
      <trkpt lat="44.98647" lon="4.68064">
        <ele>470</ele>
        <time>2018-10-24T09:52:21+02:00</time>
      </trkpt>
      <trkpt lat="44.98648" lon="4.68057">
        <ele>470</ele>
        <time>2018-10-24T09:52:24+02:00</time>
      </trkpt>
      <trkpt lat="44.98653" lon="4.68039">
        <ele>469</ele>
        <time>2018-10-24T09:52:34+02:00</time>
      </trkpt>
      <trkpt lat="44.98656" lon="4.68028">
        <ele>469</ele>
        <time>2018-10-24T09:52:40+02:00</time>
      </trkpt>
      <trkpt lat="44.98663" lon="4.68007">
        <ele>468</ele>
        <time>2018-10-24T09:52:53+02:00</time>
      </trkpt>
      <trkpt lat="44.98672" lon="4.67992">
        <ele>467</ele>
        <time>2018-10-24T09:53:03+02:00</time>
      </trkpt>
      <trkpt lat="44.98681" lon="4.67974">
        <ele>466</ele>
        <time>2018-10-24T09:53:12+02:00</time>
      </trkpt>
      <trkpt lat="44.9868" lon="4.67959">
        <ele>466</ele>
        <time>2018-10-24T09:53:22+02:00</time>
      </trkpt>
      <trkpt lat="44.98681" lon="4.67936">
        <ele>465</ele>
        <time>2018-10-24T09:53:32+02:00</time>
      </trkpt>
      <trkpt lat="44.98686" lon="4.67931">
        <ele>465</ele>
        <time>2018-10-24T09:53:39+02:00</time>
      </trkpt>
      <trkpt lat="44.98688" lon="4.67933">
        <ele>465</ele>
        <time>2018-10-24T09:53:41+02:00</time>
      </trkpt>
      <trkpt lat="44.98695" lon="4.67945">
        <ele>465</ele>
        <time>2018-10-24T09:53:50+02:00</time>
      </trkpt>
      <trkpt lat="44.98696" lon="4.67947">
        <ele>465</ele>
        <time>2018-10-24T09:53:51+02:00</time>
      </trkpt>
      <trkpt lat="44.98698" lon="4.67952">
        <ele>465</ele>
        <time>2018-10-24T09:53:53+02:00</time>
      </trkpt>
      <trkpt lat="44.98701" lon="4.67964">
        <ele>465</ele>
        <time>2018-10-24T09:54:00+02:00</time>
      </trkpt>
      <trkpt lat="44.98704" lon="4.67979">
        <ele>465</ele>
        <time>2018-10-24T09:54:09+02:00</time>
      </trkpt>
      <trkpt lat="44.98708" lon="4.67993">
        <ele>465</ele>
        <time>2018-10-24T09:54:17+02:00</time>
      </trkpt>
      <trkpt lat="44.98714" lon="4.6801">
        <ele>465</ele>
        <time>2018-10-24T09:54:27+02:00</time>
      </trkpt>
      <trkpt lat="44.98721" lon="4.68023">
        <ele>465</ele>
        <time>2018-10-24T09:54:35+02:00</time>
      </trkpt>
      <trkpt lat="44.98731" lon="4.68039">
        <ele>465</ele>
        <time>2018-10-24T09:54:45+02:00</time>
      </trkpt>
      <trkpt lat="44.98739" lon="4.6805">
        <ele>465</ele>
        <time>2018-10-24T09:54:53+02:00</time>
      </trkpt>
      <trkpt lat="44.98743" lon="4.68058">
        <ele>465</ele>
        <time>2018-10-24T09:54:59+02:00</time>
      </trkpt>
      <trkpt lat="44.98746" lon="4.68064">
        <ele>465</ele>
        <time>2018-10-24T09:55:02+02:00</time>
      </trkpt>
      <trkpt lat="44.98756" lon="4.68076">
        <ele>465</ele>
        <time>2018-10-24T09:55:11+02:00</time>
      </trkpt>
      <trkpt lat="44.98769" lon="4.68088">
        <ele>465</ele>
        <time>2018-10-24T09:55:21+02:00</time>
      </trkpt>
      <trkpt lat="44.98782" lon="4.68101">
        <ele>464</ele>
        <time>2018-10-24T09:55:33+02:00</time>
      </trkpt>
      <trkpt lat="44.98793" lon="4.68116">
        <ele>463</ele>
        <time>2018-10-24T09:55:42+02:00</time>
      </trkpt>
      <trkpt lat="44.98799" lon="4.68122">
        <ele>463</ele>
        <time>2018-10-24T09:55:47+02:00</time>
      </trkpt>
      <trkpt lat="44.98813" lon="4.68137">
        <ele>461</ele>
        <time>2018-10-24T09:55:59+02:00</time>
      </trkpt>
      <trkpt lat="44.98816" lon="4.6814">
        <ele>461</ele>
        <time>2018-10-24T09:56:02+02:00</time>
      </trkpt>
      <trkpt lat="44.98827" lon="4.68154">
        <ele>460</ele>
        <time>2018-10-24T09:56:12+02:00</time>
      </trkpt>
      <trkpt lat="44.98833" lon="4.68161">
        <ele>459</ele>
        <time>2018-10-24T09:56:19+02:00</time>
      </trkpt>
      <trkpt lat="44.98831" lon="4.68156">
        <ele>459</ele>
        <time>2018-10-24T09:56:24+02:00</time>
      </trkpt>
      <trkpt lat="44.9883" lon="4.68152">
        <ele>460</ele>
        <time>2018-10-24T09:56:26+02:00</time>
      </trkpt>
      <trkpt lat="44.98832" lon="4.68138">
        <ele>460</ele>
        <time>2018-10-24T09:56:34+02:00</time>
      </trkpt>
      <trkpt lat="44.98846" lon="4.68121">
        <ele>459</ele>
        <time>2018-10-24T09:56:45+02:00</time>
      </trkpt>
      <trkpt lat="44.98855" lon="4.681">
        <ele>459</ele>
        <time>2018-10-24T09:56:54+02:00</time>
      </trkpt>
      <trkpt lat="44.98872" lon="4.68081">
        <ele>460</ele>
        <time>2018-10-24T09:57:03+02:00</time>
      </trkpt>
      <trkpt lat="44.98881" lon="4.68059">
        <ele>461</ele>
        <time>2018-10-24T09:57:14+02:00</time>
      </trkpt>
      <trkpt lat="44.98882" lon="4.68055">
        <ele>461</ele>
        <time>2018-10-24T09:57:16+02:00</time>
      </trkpt>
      <trkpt lat="44.98883" lon="4.68044">
        <ele>462</ele>
        <time>2018-10-24T09:57:22+02:00</time>
      </trkpt>
      <trkpt lat="44.98883" lon="4.68042">
        <ele>462</ele>
        <time>2018-10-24T09:57:23+02:00</time>
      </trkpt>
      <trkpt lat="44.98883" lon="4.68039">
        <ele>462</ele>
        <time>2018-10-24T09:57:24+02:00</time>
      </trkpt>
      <trkpt lat="44.9888" lon="4.68025">
        <ele>463</ele>
        <time>2018-10-24T09:57:32+02:00</time>
      </trkpt>
      <trkpt lat="44.98873" lon="4.6801">
        <ele>463</ele>
        <time>2018-10-24T09:57:42+02:00</time>
      </trkpt>
      <trkpt lat="44.98871" lon="4.6799">
        <ele>464</ele>
        <time>2018-10-24T09:57:52+02:00</time>
      </trkpt>
      <trkpt lat="44.98871" lon="4.6797">
        <ele>465</ele>
        <time>2018-10-24T09:58:00+02:00</time>
      </trkpt>
      <trkpt lat="44.98874" lon="4.67952">
        <ele>466</ele>
        <time>2018-10-24T09:58:08+02:00</time>
      </trkpt>
      <trkpt lat="44.98871" lon="4.67933">
        <ele>466</ele>
        <time>2018-10-24T09:58:17+02:00</time>
      </trkpt>
      <trkpt lat="44.98869" lon="4.67918">
        <ele>467</ele>
        <time>2018-10-24T09:58:25+02:00</time>
      </trkpt>
      <trkpt lat="44.98869" lon="4.67902">
        <ele>469</ele>
        <time>2018-10-24T09:58:33+02:00</time>
      </trkpt>
      <trkpt lat="44.98867" lon="4.67884">
        <ele>471</ele>
        <time>2018-10-24T09:58:44+02:00</time>
      </trkpt>
      <trkpt lat="44.98867" lon="4.67882">
        <ele>471</ele>
        <time>2018-10-24T09:58:45+02:00</time>
      </trkpt>
      <trkpt lat="44.98866" lon="4.67868">
        <ele>473</ele>
        <time>2018-10-24T09:58:53+02:00</time>
      </trkpt>
      <trkpt lat="44.98867" lon="4.67856">
        <ele>474</ele>
        <time>2018-10-24T09:59:01+02:00</time>
      </trkpt>
      <trkpt lat="44.98868" lon="4.67854">
        <ele>474</ele>
        <time>2018-10-24T09:59:02+02:00</time>
      </trkpt>
      <trkpt lat="44.98868" lon="4.67837">
        <ele>476</ele>
        <time>2018-10-24T09:59:10+02:00</time>
      </trkpt>
      <trkpt lat="44.98871" lon="4.67827">
        <ele>477</ele>
        <time>2018-10-24T09:59:19+02:00</time>
      </trkpt>
      <trkpt lat="44.98873" lon="4.67812">
        <ele>478</ele>
        <time>2018-10-24T09:59:29+02:00</time>
      </trkpt>
      <trkpt lat="44.98878" lon="4.67798">
        <ele>478</ele>
        <time>2018-10-24T09:59:37+02:00</time>
      </trkpt>
      <trkpt lat="44.9888" lon="4.67795">
        <ele>478</ele>
        <time>2018-10-24T09:59:39+02:00</time>
      </trkpt>
      <trkpt lat="44.98886" lon="4.67782">
        <ele>478</ele>
        <time>2018-10-24T09:59:47+02:00</time>
      </trkpt>
      <trkpt lat="44.98892" lon="4.67771">
        <ele>477</ele>
        <time>2018-10-24T09:59:55+02:00</time>
      </trkpt>
      <trkpt lat="44.98892" lon="4.67771">
        <ele>477</ele>
        <time>2018-10-24T09:59:56+02:00</time>
      </trkpt>
      <trkpt lat="44.98897" lon="4.67761">
        <ele>476</ele>
        <time>2018-10-24T10:00:03+02:00</time>
      </trkpt>
      <trkpt lat="44.98906" lon="4.67744">
        <ele>475</ele>
        <time>2018-10-24T10:00:11+02:00</time>
      </trkpt>
      <trkpt lat="44.98911" lon="4.67732">
        <ele>475</ele>
        <time>2018-10-24T10:00:18+02:00</time>
      </trkpt>
      <trkpt lat="44.98913" lon="4.67727">
        <ele>475</ele>
        <time>2018-10-24T10:00:22+02:00</time>
      </trkpt>
      <trkpt lat="44.98916" lon="4.67717">
        <ele>476</ele>
        <time>2018-10-24T10:00:30+02:00</time>
      </trkpt>
      <trkpt lat="44.98922" lon="4.67703">
        <ele>478</ele>
        <time>2018-10-24T10:00:38+02:00</time>
      </trkpt>
      <trkpt lat="44.98927" lon="4.67689">
        <ele>479</ele>
        <time>2018-10-24T10:00:45+02:00</time>
      </trkpt>
      <trkpt lat="44.98929" lon="4.67678">
        <ele>481</ele>
        <time>2018-10-24T10:00:50+02:00</time>
      </trkpt>
      <trkpt lat="44.98936" lon="4.67662">
        <ele>482</ele>
        <time>2018-10-24T10:00:57+02:00</time>
      </trkpt>
      <trkpt lat="44.98941" lon="4.67643">
        <ele>484</ele>
        <time>2018-10-24T10:01:06+02:00</time>
      </trkpt>
      <trkpt lat="44.98941" lon="4.6764">
        <ele>484</ele>
        <time>2018-10-24T10:01:08+02:00</time>
      </trkpt>
      <trkpt lat="44.98942" lon="4.67636">
        <ele>484</ele>
        <time>2018-10-24T10:01:10+02:00</time>
      </trkpt>
      <trkpt lat="44.98942" lon="4.67626">
        <ele>486</ele>
        <time>2018-10-24T10:01:15+02:00</time>
      </trkpt>
      <trkpt lat="44.98942" lon="4.67619">
        <ele>486</ele>
        <time>2018-10-24T10:01:19+02:00</time>
      </trkpt>
      <trkpt lat="44.98943" lon="4.67611">
        <ele>487</ele>
        <time>2018-10-24T10:01:23+02:00</time>
      </trkpt>
      <trkpt lat="44.9894" lon="4.676">
        <ele>489</ele>
        <time>2018-10-24T10:01:31+02:00</time>
      </trkpt>
      <trkpt lat="44.98939" lon="4.67596">
        <ele>490</ele>
        <time>2018-10-24T10:01:38+02:00</time>
      </trkpt>
      <trkpt lat="44.98941" lon="4.67592">
        <ele>490</ele>
        <time>2018-10-24T10:01:44+02:00</time>
      </trkpt>
      <trkpt lat="44.98944" lon="4.67594">
        <ele>489</ele>
        <time>2018-10-24T10:01:50+02:00</time>
      </trkpt>
      <trkpt lat="44.98949" lon="4.67593">
        <ele>489</ele>
        <time>2018-10-24T10:01:57+02:00</time>
      </trkpt>
      <trkpt lat="44.98951" lon="4.67589">
        <ele>489</ele>
        <time>2018-10-24T10:02:02+02:00</time>
      </trkpt>
      <trkpt lat="44.9896" lon="4.67578">
        <ele>489</ele>
        <time>2018-10-24T10:02:11+02:00</time>
      </trkpt>
      <trkpt lat="44.98967" lon="4.67566">
        <ele>490</ele>
        <time>2018-10-24T10:02:18+02:00</time>
      </trkpt>
      <trkpt lat="44.98976" lon="4.67557">
        <ele>491</ele>
        <time>2018-10-24T10:02:25+02:00</time>
      </trkpt>
      <trkpt lat="44.98983" lon="4.67544">
        <ele>492</ele>
        <time>2018-10-24T10:02:34+02:00</time>
      </trkpt>
      <trkpt lat="44.98986" lon="4.67534">
        <ele>494</ele>
        <time>2018-10-24T10:02:41+02:00</time>
      </trkpt>
      <trkpt lat="44.98988" lon="4.67524">
        <ele>495</ele>
        <time>2018-10-24T10:02:48+02:00</time>
      </trkpt>
      <trkpt lat="44.98995" lon="4.67513">
        <ele>496</ele>
        <time>2018-10-24T10:02:55+02:00</time>
      </trkpt>
      <trkpt lat="44.98996" lon="4.67503">
        <ele>498</ele>
        <time>2018-10-24T10:03:03+02:00</time>
      </trkpt>
      <trkpt lat="44.98997" lon="4.67495">
        <ele>499</ele>
        <time>2018-10-24T10:03:10+02:00</time>
      </trkpt>
      <trkpt lat="44.99001" lon="4.67488">
        <ele>499</ele>
        <time>2018-10-24T10:03:17+02:00</time>
      </trkpt>
      <trkpt lat="44.99007" lon="4.67486">
        <ele>498</ele>
        <time>2018-10-24T10:03:25+02:00</time>
      </trkpt>
      <trkpt lat="44.99012" lon="4.67486">
        <ele>497</ele>
        <time>2018-10-24T10:03:30+02:00</time>
      </trkpt>
      <trkpt lat="44.99016" lon="4.67485">
        <ele>496</ele>
        <time>2018-10-24T10:03:36+02:00</time>
      </trkpt>
      <trkpt lat="44.99021" lon="4.67481">
        <ele>495</ele>
        <time>2018-10-24T10:03:42+02:00</time>
      </trkpt>
      <trkpt lat="44.99029" lon="4.67473">
        <ele>494</ele>
        <time>2018-10-24T10:03:50+02:00</time>
      </trkpt>
      <trkpt lat="44.99033" lon="4.67465">
        <ele>494</ele>
        <time>2018-10-24T10:03:56+02:00</time>
      </trkpt>
      <trkpt lat="44.99035" lon="4.67461">
        <ele>494</ele>
        <time>2018-10-24T10:03:59+02:00</time>
      </trkpt>
      <trkpt lat="44.99036" lon="4.67449">
        <ele>494</ele>
        <time>2018-10-24T10:04:07+02:00</time>
      </trkpt>
      <trkpt lat="44.99033" lon="4.67442">
        <ele>495</ele>
        <time>2018-10-24T10:04:14+02:00</time>
      </trkpt>
      <trkpt lat="44.99026" lon="4.67438">
        <ele>497</ele>
        <time>2018-10-24T10:04:21+02:00</time>
      </trkpt>
      <trkpt lat="44.99018" lon="4.67432">
        <ele>499</ele>
        <time>2018-10-24T10:04:29+02:00</time>
      </trkpt>
      <trkpt lat="44.99012" lon="4.67428">
        <ele>501</ele>
        <time>2018-10-24T10:04:36+02:00</time>
      </trkpt>
      <trkpt lat="44.99004" lon="4.67423">
        <ele>503</ele>
        <time>2018-10-24T10:04:47+02:00</time>
      </trkpt>
      <trkpt lat="44.98999" lon="4.67419">
        <ele>504</ele>
        <time>2018-10-24T10:04:52+02:00</time>
      </trkpt>
      <trkpt lat="44.9899" lon="4.67427">
        <ele>505</ele>
        <time>2018-10-24T10:05:02+02:00</time>
      </trkpt>
      <trkpt lat="44.98988" lon="4.67429">
        <ele>505</ele>
        <time>2018-10-24T10:05:04+02:00</time>
      </trkpt>
      <trkpt lat="44.98984" lon="4.67434">
        <ele>505</ele>
        <time>2018-10-24T10:05:10+02:00</time>
      </trkpt>
      <trkpt lat="44.98975" lon="4.67435">
        <ele>507</ele>
        <time>2018-10-24T10:05:18+02:00</time>
      </trkpt>
      <trkpt lat="44.98969" lon="4.67433">
        <ele>508</ele>
        <time>2018-10-24T10:05:24+02:00</time>
      </trkpt>
      <trkpt lat="44.98959" lon="4.6743">
        <ele>510</ele>
        <time>2018-10-24T10:05:33+02:00</time>
      </trkpt>
      <trkpt lat="44.98953" lon="4.67429">
        <ele>511</ele>
        <time>2018-10-24T10:05:40+02:00</time>
      </trkpt>
      <trkpt lat="44.98944" lon="4.67431">
        <ele>512</ele>
        <time>2018-10-24T10:05:48+02:00</time>
      </trkpt>
      <trkpt lat="44.98936" lon="4.6743">
        <ele>514</ele>
        <time>2018-10-24T10:05:56+02:00</time>
      </trkpt>
      <trkpt lat="44.98928" lon="4.6743">
        <ele>515</ele>
        <time>2018-10-24T10:06:05+02:00</time>
      </trkpt>
      <trkpt lat="44.98925" lon="4.67431">
        <ele>515</ele>
        <time>2018-10-24T10:06:17+02:00</time>
      </trkpt>
      <trkpt lat="44.98922" lon="4.6743">
        <ele>516</ele>
        <time>2018-10-24T10:06:27+02:00</time>
      </trkpt>
      <trkpt lat="44.98921" lon="4.67427">
        <ele>516</ele>
        <time>2018-10-24T10:06:42+02:00</time>
      </trkpt>
      <trkpt lat="44.98924" lon="4.67427">
        <ele>516</ele>
        <time>2018-10-24T10:06:55+02:00</time>
      </trkpt>
      <trkpt lat="44.98919" lon="4.67427">
        <ele>517</ele>
        <time>2018-10-24T10:07:10+02:00</time>
      </trkpt>
      <trkpt lat="44.98916" lon="4.67421">
        <ele>518</ele>
        <time>2018-10-24T10:07:17+02:00</time>
      </trkpt>
      <trkpt lat="44.98915" lon="4.67416">
        <ele>518</ele>
        <time>2018-10-24T10:07:22+02:00</time>
      </trkpt>
      <trkpt lat="44.98913" lon="4.6741">
        <ele>518</ele>
        <time>2018-10-24T10:07:27+02:00</time>
      </trkpt>
      <trkpt lat="44.98912" lon="4.67405">
        <ele>519</ele>
        <time>2018-10-24T10:07:30+02:00</time>
      </trkpt>
      <trkpt lat="44.98908" lon="4.67393">
        <ele>519</ele>
        <time>2018-10-24T10:07:40+02:00</time>
      </trkpt>
      <trkpt lat="44.98896" lon="4.67382">
        <ele>521</ele>
        <time>2018-10-24T10:07:49+02:00</time>
      </trkpt>
      <trkpt lat="44.98889" lon="4.67371">
        <ele>523</ele>
        <time>2018-10-24T10:07:57+02:00</time>
      </trkpt>
      <trkpt lat="44.98886" lon="4.67363">
        <ele>523</ele>
        <time>2018-10-24T10:08:02+02:00</time>
      </trkpt>
      <trkpt lat="44.98886" lon="4.67354">
        <ele>523</ele>
        <time>2018-10-24T10:08:07+02:00</time>
      </trkpt>
      <trkpt lat="44.9889" lon="4.67332">
        <ele>523</ele>
        <time>2018-10-24T10:08:18+02:00</time>
      </trkpt>
      <trkpt lat="44.98891" lon="4.67314">
        <ele>523</ele>
        <time>2018-10-24T10:08:28+02:00</time>
      </trkpt>
      <trkpt lat="44.9889" lon="4.6731">
        <ele>523</ele>
        <time>2018-10-24T10:08:30+02:00</time>
      </trkpt>
      <trkpt lat="44.98889" lon="4.67302">
        <ele>524</ele>
        <time>2018-10-24T10:08:35+02:00</time>
      </trkpt>
      <trkpt lat="44.98887" lon="4.67296">
        <ele>524</ele>
        <time>2018-10-24T10:08:39+02:00</time>
      </trkpt>
      <trkpt lat="44.98882" lon="4.67287">
        <ele>526</ele>
        <time>2018-10-24T10:08:45+02:00</time>
      </trkpt>
      <trkpt lat="44.9888" lon="4.67279">
        <ele>526</ele>
        <time>2018-10-24T10:08:50+02:00</time>
      </trkpt>
      <trkpt lat="44.98879" lon="4.67277">
        <ele>526</ele>
        <time>2018-10-24T10:08:51+02:00</time>
      </trkpt>
      <trkpt lat="44.98871" lon="4.67258">
        <ele>529</ele>
        <time>2018-10-24T10:09:03+02:00</time>
      </trkpt>
      <trkpt lat="44.98856" lon="4.67248">
        <ele>533</ele>
        <time>2018-10-24T10:09:12+02:00</time>
      </trkpt>
      <trkpt lat="44.98844" lon="4.67243">
        <ele>536</ele>
        <time>2018-10-24T10:09:20+02:00</time>
      </trkpt>
      <trkpt lat="44.98836" lon="4.67239">
        <ele>538</ele>
        <time>2018-10-24T10:09:27+02:00</time>
      </trkpt>
      <trkpt lat="44.98829" lon="4.67232">
        <ele>539</ele>
        <time>2018-10-24T10:09:35+02:00</time>
      </trkpt>
      <trkpt lat="44.98825" lon="4.67222">
        <ele>540</ele>
        <time>2018-10-24T10:09:44+02:00</time>
      </trkpt>
      <trkpt lat="44.98821" lon="4.67211">
        <ele>541</ele>
        <time>2018-10-24T10:09:52+02:00</time>
      </trkpt>
      <trkpt lat="44.98815" lon="4.672">
        <ele>542</ele>
        <time>2018-10-24T10:10:00+02:00</time>
      </trkpt>
      <trkpt lat="44.98812" lon="4.67185">
        <ele>543</ele>
        <time>2018-10-24T10:10:07+02:00</time>
      </trkpt>
      <trkpt lat="44.98807" lon="4.67171">
        <ele>545</ele>
        <time>2018-10-24T10:10:16+02:00</time>
      </trkpt>
      <trkpt lat="44.98804" lon="4.67162">
        <ele>546</ele>
        <time>2018-10-24T10:10:22+02:00</time>
      </trkpt>
      <trkpt lat="44.988" lon="4.67151">
        <ele>547</ele>
        <time>2018-10-24T10:10:30+02:00</time>
      </trkpt>
      <trkpt lat="44.98795" lon="4.67134">
        <ele>550</ele>
        <time>2018-10-24T10:10:40+02:00</time>
      </trkpt>
      <trkpt lat="44.98792" lon="4.67127">
        <ele>551</ele>
        <time>2018-10-24T10:10:44+02:00</time>
      </trkpt>
      <trkpt lat="44.98792" lon="4.67123">
        <ele>551</ele>
        <time>2018-10-24T10:10:46+02:00</time>
      </trkpt>
      <trkpt lat="44.98792" lon="4.67107">
        <ele>552</ele>
        <time>2018-10-24T10:10:54+02:00</time>
      </trkpt>
      <trkpt lat="44.98791" lon="4.67102">
        <ele>552</ele>
        <time>2018-10-24T10:10:57+02:00</time>
      </trkpt>
      <trkpt lat="44.9879" lon="4.6709">
        <ele>553</ele>
        <time>2018-10-24T10:11:04+02:00</time>
      </trkpt>
      <trkpt lat="44.9879" lon="4.67085">
        <ele>553</ele>
        <time>2018-10-24T10:11:07+02:00</time>
      </trkpt>
      <trkpt lat="44.98793" lon="4.67067">
        <ele>552</ele>
        <time>2018-10-24T10:11:16+02:00</time>
      </trkpt>
      <trkpt lat="44.98794" lon="4.67055">
        <ele>553</ele>
        <time>2018-10-24T10:11:23+02:00</time>
      </trkpt>
      <trkpt lat="44.98796" lon="4.67047">
        <ele>552</ele>
        <time>2018-10-24T10:11:27+02:00</time>
      </trkpt>
      <trkpt lat="44.98795" lon="4.67044">
        <ele>553</ele>
        <time>2018-10-24T10:11:28+02:00</time>
      </trkpt>
      <trkpt lat="44.98792" lon="4.67027">
        <ele>555</ele>
        <time>2018-10-24T10:11:37+02:00</time>
      </trkpt>
      <trkpt lat="44.98791" lon="4.67018">
        <ele>556</ele>
        <time>2018-10-24T10:11:42+02:00</time>
      </trkpt>
      <trkpt lat="44.98791" lon="4.67007">
        <ele>557</ele>
        <time>2018-10-24T10:11:49+02:00</time>
      </trkpt>
      <trkpt lat="44.98785" lon="4.66993">
        <ele>560</ele>
        <time>2018-10-24T10:11:57+02:00</time>
      </trkpt>
      <trkpt lat="44.98783" lon="4.66983">
        <ele>562</ele>
        <time>2018-10-24T10:12:03+02:00</time>
      </trkpt>
      <trkpt lat="44.98782" lon="4.66981">
        <ele>562</ele>
        <time>2018-10-24T10:12:04+02:00</time>
      </trkpt>
      <trkpt lat="44.98778" lon="4.66969">
        <ele>565</ele>
        <time>2018-10-24T10:12:11+02:00</time>
      </trkpt>
      <trkpt lat="44.98774" lon="4.66957">
        <ele>567</ele>
        <time>2018-10-24T10:12:18+02:00</time>
      </trkpt>
      <trkpt lat="44.98771" lon="4.66941">
        <ele>570</ele>
        <time>2018-10-24T10:12:27+02:00</time>
      </trkpt>
      <trkpt lat="44.98771" lon="4.66933">
        <ele>570</ele>
        <time>2018-10-24T10:12:33+02:00</time>
      </trkpt>
      <trkpt lat="44.98772" lon="4.66932">
        <ele>570</ele>
        <time>2018-10-24T10:12:34+02:00</time>
      </trkpt>
      <trkpt lat="44.98783" lon="4.66924">
        <ele>568</ele>
        <time>2018-10-24T10:12:44+02:00</time>
      </trkpt>
      <trkpt lat="44.98786" lon="4.66923">
        <ele>567</ele>
        <time>2018-10-24T10:12:47+02:00</time>
      </trkpt>
      <trkpt lat="44.98794" lon="4.66924">
        <ele>565</ele>
        <time>2018-10-24T10:12:55+02:00</time>
      </trkpt>
      <trkpt lat="44.98805" lon="4.66921">
        <ele>563</ele>
        <time>2018-10-24T10:13:01+02:00</time>
      </trkpt>
      <trkpt lat="44.98816" lon="4.66913">
        <ele>561</ele>
        <time>2018-10-24T10:13:09+02:00</time>
      </trkpt>
      <trkpt lat="44.98822" lon="4.66908">
        <ele>559</ele>
        <time>2018-10-24T10:13:15+02:00</time>
      </trkpt>
      <trkpt lat="44.98821" lon="4.66909">
        <ele>559</ele>
        <time>2018-10-24T10:13:24+02:00</time>
      </trkpt>
      <trkpt lat="44.98823" lon="4.6691">
        <ele>559</ele>
        <time>2018-10-24T10:13:32+02:00</time>
      </trkpt>
      <trkpt lat="44.98828" lon="4.669">
        <ele>558</ele>
        <time>2018-10-24T10:13:38+02:00</time>
      </trkpt>
      <trkpt lat="44.98829" lon="4.66897">
        <ele>558</ele>
        <time>2018-10-24T10:13:40+02:00</time>
      </trkpt>
      <trkpt lat="44.98829" lon="4.66894">
        <ele>558</ele>
        <time>2018-10-24T10:13:42+02:00</time>
      </trkpt>
      <trkpt lat="44.98831" lon="4.6688">
        <ele>558</ele>
        <time>2018-10-24T10:13:51+02:00</time>
      </trkpt>
      <trkpt lat="44.9883" lon="4.66879">
        <ele>559</ele>
        <time>2018-10-24T10:13:52+02:00</time>
      </trkpt>
      <trkpt lat="44.98826" lon="4.66867">
        <ele>561</ele>
        <time>2018-10-24T10:14:00+02:00</time>
      </trkpt>
      <trkpt lat="44.98822" lon="4.66857">
        <ele>562</ele>
        <time>2018-10-24T10:14:08+02:00</time>
      </trkpt>
      <trkpt lat="44.98821" lon="4.66858">
        <ele>563</ele>
        <time>2018-10-24T10:14:15+02:00</time>
      </trkpt>
      <trkpt lat="44.98819" lon="4.66852">
        <ele>563</ele>
        <time>2018-10-24T10:14:19+02:00</time>
      </trkpt>
      <trkpt lat="44.98811" lon="4.66837">
        <ele>567</ele>
        <time>2018-10-24T10:14:29+02:00</time>
      </trkpt>
      <trkpt lat="44.98807" lon="4.66825">
        <ele>568</ele>
        <time>2018-10-24T10:14:37+02:00</time>
      </trkpt>
      <trkpt lat="44.98803" lon="4.66811">
        <ele>568</ele>
        <time>2018-10-24T10:14:45+02:00</time>
      </trkpt>
      <trkpt lat="44.98801" lon="4.66801">
        <ele>567</ele>
        <time>2018-10-24T10:14:50+02:00</time>
      </trkpt>
      <trkpt lat="44.98801" lon="4.66791">
        <ele>567</ele>
        <time>2018-10-24T10:14:55+02:00</time>
      </trkpt>
      <trkpt lat="44.98798" lon="4.66785">
        <ele>567</ele>
        <time>2018-10-24T10:14:59+02:00</time>
      </trkpt>
      <trkpt lat="44.98794" lon="4.66772">
        <ele>568</ele>
        <time>2018-10-24T10:15:08+02:00</time>
      </trkpt>
      <trkpt lat="44.98788" lon="4.66763">
        <ele>570</ele>
        <time>2018-10-24T10:15:14+02:00</time>
      </trkpt>
      <trkpt lat="44.9878" lon="4.6675">
        <ele>572</ele>
        <time>2018-10-24T10:15:24+02:00</time>
      </trkpt>
      <trkpt lat="44.98778" lon="4.66744">
        <ele>572</ele>
        <time>2018-10-24T10:15:29+02:00</time>
      </trkpt>
      <trkpt lat="44.98774" lon="4.66732">
        <ele>573</ele>
        <time>2018-10-24T10:15:37+02:00</time>
      </trkpt>
      <trkpt lat="44.98773" lon="4.66728">
        <ele>573</ele>
        <time>2018-10-24T10:15:40+02:00</time>
      </trkpt>
      <trkpt lat="44.9877" lon="4.66721">
        <ele>574</ele>
        <time>2018-10-24T10:15:44+02:00</time>
      </trkpt>
      <trkpt lat="44.98767" lon="4.66716">
        <ele>574</ele>
        <time>2018-10-24T10:15:47+02:00</time>
      </trkpt>
      <trkpt lat="44.98761" lon="4.66701">
        <ele>575</ele>
        <time>2018-10-24T10:15:55+02:00</time>
      </trkpt>
      <trkpt lat="44.98756" lon="4.66689">
        <ele>576</ele>
        <time>2018-10-24T10:16:04+02:00</time>
      </trkpt>
      <trkpt lat="44.98756" lon="4.66687">
        <ele>576</ele>
        <time>2018-10-24T10:16:05+02:00</time>
      </trkpt>
      <trkpt lat="44.98754" lon="4.66683">
        <ele>576</ele>
        <time>2018-10-24T10:16:07+02:00</time>
      </trkpt>
      <trkpt lat="44.98744" lon="4.66672">
        <ele>579</ele>
        <time>2018-10-24T10:16:16+02:00</time>
      </trkpt>
      <trkpt lat="44.98737" lon="4.66659">
        <ele>581</ele>
        <time>2018-10-24T10:16:24+02:00</time>
      </trkpt>
      <trkpt lat="44.98737" lon="4.66655">
        <ele>581</ele>
        <time>2018-10-24T10:16:26+02:00</time>
      </trkpt>
      <trkpt lat="44.98737" lon="4.66651">
        <ele>581</ele>
        <time>2018-10-24T10:16:28+02:00</time>
      </trkpt>
      <trkpt lat="44.98733" lon="4.66639">
        <ele>581</ele>
        <time>2018-10-24T10:16:36+02:00</time>
      </trkpt>
      <trkpt lat="44.98733" lon="4.66633">
        <ele>581</ele>
        <time>2018-10-24T10:16:40+02:00</time>
      </trkpt>
      <trkpt lat="44.9873" lon="4.66618">
        <ele>581</ele>
        <time>2018-10-24T10:16:48+02:00</time>
      </trkpt>
      <trkpt lat="44.98726" lon="4.66599">
        <ele>581</ele>
        <time>2018-10-24T10:16:57+02:00</time>
      </trkpt>
      <trkpt lat="44.98724" lon="4.66586">
        <ele>580</ele>
        <time>2018-10-24T10:17:04+02:00</time>
      </trkpt>
      <trkpt lat="44.98719" lon="4.66574">
        <ele>581</ele>
        <time>2018-10-24T10:17:13+02:00</time>
      </trkpt>
      <trkpt lat="44.98715" lon="4.66563">
        <ele>582</ele>
        <time>2018-10-24T10:17:20+02:00</time>
      </trkpt>
      <trkpt lat="44.98709" lon="4.66549">
        <ele>583</ele>
        <time>2018-10-24T10:17:29+02:00</time>
      </trkpt>
      <trkpt lat="44.98705" lon="4.66538">
        <ele>584</ele>
        <time>2018-10-24T10:17:37+02:00</time>
      </trkpt>
      <trkpt lat="44.98701" lon="4.66522">
        <ele>584</ele>
        <time>2018-10-24T10:17:46+02:00</time>
      </trkpt>
      <trkpt lat="44.98699" lon="4.66515">
        <ele>584</ele>
        <time>2018-10-24T10:17:53+02:00</time>
      </trkpt>
      <trkpt lat="44.98695" lon="4.66507">
        <ele>585</ele>
        <time>2018-10-24T10:18:00+02:00</time>
      </trkpt>
      <trkpt lat="44.98694" lon="4.66498">
        <ele>585</ele>
        <time>2018-10-24T10:18:08+02:00</time>
      </trkpt>
      <trkpt lat="44.98694" lon="4.66497">
        <ele>585</ele>
        <time>2018-10-24T10:18:16+02:00</time>
      </trkpt>
      <trkpt lat="44.98693" lon="4.66499">
        <ele>585</ele>
        <time>2018-10-24T10:18:29+02:00</time>
      </trkpt>
      <trkpt lat="44.98692" lon="4.66494">
        <ele>585</ele>
        <time>2018-10-24T10:18:37+02:00</time>
      </trkpt>
      <trkpt lat="44.98692" lon="4.66489">
        <ele>585</ele>
        <time>2018-10-24T10:18:45+02:00</time>
      </trkpt>
      <trkpt lat="44.98693" lon="4.66489">
        <ele>585</ele>
        <time>2018-10-24T10:18:53+02:00</time>
      </trkpt>
      <trkpt lat="44.98692" lon="4.66489">
        <ele>585</ele>
        <time>2018-10-24T10:19:05+02:00</time>
      </trkpt>
      <trkpt lat="44.98691" lon="4.66487">
        <ele>586</ele>
        <time>2018-10-24T10:19:14+02:00</time>
      </trkpt>
      <trkpt lat="44.98693" lon="4.66478">
        <ele>585</ele>
        <time>2018-10-24T10:19:22+02:00</time>
      </trkpt>
      <trkpt lat="44.98692" lon="4.66477">
        <ele>586</ele>
        <time>2018-10-24T10:19:24+02:00</time>
      </trkpt>
      <trkpt lat="44.98691" lon="4.66477">
        <ele>586</ele>
        <time>2018-10-24T10:19:26+02:00</time>
      </trkpt>
      <trkpt lat="44.98691" lon="4.66477">
        <ele>586</ele>
        <time>2018-10-24T10:19:37+02:00</time>
      </trkpt>
      <trkpt lat="44.9869" lon="4.66479">
        <ele>586</ele>
        <time>2018-10-24T10:19:47+02:00</time>
      </trkpt>
      <trkpt lat="44.98691" lon="4.6648">
        <ele>586</ele>
        <time>2018-10-24T10:19:56+02:00</time>
      </trkpt>
      <trkpt lat="44.98692" lon="4.66474">
        <ele>586</ele>
        <time>2018-10-24T10:20:09+02:00</time>
      </trkpt>
      <trkpt lat="44.98689" lon="4.66472">
        <ele>586</ele>
        <time>2018-10-24T10:20:16+02:00</time>
      </trkpt>
      <trkpt lat="44.98689" lon="4.66472">
        <ele>586</ele>
        <time>2018-10-24T10:20:24+02:00</time>
      </trkpt>
      <trkpt lat="44.98685" lon="4.66453">
        <ele>587</ele>
        <time>2018-10-24T10:20:34+02:00</time>
      </trkpt>
      <trkpt lat="44.98685" lon="4.66448">
        <ele>588</ele>
        <time>2018-10-24T10:20:37+02:00</time>
      </trkpt>
      <trkpt lat="44.98684" lon="4.66444">
        <ele>588</ele>
        <time>2018-10-24T10:20:39+02:00</time>
      </trkpt>
      <trkpt lat="44.98679" lon="4.66426">
        <ele>589</ele>
        <time>2018-10-24T10:20:49+02:00</time>
      </trkpt>
      <trkpt lat="44.98677" lon="4.66419">
        <ele>590</ele>
        <time>2018-10-24T10:20:53+02:00</time>
      </trkpt>
      <trkpt lat="44.98674" lon="4.66403">
        <ele>591</ele>
        <time>2018-10-24T10:21:02+02:00</time>
      </trkpt>
      <trkpt lat="44.98674" lon="4.66401">
        <ele>591</ele>
        <time>2018-10-24T10:21:03+02:00</time>
      </trkpt>
      <trkpt lat="44.98673" lon="4.66387">
        <ele>592</ele>
        <time>2018-10-24T10:21:11+02:00</time>
      </trkpt>
      <trkpt lat="44.98673" lon="4.66381">
        <ele>593</ele>
        <time>2018-10-24T10:21:14+02:00</time>
      </trkpt>
      <trkpt lat="44.98678" lon="4.66366">
        <ele>593</ele>
        <time>2018-10-24T10:21:22+02:00</time>
      </trkpt>
      <trkpt lat="44.98681" lon="4.66346">
        <ele>593</ele>
        <time>2018-10-24T10:21:32+02:00</time>
      </trkpt>
      <trkpt lat="44.98684" lon="4.66332">
        <ele>594</ele>
        <time>2018-10-24T10:21:41+02:00</time>
      </trkpt>
      <trkpt lat="44.98684" lon="4.66327">
        <ele>595</ele>
        <time>2018-10-24T10:21:50+02:00</time>
      </trkpt>
      <trkpt lat="44.98685" lon="4.66325">
        <ele>595</ele>
        <time>2018-10-24T10:21:58+02:00</time>
      </trkpt>
      <trkpt lat="44.9869" lon="4.6632">
        <ele>595</ele>
        <time>2018-10-24T10:22:06+02:00</time>
      </trkpt>
      <trkpt lat="44.9869" lon="4.66319">
        <ele>595</ele>
        <time>2018-10-24T10:22:14+02:00</time>
      </trkpt>
      <trkpt lat="44.9869" lon="4.6631">
        <ele>597</ele>
        <time>2018-10-24T10:22:23+02:00</time>
      </trkpt>
      <trkpt lat="44.98692" lon="4.66299">
        <ele>598</ele>
        <time>2018-10-24T10:22:30+02:00</time>
      </trkpt>
      <trkpt lat="44.98692" lon="4.66296">
        <ele>599</ele>
        <time>2018-10-24T10:22:32+02:00</time>
      </trkpt>
      <trkpt lat="44.98693" lon="4.66277">
        <ele>602</ele>
        <time>2018-10-24T10:22:41+02:00</time>
      </trkpt>
      <trkpt lat="44.98704" lon="4.66261">
        <ele>603</ele>
        <time>2018-10-24T10:22:50+02:00</time>
      </trkpt>
      <trkpt lat="44.98713" lon="4.6626">
        <ele>602</ele>
        <time>2018-10-24T10:22:57+02:00</time>
      </trkpt>
      <trkpt lat="44.98723" lon="4.66267">
        <ele>600</ele>
        <time>2018-10-24T10:23:05+02:00</time>
      </trkpt>
      <trkpt lat="44.98734" lon="4.66276">
        <ele>596</ele>
        <time>2018-10-24T10:23:15+02:00</time>
      </trkpt>
      <trkpt lat="44.98741" lon="4.6628">
        <ele>595</ele>
        <time>2018-10-24T10:23:23+02:00</time>
      </trkpt>
      <trkpt lat="44.98751" lon="4.66283">
        <ele>593</ele>
        <time>2018-10-24T10:23:32+02:00</time>
      </trkpt>
      <trkpt lat="44.98765" lon="4.66294">
        <ele>590</ele>
        <time>2018-10-24T10:23:41+02:00</time>
      </trkpt>
      <trkpt lat="44.98774" lon="4.66304">
        <ele>588</ele>
        <time>2018-10-24T10:23:51+02:00</time>
      </trkpt>
      <trkpt lat="44.98777" lon="4.66306">
        <ele>588</ele>
        <time>2018-10-24T10:23:53+02:00</time>
      </trkpt>
      <trkpt lat="44.98789" lon="4.66313">
        <ele>587</ele>
        <time>2018-10-24T10:24:03+02:00</time>
      </trkpt>
      <trkpt lat="44.98795" lon="4.66312">
        <ele>587</ele>
        <time>2018-10-24T10:24:07+02:00</time>
      </trkpt>
      <trkpt lat="44.98806" lon="4.66304">
        <ele>588</ele>
        <time>2018-10-24T10:24:15+02:00</time>
      </trkpt>
      <trkpt lat="44.98809" lon="4.66302">
        <ele>588</ele>
        <time>2018-10-24T10:24:17+02:00</time>
      </trkpt>
      <trkpt lat="44.98812" lon="4.66301">
        <ele>589</ele>
        <time>2018-10-24T10:24:24+02:00</time>
      </trkpt>
      <trkpt lat="44.98812" lon="4.66302">
        <ele>589</ele>
        <time>2018-10-24T10:24:26+02:00</time>
      </trkpt>
      <trkpt lat="44.98811" lon="4.66304">
        <ele>588</ele>
        <time>2018-10-24T10:24:42+02:00</time>
      </trkpt>
      <trkpt lat="44.98811" lon="4.663">
        <ele>589</ele>
        <time>2018-10-24T10:24:53+02:00</time>
      </trkpt>
      <trkpt lat="44.98812" lon="4.66293">
        <ele>590</ele>
        <time>2018-10-24T10:24:59+02:00</time>
      </trkpt>
      <trkpt lat="44.98812" lon="4.66285">
        <ele>591</ele>
        <time>2018-10-24T10:25:06+02:00</time>
      </trkpt>
      <trkpt lat="44.98811" lon="4.66282">
        <ele>591</ele>
        <time>2018-10-24T10:25:13+02:00</time>
      </trkpt>
      <trkpt lat="44.98812" lon="4.66278">
        <ele>592</ele>
        <time>2018-10-24T10:25:17+02:00</time>
      </trkpt>
      <trkpt lat="44.98814" lon="4.66272">
        <ele>593</ele>
        <time>2018-10-24T10:25:22+02:00</time>
      </trkpt>
      <trkpt lat="44.98815" lon="4.66258">
        <ele>594</ele>
        <time>2018-10-24T10:25:30+02:00</time>
      </trkpt>
      <trkpt lat="44.98816" lon="4.66246">
        <ele>595</ele>
        <time>2018-10-24T10:25:36+02:00</time>
      </trkpt>
      <trkpt lat="44.98815" lon="4.66231">
        <ele>596</ele>
        <time>2018-10-24T10:25:43+02:00</time>
      </trkpt>
      <trkpt lat="44.98815" lon="4.66215">
        <ele>597</ele>
        <time>2018-10-24T10:25:51+02:00</time>
      </trkpt>
      <trkpt lat="44.98813" lon="4.66202">
        <ele>597</ele>
        <time>2018-10-24T10:25:59+02:00</time>
      </trkpt>
      <trkpt lat="44.98816" lon="4.66185">
        <ele>597</ele>
        <time>2018-10-24T10:26:07+02:00</time>
      </trkpt>
      <trkpt lat="44.98815" lon="4.66166">
        <ele>598</ele>
        <time>2018-10-24T10:26:17+02:00</time>
      </trkpt>
      <trkpt lat="44.98813" lon="4.66147">
        <ele>598</ele>
        <time>2018-10-24T10:26:26+02:00</time>
      </trkpt>
      <trkpt lat="44.98807" lon="4.66124">
        <ele>598</ele>
        <time>2018-10-24T10:26:36+02:00</time>
      </trkpt>
      <trkpt lat="44.98804" lon="4.66107">
        <ele>598</ele>
        <time>2018-10-24T10:26:44+02:00</time>
      </trkpt>
      <trkpt lat="44.98805" lon="4.66098">
        <ele>598</ele>
        <time>2018-10-24T10:26:52+02:00</time>
      </trkpt>
      <trkpt lat="44.98805" lon="4.66092">
        <ele>597</ele>
        <time>2018-10-24T10:27:00+02:00</time>
      </trkpt>
      <trkpt lat="44.98807" lon="4.66095">
        <ele>597</ele>
        <time>2018-10-24T10:27:07+02:00</time>
      </trkpt>
      <trkpt lat="44.98813" lon="4.66106">
        <ele>596</ele>
        <time>2018-10-24T10:27:16+02:00</time>
      </trkpt>
      <trkpt lat="44.98824" lon="4.66118">
        <ele>594</ele>
        <time>2018-10-24T10:27:26+02:00</time>
      </trkpt>
      <trkpt lat="44.98841" lon="4.6613">
        <ele>590</ele>
        <time>2018-10-24T10:27:38+02:00</time>
      </trkpt>
      <trkpt lat="44.98855" lon="4.66136">
        <ele>587</ele>
        <time>2018-10-24T10:27:49+02:00</time>
      </trkpt>
      <trkpt lat="44.98866" lon="4.66142">
        <ele>584</ele>
        <time>2018-10-24T10:28:00+02:00</time>
      </trkpt>
      <trkpt lat="44.98877" lon="4.66142">
        <ele>581</ele>
        <time>2018-10-24T10:28:08+02:00</time>
      </trkpt>
      <trkpt lat="44.98891" lon="4.66139">
        <ele>577</ele>
        <time>2018-10-24T10:28:18+02:00</time>
      </trkpt>
      <trkpt lat="44.98901" lon="4.66134">
        <ele>573</ele>
        <time>2018-10-24T10:28:27+02:00</time>
      </trkpt>
      <trkpt lat="44.98911" lon="4.66134">
        <ele>571</ele>
        <time>2018-10-24T10:28:36+02:00</time>
      </trkpt>
      <trkpt lat="44.98921" lon="4.66139">
        <ele>569</ele>
        <time>2018-10-24T10:28:45+02:00</time>
      </trkpt>
      <trkpt lat="44.98932" lon="4.66129">
        <ele>566</ele>
        <time>2018-10-24T10:28:54+02:00</time>
      </trkpt>
      <trkpt lat="44.98938" lon="4.66118">
        <ele>565</ele>
        <time>2018-10-24T10:29:03+02:00</time>
      </trkpt>
      <trkpt lat="44.98952" lon="4.66114">
        <ele>562</ele>
        <time>2018-10-24T10:29:13+02:00</time>
      </trkpt>
      <trkpt lat="44.98959" lon="4.66119">
        <ele>561</ele>
        <time>2018-10-24T10:29:19+02:00</time>
      </trkpt>
      <trkpt lat="44.9897" lon="4.66131">
        <ele>560</ele>
        <time>2018-10-24T10:29:28+02:00</time>
      </trkpt>
      <trkpt lat="44.98976" lon="4.66144">
        <ele>559</ele>
        <time>2018-10-24T10:29:36+02:00</time>
      </trkpt>
      <trkpt lat="44.98983" lon="4.66157">
        <ele>558</ele>
        <time>2018-10-24T10:29:46+02:00</time>
      </trkpt>
      <trkpt lat="44.98991" lon="4.6616">
        <ele>557</ele>
        <time>2018-10-24T10:29:56+02:00</time>
      </trkpt>
      <trkpt lat="44.98994" lon="4.66155">
        <ele>556</ele>
        <time>2018-10-24T10:30:09+02:00</time>
      </trkpt>
      <trkpt lat="44.99004" lon="4.66161">
        <ele>555</ele>
        <time>2018-10-24T10:30:21+02:00</time>
      </trkpt>
      <trkpt lat="44.99012" lon="4.66165">
        <ele>554</ele>
        <time>2018-10-24T10:30:30+02:00</time>
      </trkpt>
      <trkpt lat="44.99019" lon="4.66172">
        <ele>553</ele>
        <time>2018-10-24T10:30:39+02:00</time>
      </trkpt>
      <trkpt lat="44.99028" lon="4.66183">
        <ele>551</ele>
        <time>2018-10-24T10:30:49+02:00</time>
      </trkpt>
      <trkpt lat="44.99034" lon="4.66192">
        <ele>550</ele>
        <time>2018-10-24T10:30:56+02:00</time>
      </trkpt>
      <trkpt lat="44.99037" lon="4.66199">
        <ele>549</ele>
        <time>2018-10-24T10:31:01+02:00</time>
      </trkpt>
      <trkpt lat="44.99044" lon="4.66211">
        <ele>547</ele>
        <time>2018-10-24T10:31:10+02:00</time>
      </trkpt>
      <trkpt lat="44.99048" lon="4.66219">
        <ele>546</ele>
        <time>2018-10-24T10:31:19+02:00</time>
      </trkpt>
      <trkpt lat="44.99056" lon="4.66231">
        <ele>544</ele>
        <time>2018-10-24T10:31:29+02:00</time>
      </trkpt>
      <trkpt lat="44.99059" lon="4.66231">
        <ele>544</ele>
        <time>2018-10-24T10:31:31+02:00</time>
      </trkpt>
      <trkpt lat="44.9907" lon="4.66225">
        <ele>543</ele>
        <time>2018-10-24T10:31:41+02:00</time>
      </trkpt>
      <trkpt lat="44.99079" lon="4.66229">
        <ele>542</ele>
        <time>2018-10-24T10:31:51+02:00</time>
      </trkpt>
      <trkpt lat="44.99077" lon="4.6624">
        <ele>541</ele>
        <time>2018-10-24T10:32:00+02:00</time>
      </trkpt>
      <trkpt lat="44.99071" lon="4.66256">
        <ele>540</ele>
        <time>2018-10-24T10:32:10+02:00</time>
      </trkpt>
      <trkpt lat="44.99059" lon="4.66263">
        <ele>540</ele>
        <time>2018-10-24T10:32:19+02:00</time>
      </trkpt>
      <trkpt lat="44.99047" lon="4.66262">
        <ele>542</ele>
        <time>2018-10-24T10:32:30+02:00</time>
      </trkpt>
      <trkpt lat="44.99038" lon="4.66264">
        <ele>542</ele>
        <time>2018-10-24T10:32:39+02:00</time>
      </trkpt>
      <trkpt lat="44.99044" lon="4.6628">
        <ele>539</ele>
        <time>2018-10-24T10:32:47+02:00</time>
      </trkpt>
      <trkpt lat="44.99053" lon="4.66291">
        <ele>537</ele>
        <time>2018-10-24T10:32:56+02:00</time>
      </trkpt>
      <trkpt lat="44.99054" lon="4.66293">
        <ele>536</ele>
        <time>2018-10-24T10:32:57+02:00</time>
      </trkpt>
      <trkpt lat="44.99064" lon="4.66307">
        <ele>533</ele>
        <time>2018-10-24T10:33:06+02:00</time>
      </trkpt>
      <trkpt lat="44.9907" lon="4.6631">
        <ele>531</ele>
        <time>2018-10-24T10:33:13+02:00</time>
      </trkpt>
      <trkpt lat="44.9908" lon="4.66307">
        <ele>530</ele>
        <time>2018-10-24T10:33:22+02:00</time>
      </trkpt>
      <trkpt lat="44.99083" lon="4.66305">
        <ele>530</ele>
        <time>2018-10-24T10:33:25+02:00</time>
      </trkpt>
      <trkpt lat="44.99098" lon="4.66299">
        <ele>531</ele>
        <time>2018-10-24T10:33:36+02:00</time>
      </trkpt>
      <trkpt lat="44.9911" lon="4.66291">
        <ele>532</ele>
        <time>2018-10-24T10:33:47+02:00</time>
      </trkpt>
      <trkpt lat="44.99121" lon="4.66284">
        <ele>532</ele>
        <time>2018-10-24T10:33:57+02:00</time>
      </trkpt>
      <trkpt lat="44.9913" lon="4.66273">
        <ele>533</ele>
        <time>2018-10-24T10:34:07+02:00</time>
      </trkpt>
      <trkpt lat="44.99135" lon="4.66266">
        <ele>533</ele>
        <time>2018-10-24T10:34:17+02:00</time>
      </trkpt>
      <trkpt lat="44.99138" lon="4.66254">
        <ele>534</ele>
        <time>2018-10-24T10:34:25+02:00</time>
      </trkpt>
      <trkpt lat="44.99144" lon="4.66245">
        <ele>534</ele>
        <time>2018-10-24T10:34:33+02:00</time>
      </trkpt>
      <trkpt lat="44.99148" lon="4.66244">
        <ele>534</ele>
        <time>2018-10-24T10:34:35+02:00</time>
      </trkpt>
      <trkpt lat="44.9916" lon="4.66253">
        <ele>532</ele>
        <time>2018-10-24T10:34:44+02:00</time>
      </trkpt>
      <trkpt lat="44.99167" lon="4.66258">
        <ele>531</ele>
        <time>2018-10-24T10:34:52+02:00</time>
      </trkpt>
      <trkpt lat="44.99173" lon="4.66261">
        <ele>531</ele>
        <time>2018-10-24T10:35:00+02:00</time>
      </trkpt>
      <trkpt lat="44.9918" lon="4.66263">
        <ele>532</ele>
        <time>2018-10-24T10:35:08+02:00</time>
      </trkpt>
      <trkpt lat="44.99192" lon="4.66265">
        <ele>534</ele>
        <time>2018-10-24T10:35:17+02:00</time>
      </trkpt>
      <trkpt lat="44.99202" lon="4.66263">
        <ele>535</ele>
        <time>2018-10-24T10:35:25+02:00</time>
      </trkpt>
      <trkpt lat="44.9921" lon="4.6626">
        <ele>535</ele>
        <time>2018-10-24T10:35:33+02:00</time>
      </trkpt>
      <trkpt lat="44.99222" lon="4.6626">
        <ele>537</ele>
        <time>2018-10-24T10:35:42+02:00</time>
      </trkpt>
      <trkpt lat="44.99225" lon="4.66256">
        <ele>537</ele>
        <time>2018-10-24T10:35:49+02:00</time>
      </trkpt>
      <trkpt lat="44.99223" lon="4.66255">
        <ele>537</ele>
        <time>2018-10-24T10:35:57+02:00</time>
      </trkpt>
      <trkpt lat="44.9922" lon="4.66251">
        <ele>536</ele>
        <time>2018-10-24T10:36:05+02:00</time>
      </trkpt>
      <trkpt lat="44.99216" lon="4.66246">
        <ele>537</ele>
        <time>2018-10-24T10:36:13+02:00</time>
      </trkpt>
      <trkpt lat="44.99209" lon="4.6624">
        <ele>537</ele>
        <time>2018-10-24T10:36:20+02:00</time>
      </trkpt>
      <trkpt lat="44.99203" lon="4.66231">
        <ele>538</ele>
        <time>2018-10-24T10:36:29+02:00</time>
      </trkpt>
      <trkpt lat="44.99197" lon="4.66224">
        <ele>539</ele>
        <time>2018-10-24T10:36:40+02:00</time>
      </trkpt>
      <trkpt lat="44.99194" lon="4.66219">
        <ele>540</ele>
        <time>2018-10-24T10:36:45+02:00</time>
      </trkpt>
      <trkpt lat="44.99193" lon="4.66217">
        <ele>540</ele>
        <time>2018-10-24T10:36:46+02:00</time>
      </trkpt>
      <trkpt lat="44.9919" lon="4.66208">
        <ele>542</ele>
        <time>2018-10-24T10:36:55+02:00</time>
      </trkpt>
      <trkpt lat="44.99186" lon="4.662">
        <ele>543</ele>
        <time>2018-10-24T10:37:04+02:00</time>
      </trkpt>
      <trkpt lat="44.99183" lon="4.66194">
        <ele>544</ele>
        <time>2018-10-24T10:37:13+02:00</time>
      </trkpt>
      <trkpt lat="44.99181" lon="4.66187">
        <ele>546</ele>
        <time>2018-10-24T10:37:22+02:00</time>
      </trkpt>
      <trkpt lat="44.99178" lon="4.66177">
        <ele>547</ele>
        <time>2018-10-24T10:37:30+02:00</time>
      </trkpt>
      <trkpt lat="44.99168" lon="4.66164">
        <ele>550</ele>
        <time>2018-10-24T10:37:41+02:00</time>
      </trkpt>
      <trkpt lat="44.99165" lon="4.66154">
        <ele>551</ele>
        <time>2018-10-24T10:37:48+02:00</time>
      </trkpt>
      <trkpt lat="44.99164" lon="4.66154">
        <ele>551</ele>
        <time>2018-10-24T10:37:56+02:00</time>
      </trkpt>
      <trkpt lat="44.99158" lon="4.66158">
        <ele>550</ele>
        <time>2018-10-24T10:38:14+02:00</time>
      </trkpt>
      <trkpt lat="44.99157" lon="4.66159">
        <ele>550</ele>
        <time>2018-10-24T10:38:27+02:00</time>
      </trkpt>
      <trkpt lat="44.99157" lon="4.66158">
        <ele>550</ele>
        <time>2018-10-24T10:38:42+02:00</time>
      </trkpt>
      <trkpt lat="44.99158" lon="4.66159">
        <ele>550</ele>
        <time>2018-10-24T10:38:57+02:00</time>
      </trkpt>
      <trkpt lat="44.9916" lon="4.66158">
        <ele>550</ele>
        <time>2018-10-24T10:39:10+02:00</time>
      </trkpt>
      <trkpt lat="44.99159" lon="4.66159">
        <ele>550</ele>
        <time>2018-10-24T10:39:24+02:00</time>
      </trkpt>
      <trkpt lat="44.99157" lon="4.66159">
        <ele>550</ele>
        <time>2018-10-24T10:39:33+02:00</time>
      </trkpt>
      <trkpt lat="44.99157" lon="4.6616">
        <ele>550</ele>
        <time>2018-10-24T10:39:44+02:00</time>
      </trkpt>
      <trkpt lat="44.99157" lon="4.66159">
        <ele>550</ele>
        <time>2018-10-24T10:39:55+02:00</time>
      </trkpt>
      <trkpt lat="44.99158" lon="4.6616">
        <ele>550</ele>
        <time>2018-10-24T10:40:06+02:00</time>
      </trkpt>
      <trkpt lat="44.99159" lon="4.66161">
        <ele>550</ele>
        <time>2018-10-24T10:40:23+02:00</time>
      </trkpt>
      <trkpt lat="44.99159" lon="4.66164">
        <ele>549</ele>
        <time>2018-10-24T10:40:35+02:00</time>
      </trkpt>
      <trkpt lat="44.9916" lon="4.66166">
        <ele>549</ele>
        <time>2018-10-24T10:40:46+02:00</time>
      </trkpt>
      <trkpt lat="44.9916" lon="4.66159">
        <ele>550</ele>
        <time>2018-10-24T10:41:00+02:00</time>
      </trkpt>
      <trkpt lat="44.99161" lon="4.66157">
        <ele>551</ele>
        <time>2018-10-24T10:41:12+02:00</time>
      </trkpt>
      <trkpt lat="44.99163" lon="4.66154">
        <ele>551</ele>
        <time>2018-10-24T10:41:23+02:00</time>
      </trkpt>
      <trkpt lat="44.99164" lon="4.66149">
        <ele>552</ele>
        <time>2018-10-24T10:41:39+02:00</time>
      </trkpt>
      <trkpt lat="44.99166" lon="4.66151">
        <ele>552</ele>
        <time>2018-10-24T10:41:53+02:00</time>
      </trkpt>
      <trkpt lat="44.99169" lon="4.66148">
        <ele>552</ele>
        <time>2018-10-24T10:42:07+02:00</time>
      </trkpt>
      <trkpt lat="44.99169" lon="4.66146">
        <ele>553</ele>
        <time>2018-10-24T10:42:23+02:00</time>
      </trkpt>
      <trkpt lat="44.99169" lon="4.66144">
        <ele>553</ele>
        <time>2018-10-24T10:42:41+02:00</time>
      </trkpt>
      <trkpt lat="44.99163" lon="4.66142">
        <ele>553</ele>
        <time>2018-10-24T10:42:52+02:00</time>
      </trkpt>
      <trkpt lat="44.99165" lon="4.66152">
        <ele>552</ele>
        <time>2018-10-24T10:43:08+02:00</time>
      </trkpt>
      <trkpt lat="44.99169" lon="4.66155">
        <ele>551</ele>
        <time>2018-10-24T10:43:24+02:00</time>
      </trkpt>
      <trkpt lat="44.99168" lon="4.66157">
        <ele>551</ele>
        <time>2018-10-24T10:43:33+02:00</time>
      </trkpt>
      <trkpt lat="44.99167" lon="4.66157">
        <ele>551</ele>
        <time>2018-10-24T10:43:45+02:00</time>
      </trkpt>
      <trkpt lat="44.99164" lon="4.66161">
        <ele>550</ele>
        <time>2018-10-24T10:43:59+02:00</time>
      </trkpt>
      <trkpt lat="44.99165" lon="4.66161">
        <ele>550</ele>
        <time>2018-10-24T10:44:00+02:00</time>
      </trkpt>
      <trkpt lat="44.99174" lon="4.66164">
        <ele>550</ele>
        <time>2018-10-24T10:44:09+02:00</time>
      </trkpt>
      <trkpt lat="44.9918" lon="4.66171">
        <ele>549</ele>
        <time>2018-10-24T10:44:17+02:00</time>
      </trkpt>
      <trkpt lat="44.99186" lon="4.66176">
        <ele>548</ele>
        <time>2018-10-24T10:44:22+02:00</time>
      </trkpt>
      <trkpt lat="44.99192" lon="4.66183">
        <ele>547</ele>
        <time>2018-10-24T10:44:29+02:00</time>
      </trkpt>
      <trkpt lat="44.99199" lon="4.66189">
        <ele>546</ele>
        <time>2018-10-24T10:44:37+02:00</time>
      </trkpt>
      <trkpt lat="44.99209" lon="4.66189">
        <ele>547</ele>
        <time>2018-10-24T10:44:46+02:00</time>
      </trkpt>
      <trkpt lat="44.99219" lon="4.66187">
        <ele>548</ele>
        <time>2018-10-24T10:44:54+02:00</time>
      </trkpt>
      <trkpt lat="44.99224" lon="4.66186">
        <ele>549</ele>
        <time>2018-10-24T10:45:00+02:00</time>
      </trkpt>
      <trkpt lat="44.99232" lon="4.66186">
        <ele>549</ele>
        <time>2018-10-24T10:45:07+02:00</time>
      </trkpt>
      <trkpt lat="44.99242" lon="4.66183">
        <ele>550</ele>
        <time>2018-10-24T10:45:16+02:00</time>
      </trkpt>
      <trkpt lat="44.99245" lon="4.66182">
        <ele>551</ele>
        <time>2018-10-24T10:45:27+02:00</time>
      </trkpt>
      <trkpt lat="44.99258" lon="4.66176">
        <ele>553</ele>
        <time>2018-10-24T10:45:37+02:00</time>
      </trkpt>
      <trkpt lat="44.99266" lon="4.66167">
        <ele>555</ele>
        <time>2018-10-24T10:45:44+02:00</time>
      </trkpt>
      <trkpt lat="44.99268" lon="4.66158">
        <ele>557</ele>
        <time>2018-10-24T10:45:50+02:00</time>
      </trkpt>
      <trkpt lat="44.99272" lon="4.66144">
        <ele>559</ele>
        <time>2018-10-24T10:45:59+02:00</time>
      </trkpt>
      <trkpt lat="44.99276" lon="4.66134">
        <ele>560</ele>
        <time>2018-10-24T10:46:06+02:00</time>
      </trkpt>
      <trkpt lat="44.99281" lon="4.66126">
        <ele>561</ele>
        <time>2018-10-24T10:46:12+02:00</time>
      </trkpt>
      <trkpt lat="44.99282" lon="4.66121">
        <ele>562</ele>
        <time>2018-10-24T10:46:15+02:00</time>
      </trkpt>
      <trkpt lat="44.99289" lon="4.66108">
        <ele>563</ele>
        <time>2018-10-24T10:46:24+02:00</time>
      </trkpt>
      <trkpt lat="44.99295" lon="4.66098">
        <ele>564</ele>
        <time>2018-10-24T10:46:32+02:00</time>
      </trkpt>
      <trkpt lat="44.99302" lon="4.66092">
        <ele>564</ele>
        <time>2018-10-24T10:46:39+02:00</time>
      </trkpt>
      <trkpt lat="44.99309" lon="4.66087">
        <ele>564</ele>
        <time>2018-10-24T10:46:44+02:00</time>
      </trkpt>
      <trkpt lat="44.99318" lon="4.66081">
        <ele>564</ele>
        <time>2018-10-24T10:46:52+02:00</time>
      </trkpt>
      <trkpt lat="44.99325" lon="4.66081">
        <ele>564</ele>
        <time>2018-10-24T10:46:59+02:00</time>
      </trkpt>
      <trkpt lat="44.99328" lon="4.66079">
        <ele>564</ele>
        <time>2018-10-24T10:47:03+02:00</time>
      </trkpt>
      <trkpt lat="44.99337" lon="4.66077">
        <ele>565</ele>
        <time>2018-10-24T10:47:11+02:00</time>
      </trkpt>
      <trkpt lat="44.99343" lon="4.66077">
        <ele>566</ele>
        <time>2018-10-24T10:47:17+02:00</time>
      </trkpt>
      <trkpt lat="44.99345" lon="4.66075">
        <ele>566</ele>
        <time>2018-10-24T10:47:19+02:00</time>
      </trkpt>
      <trkpt lat="44.99354" lon="4.6607">
        <ele>569</ele>
        <time>2018-10-24T10:47:27+02:00</time>
      </trkpt>
      <trkpt lat="44.9936" lon="4.66064">
        <ele>570</ele>
        <time>2018-10-24T10:47:33+02:00</time>
      </trkpt>
      <trkpt lat="44.99363" lon="4.66061">
        <ele>571</ele>
        <time>2018-10-24T10:47:38+02:00</time>
      </trkpt>
      <trkpt lat="44.99365" lon="4.6606">
        <ele>572</ele>
        <time>2018-10-24T10:47:48+02:00</time>
      </trkpt>
      <trkpt lat="44.99363" lon="4.66063">
        <ele>571</ele>
        <time>2018-10-24T10:48:00+02:00</time>
      </trkpt>
      <trkpt lat="44.9936" lon="4.66062">
        <ele>571</ele>
        <time>2018-10-24T10:48:09+02:00</time>
      </trkpt>
      <trkpt lat="44.99355" lon="4.66068">
        <ele>569</ele>
        <time>2018-10-24T10:48:17+02:00</time>
      </trkpt>
      <trkpt lat="44.99351" lon="4.66077">
        <ele>567</ele>
        <time>2018-10-24T10:48:25+02:00</time>
      </trkpt>
      <trkpt lat="44.99349" lon="4.66083">
        <ele>566</ele>
        <time>2018-10-24T10:48:33+02:00</time>
      </trkpt>
      <trkpt lat="44.99344" lon="4.66095">
        <ele>565</ele>
        <time>2018-10-24T10:48:41+02:00</time>
      </trkpt>
      <trkpt lat="44.99341" lon="4.66106">
        <ele>564</ele>
        <time>2018-10-24T10:48:49+02:00</time>
      </trkpt>
      <trkpt lat="44.9934" lon="4.66107">
        <ele>564</ele>
        <time>2018-10-24T10:48:50+02:00</time>
      </trkpt>
      <trkpt lat="44.99332" lon="4.66122">
        <ele>562</ele>
        <time>2018-10-24T10:49:00+02:00</time>
      </trkpt>
      <trkpt lat="44.9933" lon="4.66136">
        <ele>561</ele>
        <time>2018-10-24T10:49:08+02:00</time>
      </trkpt>
      <trkpt lat="44.99328" lon="4.66148">
        <ele>560</ele>
        <time>2018-10-24T10:49:15+02:00</time>
      </trkpt>
      <trkpt lat="44.99325" lon="4.66157">
        <ele>560</ele>
        <time>2018-10-24T10:49:21+02:00</time>
      </trkpt>
      <trkpt lat="44.99322" lon="4.6617">
        <ele>559</ele>
        <time>2018-10-24T10:49:31+02:00</time>
      </trkpt>
      <trkpt lat="44.99318" lon="4.66181">
        <ele>559</ele>
        <time>2018-10-24T10:49:36+02:00</time>
      </trkpt>
      <trkpt lat="44.99319" lon="4.66199">
        <ele>558</ele>
        <time>2018-10-24T10:49:44+02:00</time>
      </trkpt>
      <trkpt lat="44.99318" lon="4.66215">
        <ele>558</ele>
        <time>2018-10-24T10:49:53+02:00</time>
      </trkpt>
      <trkpt lat="44.99315" lon="4.66229">
        <ele>557</ele>
        <time>2018-10-24T10:50:00+02:00</time>
      </trkpt>
      <trkpt lat="44.99317" lon="4.66235">
        <ele>557</ele>
        <time>2018-10-24T10:50:04+02:00</time>
      </trkpt>
      <trkpt lat="44.99315" lon="4.66247">
        <ele>556</ele>
        <time>2018-10-24T10:50:11+02:00</time>
      </trkpt>
      <trkpt lat="44.99315" lon="4.66254">
        <ele>556</ele>
        <time>2018-10-24T10:50:15+02:00</time>
      </trkpt>
      <trkpt lat="44.99316" lon="4.66266">
        <ele>557</ele>
        <time>2018-10-24T10:50:23+02:00</time>
      </trkpt>
      <trkpt lat="44.99315" lon="4.66282">
        <ele>558</ele>
        <time>2018-10-24T10:50:32+02:00</time>
      </trkpt>
      <trkpt lat="44.99312" lon="4.66294">
        <ele>558</ele>
        <time>2018-10-24T10:50:39+02:00</time>
      </trkpt>
      <trkpt lat="44.99309" lon="4.66301">
        <ele>557</ele>
        <time>2018-10-24T10:50:44+02:00</time>
      </trkpt>
      <trkpt lat="44.99304" lon="4.66311">
        <ele>557</ele>
        <time>2018-10-24T10:50:52+02:00</time>
      </trkpt>
      <trkpt lat="44.99303" lon="4.66313">
        <ele>557</ele>
        <time>2018-10-24T10:50:53+02:00</time>
      </trkpt>
      <trkpt lat="44.99301" lon="4.66318">
        <ele>556</ele>
        <time>2018-10-24T10:50:57+02:00</time>
      </trkpt>
      <trkpt lat="44.99299" lon="4.66319">
        <ele>556</ele>
        <time>2018-10-24T10:50:59+02:00</time>
      </trkpt>
      <trkpt lat="44.99296" lon="4.66329">
        <ele>556</ele>
        <time>2018-10-24T10:51:06+02:00</time>
      </trkpt>
      <trkpt lat="44.99298" lon="4.66335">
        <ele>557</ele>
        <time>2018-10-24T10:51:12+02:00</time>
      </trkpt>
      <trkpt lat="44.993" lon="4.66335">
        <ele>557</ele>
        <time>2018-10-24T10:51:24+02:00</time>
      </trkpt>
      <trkpt lat="44.99306" lon="4.66334">
        <ele>558</ele>
        <time>2018-10-24T10:51:29+02:00</time>
      </trkpt>
      <trkpt lat="44.99308" lon="4.66334">
        <ele>559</ele>
        <time>2018-10-24T10:51:31+02:00</time>
      </trkpt>
      <trkpt lat="44.99315" lon="4.66331">
        <ele>560</ele>
        <time>2018-10-24T10:51:38+02:00</time>
      </trkpt>
      <trkpt lat="44.99323" lon="4.66328">
        <ele>562</ele>
        <time>2018-10-24T10:51:46+02:00</time>
      </trkpt>
      <trkpt lat="44.99327" lon="4.66325">
        <ele>563</ele>
        <time>2018-10-24T10:51:50+02:00</time>
      </trkpt>
      <trkpt lat="44.99333" lon="4.66319">
        <ele>564</ele>
        <time>2018-10-24T10:51:58+02:00</time>
      </trkpt>
      <trkpt lat="44.99338" lon="4.66316">
        <ele>565</ele>
        <time>2018-10-24T10:52:03+02:00</time>
      </trkpt>
      <trkpt lat="44.99342" lon="4.66306">
        <ele>566</ele>
        <time>2018-10-24T10:52:11+02:00</time>
      </trkpt>
      <trkpt lat="44.99339" lon="4.66309">
        <ele>565</ele>
        <time>2018-10-24T10:52:19+02:00</time>
      </trkpt>
      <trkpt lat="44.99339" lon="4.66307">
        <ele>565</ele>
        <time>2018-10-24T10:52:31+02:00</time>
      </trkpt>
      <trkpt lat="44.99344" lon="4.66297">
        <ele>566</ele>
        <time>2018-10-24T10:52:40+02:00</time>
      </trkpt>
      <trkpt lat="44.99346" lon="4.66288">
        <ele>566</ele>
        <time>2018-10-24T10:52:45+02:00</time>
      </trkpt>
      <trkpt lat="44.99348" lon="4.66276">
        <ele>567</ele>
        <time>2018-10-24T10:52:53+02:00</time>
      </trkpt>
      <trkpt lat="44.9935" lon="4.66269">
        <ele>567</ele>
        <time>2018-10-24T10:52:57+02:00</time>
      </trkpt>
      <trkpt lat="44.99353" lon="4.66253">
        <ele>567</ele>
        <time>2018-10-24T10:53:06+02:00</time>
      </trkpt>
      <trkpt lat="44.99357" lon="4.66239">
        <ele>569</ele>
        <time>2018-10-24T10:53:14+02:00</time>
      </trkpt>
      <trkpt lat="44.99359" lon="4.66234">
        <ele>569</ele>
        <time>2018-10-24T10:53:17+02:00</time>
      </trkpt>
      <trkpt lat="44.9936" lon="4.66229">
        <ele>569</ele>
        <time>2018-10-24T10:53:20+02:00</time>
      </trkpt>
      <trkpt lat="44.99361" lon="4.66226">
        <ele>570</ele>
        <time>2018-10-24T10:53:22+02:00</time>
      </trkpt>
      <trkpt lat="44.99361" lon="4.66224">
        <ele>570</ele>
        <time>2018-10-24T10:53:23+02:00</time>
      </trkpt>
      <trkpt lat="44.99361" lon="4.66223">
        <ele>570</ele>
        <time>2018-10-24T10:53:24+02:00</time>
      </trkpt>
      <trkpt lat="44.99361" lon="4.66222">
        <ele>570</ele>
        <time>2018-10-24T10:53:25+02:00</time>
      </trkpt>
      <trkpt lat="44.99366" lon="4.66207">
        <ele>571</ele>
        <time>2018-10-24T10:53:35+02:00</time>
      </trkpt>
      <trkpt lat="44.9937" lon="4.66195">
        <ele>572</ele>
        <time>2018-10-24T10:53:43+02:00</time>
      </trkpt>
      <trkpt lat="44.99371" lon="4.66192">
        <ele>573</ele>
        <time>2018-10-24T10:53:45+02:00</time>
      </trkpt>
      <trkpt lat="44.99377" lon="4.66182">
        <ele>575</ele>
        <time>2018-10-24T10:53:53+02:00</time>
      </trkpt>
      <trkpt lat="44.99383" lon="4.66176">
        <ele>577</ele>
        <time>2018-10-24T10:53:58+02:00</time>
      </trkpt>
      <trkpt lat="44.99388" lon="4.66167">
        <ele>578</ele>
        <time>2018-10-24T10:54:06+02:00</time>
      </trkpt>
      <trkpt lat="44.9939" lon="4.6616">
        <ele>579</ele>
        <time>2018-10-24T10:54:15+02:00</time>
      </trkpt>
      <trkpt lat="44.99393" lon="4.66155">
        <ele>579</ele>
        <time>2018-10-24T10:54:20+02:00</time>
      </trkpt>
      <trkpt lat="44.99395" lon="4.6615">
        <ele>579</ele>
        <time>2018-10-24T10:54:24+02:00</time>
      </trkpt>
      <trkpt lat="44.994" lon="4.66139">
        <ele>580</ele>
        <time>2018-10-24T10:54:32+02:00</time>
      </trkpt>
      <trkpt lat="44.99404" lon="4.66133">
        <ele>581</ele>
        <time>2018-10-24T10:54:37+02:00</time>
      </trkpt>
      <trkpt lat="44.99411" lon="4.66124">
        <ele>582</ele>
        <time>2018-10-24T10:54:46+02:00</time>
      </trkpt>
      <trkpt lat="44.99412" lon="4.66123">
        <ele>582</ele>
        <time>2018-10-24T10:54:47+02:00</time>
      </trkpt>
      <trkpt lat="44.99419" lon="4.6612">
        <ele>583</ele>
        <time>2018-10-24T10:54:54+02:00</time>
      </trkpt>
      <trkpt lat="44.99423" lon="4.66119">
        <ele>584</ele>
        <time>2018-10-24T10:54:58+02:00</time>
      </trkpt>
      <trkpt lat="44.99432" lon="4.66117">
        <ele>586</ele>
        <time>2018-10-24T10:55:06+02:00</time>
      </trkpt>
      <trkpt lat="44.99437" lon="4.66116">
        <ele>586</ele>
        <time>2018-10-24T10:55:12+02:00</time>
      </trkpt>
      <trkpt lat="44.99443" lon="4.66115">
        <ele>588</ele>
        <time>2018-10-24T10:55:20+02:00</time>
      </trkpt>
      <trkpt lat="44.99451" lon="4.66113">
        <ele>589</ele>
        <time>2018-10-24T10:55:27+02:00</time>
      </trkpt>
      <trkpt lat="44.99456" lon="4.66112">
        <ele>590</ele>
        <time>2018-10-24T10:55:31+02:00</time>
      </trkpt>
      <trkpt lat="44.99464" lon="4.66111">
        <ele>591</ele>
        <time>2018-10-24T10:55:38+02:00</time>
      </trkpt>
      <trkpt lat="44.99473" lon="4.66108">
        <ele>593</ele>
        <time>2018-10-24T10:55:45+02:00</time>
      </trkpt>
      <trkpt lat="44.99482" lon="4.66107">
        <ele>594</ele>
        <time>2018-10-24T10:55:53+02:00</time>
      </trkpt>
      <trkpt lat="44.9949" lon="4.66106">
        <ele>596</ele>
        <time>2018-10-24T10:56:01+02:00</time>
      </trkpt>
      <trkpt lat="44.99497" lon="4.66107">
        <ele>597</ele>
        <time>2018-10-24T10:56:08+02:00</time>
      </trkpt>
      <trkpt lat="44.99501" lon="4.66106">
        <ele>598</ele>
        <time>2018-10-24T10:56:12+02:00</time>
      </trkpt>
      <trkpt lat="44.99505" lon="4.6611">
        <ele>599</ele>
        <time>2018-10-24T10:56:18+02:00</time>
      </trkpt>
      <trkpt lat="44.99501" lon="4.66126">
        <ele>601</ele>
        <time>2018-10-24T10:56:28+02:00</time>
      </trkpt>
      <trkpt lat="44.99497" lon="4.66131">
        <ele>601</ele>
        <time>2018-10-24T10:56:33+02:00</time>
      </trkpt>
      <trkpt lat="44.99493" lon="4.66136">
        <ele>601</ele>
        <time>2018-10-24T10:56:37+02:00</time>
      </trkpt>
      <trkpt lat="44.9949" lon="4.66141">
        <ele>601</ele>
        <time>2018-10-24T10:56:41+02:00</time>
      </trkpt>
      <trkpt lat="44.99483" lon="4.66152">
        <ele>601</ele>
        <time>2018-10-24T10:56:50+02:00</time>
      </trkpt>
      <trkpt lat="44.99482" lon="4.66157">
        <ele>601</ele>
        <time>2018-10-24T10:56:53+02:00</time>
      </trkpt>
      <trkpt lat="44.99481" lon="4.66165">
        <ele>602</ele>
        <time>2018-10-24T10:56:58+02:00</time>
      </trkpt>
      <trkpt lat="44.99483" lon="4.66183">
        <ele>603</ele>
        <time>2018-10-24T10:57:08+02:00</time>
      </trkpt>
      <trkpt lat="44.99484" lon="4.66188">
        <ele>603</ele>
        <time>2018-10-24T10:57:11+02:00</time>
      </trkpt>
      <trkpt lat="44.99485" lon="4.66191">
        <ele>603</ele>
        <time>2018-10-24T10:57:13+02:00</time>
      </trkpt>
      <trkpt lat="44.99493" lon="4.66202">
        <ele>605</ele>
        <time>2018-10-24T10:57:22+02:00</time>
      </trkpt>
      <trkpt lat="44.99499" lon="4.66209">
        <ele>606</ele>
        <time>2018-10-24T10:57:28+02:00</time>
      </trkpt>
      <trkpt lat="44.99503" lon="4.66212">
        <ele>606</ele>
        <time>2018-10-24T10:57:36+02:00</time>
      </trkpt>
      <trkpt lat="44.99505" lon="4.66212">
        <ele>607</ele>
        <time>2018-10-24T10:57:49+02:00</time>
      </trkpt>
      <trkpt lat="44.99509" lon="4.66216">
        <ele>607</ele>
        <time>2018-10-24T10:57:56+02:00</time>
      </trkpt>
      <trkpt lat="44.9951" lon="4.66217">
        <ele>607</ele>
        <time>2018-10-24T10:58:06+02:00</time>
      </trkpt>
      <trkpt lat="44.9951" lon="4.66217">
        <ele>607</ele>
        <time>2018-10-24T10:58:07+02:00</time>
      </trkpt>
      <trkpt lat="44.9951" lon="4.66217">
        <ele>607</ele>
        <time>2018-10-24T10:58:08+02:00</time>
      </trkpt>
      <trkpt lat="44.9951" lon="4.66217">
        <ele>607</ele>
        <time>2018-10-24T10:58:10+02:00</time>
      </trkpt>
      <trkpt lat="44.99509" lon="4.66217">
        <ele>607</ele>
        <time>2018-10-24T10:58:21+02:00</time>
      </trkpt>
      <trkpt lat="44.99509" lon="4.66217">
        <ele>607</ele>
        <time>2018-10-24T10:58:22+02:00</time>
      </trkpt>
      <trkpt lat="44.99509" lon="4.66217">
        <ele>607</ele>
        <time>2018-10-24T10:58:23+02:00</time>
      </trkpt>
      <trkpt lat="44.99509" lon="4.66218">
        <ele>607</ele>
        <time>2018-10-24T10:58:40+02:00</time>
      </trkpt>
      <trkpt lat="44.99512" lon="4.66222">
        <ele>607</ele>
        <time>2018-10-24T10:58:52+02:00</time>
      </trkpt>
      <trkpt lat="44.99517" lon="4.66231">
        <ele>608</ele>
        <time>2018-10-24T10:58:59+02:00</time>
      </trkpt>
      <trkpt lat="44.99523" lon="4.66237">
        <ele>609</ele>
        <time>2018-10-24T10:59:05+02:00</time>
      </trkpt>
      <trkpt lat="44.99534" lon="4.66243">
        <ele>610</ele>
        <time>2018-10-24T10:59:14+02:00</time>
      </trkpt>
      <trkpt lat="44.99538" lon="4.66247">
        <ele>611</ele>
        <time>2018-10-24T10:59:18+02:00</time>
      </trkpt>
      <trkpt lat="44.9955" lon="4.66252">
        <ele>613</ele>
        <time>2018-10-24T10:59:28+02:00</time>
      </trkpt>
      <trkpt lat="44.99556" lon="4.66256">
        <ele>613</ele>
        <time>2018-10-24T10:59:32+02:00</time>
      </trkpt>
      <trkpt lat="44.99569" lon="4.66266">
        <ele>615</ele>
        <time>2018-10-24T10:59:43+02:00</time>
      </trkpt>
      <trkpt lat="44.99574" lon="4.6627">
        <ele>615</ele>
        <time>2018-10-24T10:59:47+02:00</time>
      </trkpt>
      <trkpt lat="44.99584" lon="4.66281">
        <ele>616</ele>
        <time>2018-10-24T10:59:56+02:00</time>
      </trkpt>
      <trkpt lat="44.99585" lon="4.66282">
        <ele>616</ele>
        <time>2018-10-24T10:59:57+02:00</time>
      </trkpt>
      <trkpt lat="44.99588" lon="4.66287">
        <ele>616</ele>
        <time>2018-10-24T11:00:05+02:00</time>
      </trkpt>
      <trkpt lat="44.9959" lon="4.66288">
        <ele>616</ele>
        <time>2018-10-24T11:00:14+02:00</time>
      </trkpt>
      <trkpt lat="44.99598" lon="4.66295">
        <ele>617</ele>
        <time>2018-10-24T11:00:22+02:00</time>
      </trkpt>
      <trkpt lat="44.99609" lon="4.66305">
        <ele>618</ele>
        <time>2018-10-24T11:00:31+02:00</time>
      </trkpt>
      <trkpt lat="44.99615" lon="4.66309">
        <ele>619</ele>
        <time>2018-10-24T11:00:37+02:00</time>
      </trkpt>
      <trkpt lat="44.99616" lon="4.66309">
        <ele>619</ele>
        <time>2018-10-24T11:00:38+02:00</time>
      </trkpt>
      <trkpt lat="44.99627" lon="4.66317">
        <ele>620</ele>
        <time>2018-10-24T11:00:47+02:00</time>
      </trkpt>
      <trkpt lat="44.99634" lon="4.66321">
        <ele>621</ele>
        <time>2018-10-24T11:00:54+02:00</time>
      </trkpt>
      <trkpt lat="44.99637" lon="4.66324">
        <ele>621</ele>
        <time>2018-10-24T11:00:57+02:00</time>
      </trkpt>
      <trkpt lat="44.99645" lon="4.66334">
        <ele>621</ele>
        <time>2018-10-24T11:01:05+02:00</time>
      </trkpt>
      <trkpt lat="44.99655" lon="4.66343">
        <ele>621</ele>
        <time>2018-10-24T11:01:15+02:00</time>
      </trkpt>
      <trkpt lat="44.99664" lon="4.66349">
        <ele>621</ele>
        <time>2018-10-24T11:01:24+02:00</time>
      </trkpt>
      <trkpt lat="44.99669" lon="4.66352">
        <ele>621</ele>
        <time>2018-10-24T11:01:28+02:00</time>
      </trkpt>
      <trkpt lat="44.99673" lon="4.66353">
        <ele>622</ele>
        <time>2018-10-24T11:01:31+02:00</time>
      </trkpt>
      <trkpt lat="44.99684" lon="4.66357">
        <ele>622</ele>
        <time>2018-10-24T11:01:40+02:00</time>
      </trkpt>
      <trkpt lat="44.99693" lon="4.66361">
        <ele>622</ele>
        <time>2018-10-24T11:01:47+02:00</time>
      </trkpt>
      <trkpt lat="44.99701" lon="4.66365">
        <ele>622</ele>
        <time>2018-10-24T11:01:54+02:00</time>
      </trkpt>
      <trkpt lat="44.99711" lon="4.66368">
        <ele>622</ele>
        <time>2018-10-24T11:02:02+02:00</time>
      </trkpt>
      <trkpt lat="44.99721" lon="4.6637">
        <ele>623</ele>
        <time>2018-10-24T11:02:10+02:00</time>
      </trkpt>
      <trkpt lat="44.99731" lon="4.66371">
        <ele>624</ele>
        <time>2018-10-24T11:02:18+02:00</time>
      </trkpt>
      <trkpt lat="44.99741" lon="4.6637">
        <ele>625</ele>
        <time>2018-10-24T11:02:27+02:00</time>
      </trkpt>
      <trkpt lat="44.99752" lon="4.66371">
        <ele>626</ele>
        <time>2018-10-24T11:02:35+02:00</time>
      </trkpt>
      <trkpt lat="44.99762" lon="4.6637">
        <ele>626</ele>
        <time>2018-10-24T11:02:42+02:00</time>
      </trkpt>
      <trkpt lat="44.99771" lon="4.66371">
        <ele>627</ele>
        <time>2018-10-24T11:02:49+02:00</time>
      </trkpt>
      <trkpt lat="44.99778" lon="4.66369">
        <ele>627</ele>
        <time>2018-10-24T11:02:54+02:00</time>
      </trkpt>
      <trkpt lat="44.9978" lon="4.66369">
        <ele>627</ele>
        <time>2018-10-24T11:02:56+02:00</time>
      </trkpt>
      <trkpt lat="44.9979" lon="4.66366">
        <ele>628</ele>
        <time>2018-10-24T11:03:04+02:00</time>
      </trkpt>
      <trkpt lat="44.99792" lon="4.66365">
        <ele>629</ele>
        <time>2018-10-24T11:03:05+02:00</time>
      </trkpt>
      <trkpt lat="44.99802" lon="4.66364">
        <ele>629</ele>
        <time>2018-10-24T11:03:12+02:00</time>
      </trkpt>
      <trkpt lat="44.99809" lon="4.66365">
        <ele>629</ele>
        <time>2018-10-24T11:03:17+02:00</time>
      </trkpt>
      <trkpt lat="44.99822" lon="4.66367">
        <ele>629</ele>
        <time>2018-10-24T11:03:27+02:00</time>
      </trkpt>
      <trkpt lat="44.99834" lon="4.66371">
        <ele>629</ele>
        <time>2018-10-24T11:03:36+02:00</time>
      </trkpt>
      <trkpt lat="44.99838" lon="4.66372">
        <ele>630</ele>
        <time>2018-10-24T11:03:42+02:00</time>
      </trkpt>
      <trkpt lat="44.99848" lon="4.66374">
        <ele>631</ele>
        <time>2018-10-24T11:03:51+02:00</time>
      </trkpt>
      <trkpt lat="44.99857" lon="4.66377">
        <ele>631</ele>
        <time>2018-10-24T11:03:59+02:00</time>
      </trkpt>
      <trkpt lat="44.99859" lon="4.66377">
        <ele>632</ele>
        <time>2018-10-24T11:04:01+02:00</time>
      </trkpt>
      <trkpt lat="44.99867" lon="4.66378">
        <ele>632</ele>
        <time>2018-10-24T11:04:07+02:00</time>
      </trkpt>
      <trkpt lat="44.99872" lon="4.66377">
        <ele>633</ele>
        <time>2018-10-24T11:04:12+02:00</time>
      </trkpt>
      <trkpt lat="44.99882" lon="4.66378">
        <ele>634</ele>
        <time>2018-10-24T11:04:20+02:00</time>
      </trkpt>
      <trkpt lat="44.99884" lon="4.66378">
        <ele>635</ele>
        <time>2018-10-24T11:04:22+02:00</time>
      </trkpt>
      <trkpt lat="44.99893" lon="4.66377">
        <ele>636</ele>
        <time>2018-10-24T11:04:30+02:00</time>
      </trkpt>
      <trkpt lat="44.99896" lon="4.66376">
        <ele>636</ele>
        <time>2018-10-24T11:04:32+02:00</time>
      </trkpt>
      <trkpt lat="44.99899" lon="4.66375">
        <ele>637</ele>
        <time>2018-10-24T11:04:35+02:00</time>
      </trkpt>
      <trkpt lat="44.99899" lon="4.66376">
        <ele>637</ele>
        <time>2018-10-24T11:04:38+02:00</time>
      </trkpt>
      <trkpt lat="44.99904" lon="4.66377">
        <ele>637</ele>
        <time>2018-10-24T11:04:46+02:00</time>
      </trkpt>
      <trkpt lat="44.99904" lon="4.66377">
        <ele>638</ele>
        <time>2018-10-24T11:04:47+02:00</time>
      </trkpt>
      <trkpt lat="44.99913" lon="4.66375">
        <ele>639</ele>
        <time>2018-10-24T11:04:54+02:00</time>
      </trkpt>
      <trkpt lat="44.99921" lon="4.66372">
        <ele>640</ele>
        <time>2018-10-24T11:05:01+02:00</time>
      </trkpt>
      <trkpt lat="44.99925" lon="4.66371">
        <ele>641</ele>
        <time>2018-10-24T11:05:05+02:00</time>
      </trkpt>
      <trkpt lat="44.99932" lon="4.6637">
        <ele>642</ele>
        <time>2018-10-24T11:05:13+02:00</time>
      </trkpt>
      <trkpt lat="44.99934" lon="4.66367">
        <ele>642</ele>
        <time>2018-10-24T11:05:19+02:00</time>
      </trkpt>
      <trkpt lat="44.99937" lon="4.66362">
        <ele>643</ele>
        <time>2018-10-24T11:05:22+02:00</time>
      </trkpt>
      <trkpt lat="44.99938" lon="4.66355">
        <ele>645</ele>
        <time>2018-10-24T11:05:26+02:00</time>
      </trkpt>
      <trkpt lat="44.99937" lon="4.66343">
        <ele>647</ele>
        <time>2018-10-24T11:05:36+02:00</time>
      </trkpt>
      <trkpt lat="44.99936" lon="4.66341">
        <ele>647</ele>
        <time>2018-10-24T11:05:43+02:00</time>
      </trkpt>
      <trkpt lat="44.99936" lon="4.66341">
        <ele>647</ele>
        <time>2018-10-24T11:05:49+02:00</time>
      </trkpt>
      <trkpt lat="44.99943" lon="4.66339">
        <ele>648</ele>
        <time>2018-10-24T11:05:55+02:00</time>
      </trkpt>
      <trkpt lat="44.99949" lon="4.66335">
        <ele>649</ele>
        <time>2018-10-24T11:06:01+02:00</time>
      </trkpt>
      <trkpt lat="44.99957" lon="4.66328">
        <ele>652</ele>
        <time>2018-10-24T11:06:10+02:00</time>
      </trkpt>
      <trkpt lat="44.99963" lon="4.66322">
        <ele>653</ele>
        <time>2018-10-24T11:06:16+02:00</time>
      </trkpt>
      <trkpt lat="44.9997" lon="4.66321">
        <ele>654</ele>
        <time>2018-10-24T11:06:22+02:00</time>
      </trkpt>
      <trkpt lat="44.99978" lon="4.66318">
        <ele>656</ele>
        <time>2018-10-24T11:06:29+02:00</time>
      </trkpt>
      <trkpt lat="44.99977" lon="4.66317">
        <ele>656</ele>
        <time>2018-10-24T11:06:36+02:00</time>
      </trkpt>
      <trkpt lat="44.99979" lon="4.66316">
        <ele>656</ele>
        <time>2018-10-24T11:06:38+02:00</time>
      </trkpt>
      <trkpt lat="44.99982" lon="4.66317">
        <ele>656</ele>
        <time>2018-10-24T11:06:40+02:00</time>
      </trkpt>
      <trkpt lat="44.99987" lon="4.66318">
        <ele>657</ele>
        <time>2018-10-24T11:06:45+02:00</time>
      </trkpt>
      <trkpt lat="44.99995" lon="4.66314">
        <ele>658</ele>
        <time>2018-10-24T11:06:53+02:00</time>
      </trkpt>
      <trkpt lat="45.00004" lon="4.66315">
        <ele>659</ele>
        <time>2018-10-24T11:07:01+02:00</time>
      </trkpt>
      <trkpt lat="45.00013" lon="4.66317">
        <ele>660</ele>
        <time>2018-10-24T11:07:09+02:00</time>
      </trkpt>
      <trkpt lat="45.00019" lon="4.66319">
        <ele>660</ele>
        <time>2018-10-24T11:07:15+02:00</time>
      </trkpt>
      <trkpt lat="45.00024" lon="4.66321">
        <ele>660</ele>
        <time>2018-10-24T11:07:19+02:00</time>
      </trkpt>
      <trkpt lat="45.00027" lon="4.66323">
        <ele>660</ele>
        <time>2018-10-24T11:07:21+02:00</time>
      </trkpt>
      <trkpt lat="45.00037" lon="4.66323">
        <ele>661</ele>
        <time>2018-10-24T11:07:29+02:00</time>
      </trkpt>
      <trkpt lat="45.00039" lon="4.66322">
        <ele>661</ele>
        <time>2018-10-24T11:07:31+02:00</time>
      </trkpt>
      <trkpt lat="45.00043" lon="4.66314">
        <ele>664</ele>
        <time>2018-10-24T11:07:38+02:00</time>
      </trkpt>
      <trkpt lat="45.0004" lon="4.66307">
        <ele>666</ele>
        <time>2018-10-24T11:07:43+02:00</time>
      </trkpt>
      <trkpt lat="45.00035" lon="4.66299">
        <ele>667</ele>
        <time>2018-10-24T11:07:50+02:00</time>
      </trkpt>
      <trkpt lat="45.0003" lon="4.66289">
        <ele>669</ele>
        <time>2018-10-24T11:07:58+02:00</time>
      </trkpt>
      <trkpt lat="45.00023" lon="4.66285">
        <ele>669</ele>
        <time>2018-10-24T11:08:04+02:00</time>
      </trkpt>
      <trkpt lat="45.00015" lon="4.6628">
        <ele>669</ele>
        <time>2018-10-24T11:08:11+02:00</time>
      </trkpt>
      <trkpt lat="45.00002" lon="4.66277">
        <ele>668</ele>
        <time>2018-10-24T11:08:21+02:00</time>
      </trkpt>
      <trkpt lat="44.99993" lon="4.66276">
        <ele>667</ele>
        <time>2018-10-24T11:08:28+02:00</time>
      </trkpt>
      <trkpt lat="44.99984" lon="4.66274">
        <ele>666</ele>
        <time>2018-10-24T11:08:36+02:00</time>
      </trkpt>
      <trkpt lat="44.99973" lon="4.66273">
        <ele>666</ele>
        <time>2018-10-24T11:08:45+02:00</time>
      </trkpt>
      <trkpt lat="44.99964" lon="4.66268">
        <ele>666</ele>
        <time>2018-10-24T11:08:53+02:00</time>
      </trkpt>
      <trkpt lat="44.99962" lon="4.6627">
        <ele>665</ele>
        <time>2018-10-24T11:09:00+02:00</time>
      </trkpt>
      <trkpt lat="44.99954" lon="4.66265">
        <ele>665</ele>
        <time>2018-10-24T11:09:07+02:00</time>
      </trkpt>
      <trkpt lat="44.99946" lon="4.66258">
        <ele>666</ele>
        <time>2018-10-24T11:09:14+02:00</time>
      </trkpt>
      <trkpt lat="44.99937" lon="4.66251">
        <ele>666</ele>
        <time>2018-10-24T11:09:22+02:00</time>
      </trkpt>
      <trkpt lat="44.99932" lon="4.66243">
        <ele>667</ele>
        <time>2018-10-24T11:09:30+02:00</time>
      </trkpt>
      <trkpt lat="44.99928" lon="4.66234">
        <ele>669</ele>
        <time>2018-10-24T11:09:37+02:00</time>
      </trkpt>
      <trkpt lat="44.99925" lon="4.66226">
        <ele>671</ele>
        <time>2018-10-24T11:09:42+02:00</time>
      </trkpt>
      <trkpt lat="44.99924" lon="4.66223">
        <ele>671</ele>
        <time>2018-10-24T11:09:44+02:00</time>
      </trkpt>
      <trkpt lat="44.99923" lon="4.66215">
        <ele>673</ele>
        <time>2018-10-24T11:09:50+02:00</time>
      </trkpt>
      <trkpt lat="44.99919" lon="4.66203">
        <ele>675</ele>
        <time>2018-10-24T11:09:58+02:00</time>
      </trkpt>
      <trkpt lat="44.99915" lon="4.66191">
        <ele>677</ele>
        <time>2018-10-24T11:10:06+02:00</time>
      </trkpt>
      <trkpt lat="44.9991" lon="4.66182">
        <ele>678</ele>
        <time>2018-10-24T11:10:13+02:00</time>
      </trkpt>
      <trkpt lat="44.99909" lon="4.6618">
        <ele>678</ele>
        <time>2018-10-24T11:10:14+02:00</time>
      </trkpt>
      <trkpt lat="44.99904" lon="4.66174">
        <ele>678</ele>
        <time>2018-10-24T11:10:20+02:00</time>
      </trkpt>
      <trkpt lat="44.99902" lon="4.66172">
        <ele>678</ele>
        <time>2018-10-24T11:10:22+02:00</time>
      </trkpt>
      <trkpt lat="44.99902" lon="4.66164">
        <ele>680</ele>
        <time>2018-10-24T11:10:30+02:00</time>
      </trkpt>
      <trkpt lat="44.99903" lon="4.66168">
        <ele>679</ele>
        <time>2018-10-24T11:10:38+02:00</time>
      </trkpt>
      <trkpt lat="44.99906" lon="4.6617">
        <ele>680</ele>
        <time>2018-10-24T11:10:45+02:00</time>
      </trkpt>
      <trkpt lat="44.99914" lon="4.66172">
        <ele>681</ele>
        <time>2018-10-24T11:10:52+02:00</time>
      </trkpt>
      <trkpt lat="44.99924" lon="4.66176">
        <ele>682</ele>
        <time>2018-10-24T11:11:01+02:00</time>
      </trkpt>
      <trkpt lat="44.99938" lon="4.66187">
        <ele>682</ele>
        <time>2018-10-24T11:11:12+02:00</time>
      </trkpt>
      <trkpt lat="44.99946" lon="4.66197">
        <ele>681</ele>
        <time>2018-10-24T11:11:20+02:00</time>
      </trkpt>
      <trkpt lat="44.99947" lon="4.66198">
        <ele>681</ele>
        <time>2018-10-24T11:11:21+02:00</time>
      </trkpt>
      <trkpt lat="44.99952" lon="4.66203">
        <ele>680</ele>
        <time>2018-10-24T11:11:27+02:00</time>
      </trkpt>
      <trkpt lat="44.99954" lon="4.66205">
        <ele>680</ele>
        <time>2018-10-24T11:11:29+02:00</time>
      </trkpt>
      <trkpt lat="44.99959" lon="4.66207">
        <ele>680</ele>
        <time>2018-10-24T11:11:34+02:00</time>
      </trkpt>
      <trkpt lat="44.99964" lon="4.66209">
        <ele>681</ele>
        <time>2018-10-24T11:11:38+02:00</time>
      </trkpt>
      <trkpt lat="44.99968" lon="4.66209">
        <ele>681</ele>
        <time>2018-10-24T11:11:41+02:00</time>
      </trkpt>
      <trkpt lat="44.99976" lon="4.6621">
        <ele>682</ele>
        <time>2018-10-24T11:11:48+02:00</time>
      </trkpt>
      <trkpt lat="44.99986" lon="4.66211">
        <ele>684</ele>
        <time>2018-10-24T11:11:56+02:00</time>
      </trkpt>
      <trkpt lat="44.99997" lon="4.6621">
        <ele>685</ele>
        <time>2018-10-24T11:12:04+02:00</time>
      </trkpt>
      <trkpt lat="45.00003" lon="4.66209">
        <ele>687</ele>
        <time>2018-10-24T11:12:11+02:00</time>
      </trkpt>
      <trkpt lat="45.00005" lon="4.6621">
        <ele>687</ele>
        <time>2018-10-24T11:12:20+02:00</time>
      </trkpt>
      <trkpt lat="45.00008" lon="4.66212">
        <ele>687</ele>
        <time>2018-10-24T11:12:30+02:00</time>
      </trkpt>
      <trkpt lat="45.00021" lon="4.66206">
        <ele>690</ele>
        <time>2018-10-24T11:12:41+02:00</time>
      </trkpt>
      <trkpt lat="45.00023" lon="4.66208">
        <ele>690</ele>
        <time>2018-10-24T11:12:50+02:00</time>
      </trkpt>
      <trkpt lat="45.00027" lon="4.66202">
        <ele>692</ele>
        <time>2018-10-24T11:13:00+02:00</time>
      </trkpt>
      <trkpt lat="45.00036" lon="4.66197">
        <ele>695</ele>
        <time>2018-10-24T11:13:07+02:00</time>
      </trkpt>
      <trkpt lat="45.00046" lon="4.66195">
        <ele>697</ele>
        <time>2018-10-24T11:13:15+02:00</time>
      </trkpt>
      <trkpt lat="45.00052" lon="4.66198">
        <ele>697</ele>
        <time>2018-10-24T11:13:23+02:00</time>
      </trkpt>
      <trkpt lat="45.00061" lon="4.66206">
        <ele>696</ele>
        <time>2018-10-24T11:13:31+02:00</time>
      </trkpt>
      <trkpt lat="45.00067" lon="4.66217">
        <ele>694</ele>
        <time>2018-10-24T11:13:38+02:00</time>
      </trkpt>
      <trkpt lat="45.00077" lon="4.66224">
        <ele>693</ele>
        <time>2018-10-24T11:13:46+02:00</time>
      </trkpt>
      <trkpt lat="45.00085" lon="4.66231">
        <ele>693</ele>
        <time>2018-10-24T11:13:53+02:00</time>
      </trkpt>
      <trkpt lat="45.00095" lon="4.66239">
        <ele>693</ele>
        <time>2018-10-24T11:14:01+02:00</time>
      </trkpt>
      <trkpt lat="45.00102" lon="4.66247">
        <ele>693</ele>
        <time>2018-10-24T11:14:09+02:00</time>
      </trkpt>
      <trkpt lat="45.00105" lon="4.66249">
        <ele>693</ele>
        <time>2018-10-24T11:14:11+02:00</time>
      </trkpt>
      <trkpt lat="45.00116" lon="4.66259">
        <ele>693</ele>
        <time>2018-10-24T11:14:20+02:00</time>
      </trkpt>
      <trkpt lat="45.00117" lon="4.66261">
        <ele>693</ele>
        <time>2018-10-24T11:14:22+02:00</time>
      </trkpt>
      <trkpt lat="45.00121" lon="4.66262">
        <ele>693</ele>
        <time>2018-10-24T11:14:25+02:00</time>
      </trkpt>
      <trkpt lat="45.00132" lon="4.66272">
        <ele>693</ele>
        <time>2018-10-24T11:14:35+02:00</time>
      </trkpt>
      <trkpt lat="45.00132" lon="4.66275">
        <ele>692</ele>
        <time>2018-10-24T11:14:44+02:00</time>
      </trkpt>
      <trkpt lat="45.00134" lon="4.66274">
        <ele>693</ele>
        <time>2018-10-24T11:14:55+02:00</time>
      </trkpt>
      <trkpt lat="45.00132" lon="4.66275">
        <ele>692</ele>
        <time>2018-10-24T11:15:07+02:00</time>
      </trkpt>
      <trkpt lat="45.00134" lon="4.66275">
        <ele>693</ele>
        <time>2018-10-24T11:15:19+02:00</time>
      </trkpt>
      <trkpt lat="45.00139" lon="4.66278">
        <ele>693</ele>
        <time>2018-10-24T11:15:28+02:00</time>
      </trkpt>
      <trkpt lat="45.00146" lon="4.66282">
        <ele>694</ele>
        <time>2018-10-24T11:15:34+02:00</time>
      </trkpt>
      <trkpt lat="45.00154" lon="4.6629">
        <ele>694</ele>
        <time>2018-10-24T11:15:43+02:00</time>
      </trkpt>
      <trkpt lat="45.00157" lon="4.66294">
        <ele>693</ele>
        <time>2018-10-24T11:15:46+02:00</time>
      </trkpt>
      <trkpt lat="45.00161" lon="4.66297">
        <ele>694</ele>
        <time>2018-10-24T11:15:50+02:00</time>
      </trkpt>
      <trkpt lat="45.00167" lon="4.66301">
        <ele>694</ele>
        <time>2018-10-24T11:15:55+02:00</time>
      </trkpt>
      <trkpt lat="45.00171" lon="4.66306">
        <ele>694</ele>
        <time>2018-10-24T11:15:59+02:00</time>
      </trkpt>
      <trkpt lat="45.00175" lon="4.6631">
        <ele>694</ele>
        <time>2018-10-24T11:16:02+02:00</time>
      </trkpt>
      <trkpt lat="45.00189" lon="4.66327">
        <ele>692</ele>
        <time>2018-10-24T11:16:14+02:00</time>
      </trkpt>
      <trkpt lat="45.00199" lon="4.66337">
        <ele>692</ele>
        <time>2018-10-24T11:16:23+02:00</time>
      </trkpt>
      <trkpt lat="45.00205" lon="4.66342">
        <ele>692</ele>
        <time>2018-10-24T11:16:29+02:00</time>
      </trkpt>
      <trkpt lat="45.00213" lon="4.66353">
        <ele>692</ele>
        <time>2018-10-24T11:16:37+02:00</time>
      </trkpt>
      <trkpt lat="45.00219" lon="4.66357">
        <ele>692</ele>
        <time>2018-10-24T11:16:41+02:00</time>
      </trkpt>
      <trkpt lat="45.00221" lon="4.66359">
        <ele>692</ele>
        <time>2018-10-24T11:16:43+02:00</time>
      </trkpt>
      <trkpt lat="45.00231" lon="4.6637">
        <ele>692</ele>
        <time>2018-10-24T11:16:52+02:00</time>
      </trkpt>
      <trkpt lat="45.00236" lon="4.66374">
        <ele>692</ele>
        <time>2018-10-24T11:16:56+02:00</time>
      </trkpt>
      <trkpt lat="45.00241" lon="4.66378">
        <ele>693</ele>
        <time>2018-10-24T11:17:00+02:00</time>
      </trkpt>
      <trkpt lat="45.00248" lon="4.66384">
        <ele>693</ele>
        <time>2018-10-24T11:17:09+02:00</time>
      </trkpt>
      <trkpt lat="45.00249" lon="4.66384">
        <ele>693</ele>
        <time>2018-10-24T11:17:11+02:00</time>
      </trkpt>
      <trkpt lat="45.00254" lon="4.66391">
        <ele>693</ele>
        <time>2018-10-24T11:17:18+02:00</time>
      </trkpt>
      <trkpt lat="45.0026" lon="4.66394">
        <ele>694</ele>
        <time>2018-10-24T11:17:26+02:00</time>
      </trkpt>
      <trkpt lat="45.00265" lon="4.664">
        <ele>693</ele>
        <time>2018-10-24T11:17:34+02:00</time>
      </trkpt>
      <trkpt lat="45.00272" lon="4.6641">
        <ele>692</ele>
        <time>2018-10-24T11:17:42+02:00</time>
      </trkpt>
      <trkpt lat="45.00279" lon="4.6642">
        <ele>692</ele>
        <time>2018-10-24T11:17:49+02:00</time>
      </trkpt>
      <trkpt lat="45.00284" lon="4.66428">
        <ele>691</ele>
        <time>2018-10-24T11:17:56+02:00</time>
      </trkpt>
      <trkpt lat="45.00287" lon="4.66433">
        <ele>691</ele>
        <time>2018-10-24T11:18:00+02:00</time>
      </trkpt>
      <trkpt lat="45.00292" lon="4.66442">
        <ele>691</ele>
        <time>2018-10-24T11:18:06+02:00</time>
      </trkpt>
      <trkpt lat="45.00295" lon="4.66445">
        <ele>691</ele>
        <time>2018-10-24T11:18:09+02:00</time>
      </trkpt>
      <trkpt lat="45.003" lon="4.66452">
        <ele>691</ele>
        <time>2018-10-24T11:18:14+02:00</time>
      </trkpt>
      <trkpt lat="45.00304" lon="4.66456">
        <ele>691</ele>
        <time>2018-10-24T11:18:17+02:00</time>
      </trkpt>
      <trkpt lat="45.00315" lon="4.66466">
        <ele>691</ele>
        <time>2018-10-24T11:18:26+02:00</time>
      </trkpt>
      <trkpt lat="45.00325" lon="4.66474">
        <ele>691</ele>
        <time>2018-10-24T11:18:35+02:00</time>
      </trkpt>
      <trkpt lat="45.00327" lon="4.66475">
        <ele>691</ele>
        <time>2018-10-24T11:18:36+02:00</time>
      </trkpt>
      <trkpt lat="45.00335" lon="4.66484">
        <ele>691</ele>
        <time>2018-10-24T11:18:44+02:00</time>
      </trkpt>
      <trkpt lat="45.00345" lon="4.66493">
        <ele>690</ele>
        <time>2018-10-24T11:18:53+02:00</time>
      </trkpt>
      <trkpt lat="45.00356" lon="4.665">
        <ele>688</ele>
        <time>2018-10-24T11:19:02+02:00</time>
      </trkpt>
      <trkpt lat="45.00366" lon="4.6651">
        <ele>688</ele>
        <time>2018-10-24T11:19:11+02:00</time>
      </trkpt>
      <trkpt lat="45.00376" lon="4.66521">
        <ele>689</ele>
        <time>2018-10-24T11:19:20+02:00</time>
      </trkpt>
      <trkpt lat="45.00377" lon="4.66522">
        <ele>689</ele>
        <time>2018-10-24T11:19:21+02:00</time>
      </trkpt>
      <trkpt lat="45.00378" lon="4.66523">
        <ele>689</ele>
        <time>2018-10-24T11:19:22+02:00</time>
      </trkpt>
      <trkpt lat="45.00384" lon="4.66524">
        <ele>689</ele>
        <time>2018-10-24T11:19:27+02:00</time>
      </trkpt>
      <trkpt lat="45.0039" lon="4.66523">
        <ele>689</ele>
        <time>2018-10-24T11:19:31+02:00</time>
      </trkpt>
      <trkpt lat="45.0039" lon="4.66523">
        <ele>689</ele>
        <time>2018-10-24T11:19:33+02:00</time>
      </trkpt>
      <trkpt lat="45.00391" lon="4.66523">
        <ele>689</ele>
        <time>2018-10-24T11:19:39+02:00</time>
      </trkpt>
      <trkpt lat="45.00392" lon="4.66523">
        <ele>689</ele>
        <time>2018-10-24T11:19:51+02:00</time>
      </trkpt>
      <trkpt lat="45.00388" lon="4.66523">
        <ele>689</ele>
        <time>2018-10-24T11:20:08+02:00</time>
      </trkpt>
      <trkpt lat="45.00386" lon="4.66525">
        <ele>689</ele>
        <time>2018-10-24T11:20:19+02:00</time>
      </trkpt>
      <trkpt lat="45.00386" lon="4.66525">
        <ele>689</ele>
        <time>2018-10-24T11:20:36+02:00</time>
      </trkpt>
      <trkpt lat="45.00388" lon="4.66525">
        <ele>689</ele>
        <time>2018-10-24T11:20:50+02:00</time>
      </trkpt>
      <trkpt lat="45.00388" lon="4.66525">
        <ele>689</ele>
        <time>2018-10-24T11:20:57+02:00</time>
      </trkpt>
      <trkpt lat="45.00387" lon="4.66524">
        <ele>689</ele>
        <time>2018-10-24T11:21:12+02:00</time>
      </trkpt>
      <trkpt lat="45.00385" lon="4.66519">
        <ele>689</ele>
        <time>2018-10-24T11:21:23+02:00</time>
      </trkpt>
      <trkpt lat="45.00387" lon="4.66508">
        <ele>689</ele>
        <time>2018-10-24T11:21:29+02:00</time>
      </trkpt>
      <trkpt lat="45.00389" lon="4.66502">
        <ele>689</ele>
        <time>2018-10-24T11:21:32+02:00</time>
      </trkpt>
      <trkpt lat="45.00391" lon="4.66496">
        <ele>689</ele>
        <time>2018-10-24T11:21:36+02:00</time>
      </trkpt>
      <trkpt lat="45.00392" lon="4.66494">
        <ele>690</ele>
        <time>2018-10-24T11:21:37+02:00</time>
      </trkpt>
      <trkpt lat="45.00398" lon="4.66484">
        <ele>692</ele>
        <time>2018-10-24T11:21:45+02:00</time>
      </trkpt>
      <trkpt lat="45.00406" lon="4.66473">
        <ele>694</ele>
        <time>2018-10-24T11:21:55+02:00</time>
      </trkpt>
      <trkpt lat="45.00414" lon="4.66464">
        <ele>695</ele>
        <time>2018-10-24T11:22:04+02:00</time>
      </trkpt>
      <trkpt lat="45.00421" lon="4.66451">
        <ele>697</ele>
        <time>2018-10-24T11:22:13+02:00</time>
      </trkpt>
      <trkpt lat="45.00432" lon="4.66443">
        <ele>696</ele>
        <time>2018-10-24T11:22:21+02:00</time>
      </trkpt>
      <trkpt lat="45.0044" lon="4.66431">
        <ele>697</ele>
        <time>2018-10-24T11:22:29+02:00</time>
      </trkpt>
      <trkpt lat="45.0045" lon="4.66416">
        <ele>698</ele>
        <time>2018-10-24T11:22:39+02:00</time>
      </trkpt>
      <trkpt lat="45.0046" lon="4.66398">
        <ele>698</ele>
        <time>2018-10-24T11:22:50+02:00</time>
      </trkpt>
      <trkpt lat="45.00462" lon="4.66394">
        <ele>698</ele>
        <time>2018-10-24T11:22:53+02:00</time>
      </trkpt>
      <trkpt lat="45.00466" lon="4.6638">
        <ele>698</ele>
        <time>2018-10-24T11:23:00+02:00</time>
      </trkpt>
      <trkpt lat="45.0047" lon="4.66364">
        <ele>699</ele>
        <time>2018-10-24T11:23:08+02:00</time>
      </trkpt>
      <trkpt lat="45.00473" lon="4.66349">
        <ele>700</ele>
        <time>2018-10-24T11:23:16+02:00</time>
      </trkpt>
      <trkpt lat="45.00475" lon="4.66334">
        <ele>700</ele>
        <time>2018-10-24T11:23:24+02:00</time>
      </trkpt>
      <trkpt lat="45.00478" lon="4.66321">
        <ele>701</ele>
        <time>2018-10-24T11:23:31+02:00</time>
      </trkpt>
      <trkpt lat="45.0048" lon="4.66301">
        <ele>703</ele>
        <time>2018-10-24T11:23:40+02:00</time>
      </trkpt>
      <trkpt lat="45.00483" lon="4.66287">
        <ele>704</ele>
        <time>2018-10-24T11:23:48+02:00</time>
      </trkpt>
      <trkpt lat="45.00488" lon="4.66272">
        <ele>704</ele>
        <time>2018-10-24T11:23:55+02:00</time>
      </trkpt>
      <trkpt lat="45.00492" lon="4.66258">
        <ele>704</ele>
        <time>2018-10-24T11:24:03+02:00</time>
      </trkpt>
      <trkpt lat="45.00494" lon="4.66246">
        <ele>704</ele>
        <time>2018-10-24T11:24:11+02:00</time>
      </trkpt>
      <trkpt lat="45.00499" lon="4.66227">
        <ele>704</ele>
        <time>2018-10-24T11:24:20+02:00</time>
      </trkpt>
      <trkpt lat="45.00499" lon="4.6621">
        <ele>706</ele>
        <time>2018-10-24T11:24:29+02:00</time>
      </trkpt>
      <trkpt lat="45.005" lon="4.662">
        <ele>706</ele>
        <time>2018-10-24T11:24:35+02:00</time>
      </trkpt>
      <trkpt lat="45.005" lon="4.66193">
        <ele>707</ele>
        <time>2018-10-24T11:24:38+02:00</time>
      </trkpt>
      <trkpt lat="45.005" lon="4.66176">
        <ele>708</ele>
        <time>2018-10-24T11:24:46+02:00</time>
      </trkpt>
      <trkpt lat="45.005" lon="4.66168">
        <ele>709</ele>
        <time>2018-10-24T11:24:50+02:00</time>
      </trkpt>
      <trkpt lat="45.00501" lon="4.66157">
        <ele>709</ele>
        <time>2018-10-24T11:24:56+02:00</time>
      </trkpt>
      <trkpt lat="45.005" lon="4.66137">
        <ele>711</ele>
        <time>2018-10-24T11:25:06+02:00</time>
      </trkpt>
      <trkpt lat="45.00498" lon="4.66119">
        <ele>713</ele>
        <time>2018-10-24T11:25:15+02:00</time>
      </trkpt>
      <trkpt lat="45.00497" lon="4.66104">
        <ele>714</ele>
        <time>2018-10-24T11:25:22+02:00</time>
      </trkpt>
      <trkpt lat="45.00497" lon="4.66101">
        <ele>714</ele>
        <time>2018-10-24T11:25:24+02:00</time>
      </trkpt>
      <trkpt lat="45.00502" lon="4.66088">
        <ele>713</ele>
        <time>2018-10-24T11:25:33+02:00</time>
      </trkpt>
      <trkpt lat="45.00508" lon="4.66076">
        <ele>713</ele>
        <time>2018-10-24T11:25:41+02:00</time>
      </trkpt>
      <trkpt lat="45.00518" lon="4.66068">
        <ele>711</ele>
        <time>2018-10-24T11:25:49+02:00</time>
      </trkpt>
      <trkpt lat="45.0053" lon="4.6606">
        <ele>709</ele>
        <time>2018-10-24T11:25:57+02:00</time>
      </trkpt>
      <trkpt lat="45.00539" lon="4.66052">
        <ele>708</ele>
        <time>2018-10-24T11:26:06+02:00</time>
      </trkpt>
      <trkpt lat="45.00545" lon="4.66046">
        <ele>707</ele>
        <time>2018-10-24T11:26:13+02:00</time>
      </trkpt>
      <trkpt lat="45.00555" lon="4.66031">
        <ele>706</ele>
        <time>2018-10-24T11:26:23+02:00</time>
      </trkpt>
      <trkpt lat="45.00562" lon="4.66013">
        <ele>707</ele>
        <time>2018-10-24T11:26:33+02:00</time>
      </trkpt>
      <trkpt lat="45.00567" lon="4.65998">
        <ele>709</ele>
        <time>2018-10-24T11:26:42+02:00</time>
      </trkpt>
      <trkpt lat="45.00569" lon="4.65982">
        <ele>710</ele>
        <time>2018-10-24T11:26:51+02:00</time>
      </trkpt>
      <trkpt lat="45.0057" lon="4.65969">
        <ele>711</ele>
        <time>2018-10-24T11:26:59+02:00</time>
      </trkpt>
      <trkpt lat="45.00572" lon="4.65956">
        <ele>712</ele>
        <time>2018-10-24T11:27:07+02:00</time>
      </trkpt>
      <trkpt lat="45.00574" lon="4.65947">
        <ele>712</ele>
        <time>2018-10-24T11:27:14+02:00</time>
      </trkpt>
      <trkpt lat="45.00575" lon="4.65933">
        <ele>713</ele>
        <time>2018-10-24T11:27:23+02:00</time>
      </trkpt>
      <trkpt lat="45.00575" lon="4.65928">
        <ele>714</ele>
        <time>2018-10-24T11:27:26+02:00</time>
      </trkpt>
      <trkpt lat="45.00576" lon="4.65909">
        <ele>715</ele>
        <time>2018-10-24T11:27:36+02:00</time>
      </trkpt>
      <trkpt lat="45.00574" lon="4.65899">
        <ele>716</ele>
        <time>2018-10-24T11:27:43+02:00</time>
      </trkpt>
      <trkpt lat="45.00572" lon="4.65891">
        <ele>717</ele>
        <time>2018-10-24T11:27:50+02:00</time>
      </trkpt>
      <trkpt lat="45.00573" lon="4.65892">
        <ele>717</ele>
        <time>2018-10-24T11:28:03+02:00</time>
      </trkpt>
      <trkpt lat="45.00573" lon="4.65891">
        <ele>717</ele>
        <time>2018-10-24T11:28:18+02:00</time>
      </trkpt>
      <trkpt lat="45.0057" lon="4.65891">
        <ele>718</ele>
        <time>2018-10-24T11:28:30+02:00</time>
      </trkpt>
      <trkpt lat="45.00568" lon="4.65888">
        <ele>719</ele>
        <time>2018-10-24T11:28:41+02:00</time>
      </trkpt>
      <trkpt lat="45.00565" lon="4.65879">
        <ele>720</ele>
        <time>2018-10-24T11:28:48+02:00</time>
      </trkpt>
      <trkpt lat="45.00566" lon="4.65881">
        <ele>720</ele>
        <time>2018-10-24T11:28:56+02:00</time>
      </trkpt>
      <trkpt lat="45.00562" lon="4.65877">
        <ele>722</ele>
        <time>2018-10-24T11:29:03+02:00</time>
      </trkpt>
      <trkpt lat="45.0056" lon="4.65873">
        <ele>723</ele>
        <time>2018-10-24T11:29:07+02:00</time>
      </trkpt>
      <trkpt lat="45.00553" lon="4.65864">
        <ele>725</ele>
        <time>2018-10-24T11:29:15+02:00</time>
      </trkpt>
      <trkpt lat="45.0055" lon="4.65857">
        <ele>727</ele>
        <time>2018-10-24T11:29:22+02:00</time>
      </trkpt>
      <trkpt lat="45.00547" lon="4.65847">
        <ele>728</ele>
        <time>2018-10-24T11:29:31+02:00</time>
      </trkpt>
      <trkpt lat="45.00547" lon="4.65837">
        <ele>729</ele>
        <time>2018-10-24T11:29:39+02:00</time>
      </trkpt>
      <trkpt lat="45.00547" lon="4.65823">
        <ele>728</ele>
        <time>2018-10-24T11:29:46+02:00</time>
      </trkpt>
      <trkpt lat="45.00547" lon="4.65808">
        <ele>728</ele>
        <time>2018-10-24T11:29:55+02:00</time>
      </trkpt>
      <trkpt lat="45.00544" lon="4.65793">
        <ele>729</ele>
        <time>2018-10-24T11:30:03+02:00</time>
      </trkpt>
      <trkpt lat="45.00544" lon="4.65781">
        <ele>729</ele>
        <time>2018-10-24T11:30:10+02:00</time>
      </trkpt>
      <trkpt lat="45.00539" lon="4.65763">
        <ele>730</ele>
        <time>2018-10-24T11:30:19+02:00</time>
      </trkpt>
      <trkpt lat="45.00538" lon="4.6576">
        <ele>730</ele>
        <time>2018-10-24T11:30:21+02:00</time>
      </trkpt>
      <trkpt lat="45.00532" lon="4.65745">
        <ele>732</ele>
        <time>2018-10-24T11:30:30+02:00</time>
      </trkpt>
      <trkpt lat="45.00526" lon="4.65728">
        <ele>736</ele>
        <time>2018-10-24T11:30:39+02:00</time>
      </trkpt>
      <trkpt lat="45.00522" lon="4.65719">
        <ele>738</ele>
        <time>2018-10-24T11:30:45+02:00</time>
      </trkpt>
      <trkpt lat="45.00522" lon="4.65713">
        <ele>739</ele>
        <time>2018-10-24T11:30:49+02:00</time>
      </trkpt>
      <trkpt lat="45.00527" lon="4.65694">
        <ele>739</ele>
        <time>2018-10-24T11:31:00+02:00</time>
      </trkpt>
      <trkpt lat="45.00536" lon="4.65682">
        <ele>737</ele>
        <time>2018-10-24T11:31:08+02:00</time>
      </trkpt>
      <trkpt lat="45.00545" lon="4.65672">
        <ele>734</ele>
        <time>2018-10-24T11:31:16+02:00</time>
      </trkpt>
      <trkpt lat="45.00552" lon="4.65665">
        <ele>733</ele>
        <time>2018-10-24T11:31:23+02:00</time>
      </trkpt>
      <trkpt lat="45.0056" lon="4.65655">
        <ele>732</ele>
        <time>2018-10-24T11:31:32+02:00</time>
      </trkpt>
      <trkpt lat="45.00566" lon="4.65645">
        <ele>731</ele>
        <time>2018-10-24T11:31:41+02:00</time>
      </trkpt>
      <trkpt lat="45.0057" lon="4.65629">
        <ele>732</ele>
        <time>2018-10-24T11:31:51+02:00</time>
      </trkpt>
      <trkpt lat="45.00572" lon="4.65613">
        <ele>734</ele>
        <time>2018-10-24T11:32:00+02:00</time>
      </trkpt>
      <trkpt lat="45.00572" lon="4.656">
        <ele>736</ele>
        <time>2018-10-24T11:32:08+02:00</time>
      </trkpt>
      <trkpt lat="45.00572" lon="4.65587">
        <ele>739</ele>
        <time>2018-10-24T11:32:17+02:00</time>
      </trkpt>
      <trkpt lat="45.00572" lon="4.65577">
        <ele>739</ele>
        <time>2018-10-24T11:32:24+02:00</time>
      </trkpt>
      <trkpt lat="45.00573" lon="4.65561">
        <ele>740</ele>
        <time>2018-10-24T11:32:34+02:00</time>
      </trkpt>
      <trkpt lat="45.00574" lon="4.65555">
        <ele>741</ele>
        <time>2018-10-24T11:32:42+02:00</time>
      </trkpt>
      <trkpt lat="45.00574" lon="4.65552">
        <ele>741</ele>
        <time>2018-10-24T11:32:52+02:00</time>
      </trkpt>
      <trkpt lat="45.00576" lon="4.65549">
        <ele>741</ele>
        <time>2018-10-24T11:33:07+02:00</time>
      </trkpt>
      <trkpt lat="45.00577" lon="4.65552">
        <ele>740</ele>
        <time>2018-10-24T11:33:24+02:00</time>
      </trkpt>
      <trkpt lat="45.00578" lon="4.65554">
        <ele>739</ele>
        <time>2018-10-24T11:33:40+02:00</time>
      </trkpt>
      <trkpt lat="45.00573" lon="4.65551">
        <ele>741</ele>
        <time>2018-10-24T11:33:51+02:00</time>
      </trkpt>
      <trkpt lat="45.0057" lon="4.65544">
        <ele>743</ele>
        <time>2018-10-24T11:34:03+02:00</time>
      </trkpt>
      <trkpt lat="45.00569" lon="4.65528">
        <ele>745</ele>
        <time>2018-10-24T11:34:12+02:00</time>
      </trkpt>
      <trkpt lat="45.00567" lon="4.65515">
        <ele>746</ele>
        <time>2018-10-24T11:34:20+02:00</time>
      </trkpt>
      <trkpt lat="45.00566" lon="4.65503">
        <ele>748</ele>
        <time>2018-10-24T11:34:28+02:00</time>
      </trkpt>
      <trkpt lat="45.00567" lon="4.65495">
        <ele>748</ele>
        <time>2018-10-24T11:34:34+02:00</time>
      </trkpt>
      <trkpt lat="45.00567" lon="4.6548">
        <ele>748</ele>
        <time>2018-10-24T11:34:43+02:00</time>
      </trkpt>
      <trkpt lat="45.00567" lon="4.65473">
        <ele>747</ele>
        <time>2018-10-24T11:34:50+02:00</time>
      </trkpt>
      <trkpt lat="45.00567" lon="4.65464">
        <ele>747</ele>
        <time>2018-10-24T11:34:57+02:00</time>
      </trkpt>
      <trkpt lat="45.00565" lon="4.65451">
        <ele>748</ele>
        <time>2018-10-24T11:35:04+02:00</time>
      </trkpt>
      <trkpt lat="45.00561" lon="4.65435">
        <ele>749</ele>
        <time>2018-10-24T11:35:13+02:00</time>
      </trkpt>
      <trkpt lat="45.00558" lon="4.65426">
        <ele>750</ele>
        <time>2018-10-24T11:35:17+02:00</time>
      </trkpt>
      <trkpt lat="45.00553" lon="4.6541">
        <ele>752</ele>
        <time>2018-10-24T11:35:25+02:00</time>
      </trkpt>
      <trkpt lat="45.00551" lon="4.65395">
        <ele>753</ele>
        <time>2018-10-24T11:35:33+02:00</time>
      </trkpt>
      <trkpt lat="45.00552" lon="4.65379">
        <ele>753</ele>
        <time>2018-10-24T11:35:42+02:00</time>
      </trkpt>
      <trkpt lat="45.00553" lon="4.65366">
        <ele>753</ele>
        <time>2018-10-24T11:35:52+02:00</time>
      </trkpt>
      <trkpt lat="45.00552" lon="4.65358">
        <ele>753</ele>
        <time>2018-10-24T11:35:58+02:00</time>
      </trkpt>
      <trkpt lat="45.00555" lon="4.65345">
        <ele>753</ele>
        <time>2018-10-24T11:36:06+02:00</time>
      </trkpt>
      <trkpt lat="45.00561" lon="4.65329">
        <ele>751</ele>
        <time>2018-10-24T11:36:15+02:00</time>
      </trkpt>
      <trkpt lat="45.00562" lon="4.65327">
        <ele>751</ele>
        <time>2018-10-24T11:36:16+02:00</time>
      </trkpt>
      <trkpt lat="45.00568" lon="4.65315">
        <ele>749</ele>
        <time>2018-10-24T11:36:22+02:00</time>
      </trkpt>
      <trkpt lat="45.00578" lon="4.65292">
        <ele>747</ele>
        <time>2018-10-24T11:36:31+02:00</time>
      </trkpt>
      <trkpt lat="45.00579" lon="4.65279">
        <ele>747</ele>
        <time>2018-10-24T11:36:39+02:00</time>
      </trkpt>
      <trkpt lat="45.00578" lon="4.65261">
        <ele>748</ele>
        <time>2018-10-24T11:36:48+02:00</time>
      </trkpt>
      <trkpt lat="45.00578" lon="4.6525">
        <ele>748</ele>
        <time>2018-10-24T11:36:54+02:00</time>
      </trkpt>
      <trkpt lat="45.00576" lon="4.65237">
        <ele>748</ele>
        <time>2018-10-24T11:37:02+02:00</time>
      </trkpt>
      <trkpt lat="45.00573" lon="4.65219">
        <ele>748</ele>
        <time>2018-10-24T11:37:10+02:00</time>
      </trkpt>
      <trkpt lat="45.00569" lon="4.65206">
        <ele>749</ele>
        <time>2018-10-24T11:37:18+02:00</time>
      </trkpt>
      <trkpt lat="45.00566" lon="4.65196">
        <ele>749</ele>
        <time>2018-10-24T11:37:26+02:00</time>
      </trkpt>
      <trkpt lat="45.00564" lon="4.65178">
        <ele>749</ele>
        <time>2018-10-24T11:37:34+02:00</time>
      </trkpt>
      <trkpt lat="45.0056" lon="4.65164">
        <ele>748</ele>
        <time>2018-10-24T11:37:41+02:00</time>
      </trkpt>
      <trkpt lat="45.00555" lon="4.65152">
        <ele>747</ele>
        <time>2018-10-24T11:37:48+02:00</time>
      </trkpt>
      <trkpt lat="45.00553" lon="4.65148">
        <ele>747</ele>
        <time>2018-10-24T11:37:51+02:00</time>
      </trkpt>
      <trkpt lat="45.00545" lon="4.65129">
        <ele>746</ele>
        <time>2018-10-24T11:38:01+02:00</time>
      </trkpt>
      <trkpt lat="45.00539" lon="4.65118">
        <ele>746</ele>
        <time>2018-10-24T11:38:09+02:00</time>
      </trkpt>
      <trkpt lat="45.00532" lon="4.65108">
        <ele>747</ele>
        <time>2018-10-24T11:38:17+02:00</time>
      </trkpt>
      <trkpt lat="45.00525" lon="4.65097">
        <ele>747</ele>
        <time>2018-10-24T11:38:24+02:00</time>
      </trkpt>
      <trkpt lat="45.0052" lon="4.6509">
        <ele>748</ele>
        <time>2018-10-24T11:38:29+02:00</time>
      </trkpt>
      <trkpt lat="45.0051" lon="4.65078">
        <ele>749</ele>
        <time>2018-10-24T11:38:37+02:00</time>
      </trkpt>
      <trkpt lat="45.00503" lon="4.65064">
        <ele>749</ele>
        <time>2018-10-24T11:38:47+02:00</time>
      </trkpt>
      <trkpt lat="45.00501" lon="4.65052">
        <ele>747</ele>
        <time>2018-10-24T11:38:55+02:00</time>
      </trkpt>
      <trkpt lat="45.00496" lon="4.65037">
        <ele>745</ele>
        <time>2018-10-24T11:39:03+02:00</time>
      </trkpt>
      <trkpt lat="45.00492" lon="4.65021">
        <ele>744</ele>
        <time>2018-10-24T11:39:11+02:00</time>
      </trkpt>
      <trkpt lat="45.00488" lon="4.65018">
        <ele>744</ele>
        <time>2018-10-24T11:39:18+02:00</time>
      </trkpt>
      <trkpt lat="45.00486" lon="4.65016">
        <ele>744</ele>
        <time>2018-10-24T11:39:22+02:00</time>
      </trkpt>
      <trkpt lat="45.00485" lon="4.65012">
        <ele>744</ele>
        <time>2018-10-24T11:39:24+02:00</time>
      </trkpt>
      <trkpt lat="45.00477" lon="4.65003">
        <ele>745</ele>
        <time>2018-10-24T11:39:32+02:00</time>
      </trkpt>
      <trkpt lat="45.0047" lon="4.65001">
        <ele>747</ele>
        <time>2018-10-24T11:39:39+02:00</time>
      </trkpt>
      <trkpt lat="45.00465" lon="4.64998">
        <ele>748</ele>
        <time>2018-10-24T11:39:43+02:00</time>
      </trkpt>
      <trkpt lat="45.00451" lon="4.64994">
        <ele>753</ele>
        <time>2018-10-24T11:39:52+02:00</time>
      </trkpt>
      <trkpt lat="45.00444" lon="4.64992">
        <ele>755</ele>
        <time>2018-10-24T11:39:57+02:00</time>
      </trkpt>
      <trkpt lat="45.00434" lon="4.64992">
        <ele>759</ele>
        <time>2018-10-24T11:40:04+02:00</time>
      </trkpt>
      <trkpt lat="45.00425" lon="4.6499">
        <ele>762</ele>
        <time>2018-10-24T11:40:11+02:00</time>
      </trkpt>
      <trkpt lat="45.00415" lon="4.6499">
        <ele>766</ele>
        <time>2018-10-24T11:40:20+02:00</time>
      </trkpt>
      <trkpt lat="45.00406" lon="4.64991">
        <ele>769</ele>
        <time>2018-10-24T11:40:27+02:00</time>
      </trkpt>
      <trkpt lat="45.00401" lon="4.6499">
        <ele>771</ele>
        <time>2018-10-24T11:40:32+02:00</time>
      </trkpt>
      <trkpt lat="45.00396" lon="4.64987">
        <ele>772</ele>
        <time>2018-10-24T11:40:37+02:00</time>
      </trkpt>
      <trkpt lat="45.00394" lon="4.64977">
        <ele>772</ele>
        <time>2018-10-24T11:40:45+02:00</time>
      </trkpt>
      <trkpt lat="45.00395" lon="4.64976">
        <ele>772</ele>
        <time>2018-10-24T11:40:46+02:00</time>
      </trkpt>
      <trkpt lat="45.00395" lon="4.64972">
        <ele>772</ele>
        <time>2018-10-24T11:40:48+02:00</time>
      </trkpt>
      <trkpt lat="45.004" lon="4.64959">
        <ele>769</ele>
        <time>2018-10-24T11:40:56+02:00</time>
      </trkpt>
      <trkpt lat="45.00406" lon="4.64942">
        <ele>765</ele>
        <time>2018-10-24T11:41:06+02:00</time>
      </trkpt>
      <trkpt lat="45.00411" lon="4.64926">
        <ele>762</ele>
        <time>2018-10-24T11:41:15+02:00</time>
      </trkpt>
      <trkpt lat="45.00413" lon="4.64912">
        <ele>760</ele>
        <time>2018-10-24T11:41:23+02:00</time>
      </trkpt>
      <trkpt lat="45.00414" lon="4.64906">
        <ele>760</ele>
        <time>2018-10-24T11:41:30+02:00</time>
      </trkpt>
      <trkpt lat="45.00415" lon="4.64896">
        <ele>759</ele>
        <time>2018-10-24T11:41:38+02:00</time>
      </trkpt>
      <trkpt lat="45.00415" lon="4.64883">
        <ele>759</ele>
        <time>2018-10-24T11:41:46+02:00</time>
      </trkpt>
      <trkpt lat="45.00415" lon="4.64881">
        <ele>758</ele>
        <time>2018-10-24T11:41:47+02:00</time>
      </trkpt>
      <trkpt lat="45.00414" lon="4.64874">
        <ele>759</ele>
        <time>2018-10-24T11:41:54+02:00</time>
      </trkpt>
      <trkpt lat="45.00415" lon="4.64875">
        <ele>758</ele>
        <time>2018-10-24T11:42:02+02:00</time>
      </trkpt>
      <trkpt lat="45.00416" lon="4.64875">
        <ele>758</ele>
        <time>2018-10-24T11:42:14+02:00</time>
      </trkpt>
      <trkpt lat="45.00416" lon="4.64875">
        <ele>758</ele>
        <time>2018-10-24T11:42:30+02:00</time>
      </trkpt>
      <trkpt lat="45.00418" lon="4.64876">
        <ele>757</ele>
        <time>2018-10-24T11:42:43+02:00</time>
      </trkpt>
      <trkpt lat="45.00417" lon="4.64874">
        <ele>757</ele>
        <time>2018-10-24T11:42:58+02:00</time>
      </trkpt>
      <trkpt lat="45.00414" lon="4.64869">
        <ele>758</ele>
        <time>2018-10-24T11:43:09+02:00</time>
      </trkpt>
      <trkpt lat="45.00412" lon="4.64858">
        <ele>759</ele>
        <time>2018-10-24T11:43:16+02:00</time>
      </trkpt>
      <trkpt lat="45.0041" lon="4.64845">
        <ele>759</ele>
        <time>2018-10-24T11:43:24+02:00</time>
      </trkpt>
      <trkpt lat="45.0041" lon="4.64844">
        <ele>759</ele>
        <time>2018-10-24T11:43:25+02:00</time>
      </trkpt>
      <trkpt lat="45.00407" lon="4.64828">
        <ele>759</ele>
        <time>2018-10-24T11:43:33+02:00</time>
      </trkpt>
      <trkpt lat="45.00401" lon="4.64811">
        <ele>758</ele>
        <time>2018-10-24T11:43:43+02:00</time>
      </trkpt>
      <trkpt lat="45.00398" lon="4.64803">
        <ele>757</ele>
        <time>2018-10-24T11:43:49+02:00</time>
      </trkpt>
      <trkpt lat="45.00393" lon="4.64788">
        <ele>757</ele>
        <time>2018-10-24T11:43:58+02:00</time>
      </trkpt>
      <trkpt lat="45.00386" lon="4.64773">
        <ele>757</ele>
        <time>2018-10-24T11:44:07+02:00</time>
      </trkpt>
      <trkpt lat="45.00378" lon="4.64761">
        <ele>757</ele>
        <time>2018-10-24T11:44:15+02:00</time>
      </trkpt>
      <trkpt lat="45.00371" lon="4.64751">
        <ele>758</ele>
        <time>2018-10-24T11:44:23+02:00</time>
      </trkpt>
      <trkpt lat="45.00363" lon="4.64742">
        <ele>758</ele>
        <time>2018-10-24T11:44:31+02:00</time>
      </trkpt>
      <trkpt lat="45.00354" lon="4.64732">
        <ele>758</ele>
        <time>2018-10-24T11:44:40+02:00</time>
      </trkpt>
      <trkpt lat="45.00349" lon="4.64727">
        <ele>759</ele>
        <time>2018-10-24T11:44:45+02:00</time>
      </trkpt>
      <trkpt lat="45.00339" lon="4.64722">
        <ele>760</ele>
        <time>2018-10-24T11:44:52+02:00</time>
      </trkpt>
      <trkpt lat="45.00335" lon="4.64722">
        <ele>762</ele>
        <time>2018-10-24T11:44:56+02:00</time>
      </trkpt>
      <trkpt lat="45.00324" lon="4.64717">
        <ele>763</ele>
        <time>2018-10-24T11:45:03+02:00</time>
      </trkpt>
      <trkpt lat="45.00313" lon="4.6471">
        <ele>764</ele>
        <time>2018-10-24T11:45:13+02:00</time>
      </trkpt>
      <trkpt lat="45.0031" lon="4.64707">
        <ele>764</ele>
        <time>2018-10-24T11:45:16+02:00</time>
      </trkpt>
      <trkpt lat="45.00306" lon="4.64707">
        <ele>765</ele>
        <time>2018-10-24T11:45:23+02:00</time>
      </trkpt>
      <trkpt lat="45.00298" lon="4.64703">
        <ele>766</ele>
        <time>2018-10-24T11:45:30+02:00</time>
      </trkpt>
      <trkpt lat="45.00293" lon="4.64703">
        <ele>768</ele>
        <time>2018-10-24T11:45:38+02:00</time>
      </trkpt>
      <trkpt lat="45.00288" lon="4.64702">
        <ele>768</ele>
        <time>2018-10-24T11:45:46+02:00</time>
      </trkpt>
      <trkpt lat="45.00285" lon="4.64701">
        <ele>769</ele>
        <time>2018-10-24T11:45:52+02:00</time>
      </trkpt>
      <trkpt lat="45.00283" lon="4.647">
        <ele>770</ele>
        <time>2018-10-24T11:46:02+02:00</time>
      </trkpt>
      <trkpt lat="45.00276" lon="4.64704">
        <ele>772</ele>
        <time>2018-10-24T11:46:10+02:00</time>
      </trkpt>
      <trkpt lat="45.0027" lon="4.64707">
        <ele>774</ele>
        <time>2018-10-24T11:46:17+02:00</time>
      </trkpt>
      <trkpt lat="45.00263" lon="4.64704">
        <ele>776</ele>
        <time>2018-10-24T11:46:25+02:00</time>
      </trkpt>
      <trkpt lat="45.00258" lon="4.64699">
        <ele>776</ele>
        <time>2018-10-24T11:46:32+02:00</time>
      </trkpt>
      <trkpt lat="45.00251" lon="4.64695">
        <ele>776</ele>
        <time>2018-10-24T11:46:40+02:00</time>
      </trkpt>
      <trkpt lat="45.00245" lon="4.6469">
        <ele>777</ele>
        <time>2018-10-24T11:46:48+02:00</time>
      </trkpt>
      <trkpt lat="45.00238" lon="4.64683">
        <ele>776</ele>
        <time>2018-10-24T11:46:56+02:00</time>
      </trkpt>
      <trkpt lat="45.00232" lon="4.6468">
        <ele>777</ele>
        <time>2018-10-24T11:47:02+02:00</time>
      </trkpt>
      <trkpt lat="45.00222" lon="4.64673">
        <ele>777</ele>
        <time>2018-10-24T11:47:11+02:00</time>
      </trkpt>
      <trkpt lat="45.00217" lon="4.64666">
        <ele>777</ele>
        <time>2018-10-24T11:47:19+02:00</time>
      </trkpt>
      <trkpt lat="45.00214" lon="4.64657">
        <ele>776</ele>
        <time>2018-10-24T11:47:26+02:00</time>
      </trkpt>
      <trkpt lat="45.0021" lon="4.64647">
        <ele>776</ele>
        <time>2018-10-24T11:47:33+02:00</time>
      </trkpt>
      <trkpt lat="45.00204" lon="4.64635">
        <ele>775</ele>
        <time>2018-10-24T11:47:42+02:00</time>
      </trkpt>
      <trkpt lat="45.00198" lon="4.64622">
        <ele>775</ele>
        <time>2018-10-24T11:47:50+02:00</time>
      </trkpt>
      <trkpt lat="45.00194" lon="4.64616">
        <ele>775</ele>
        <time>2018-10-24T11:47:58+02:00</time>
      </trkpt>
      <trkpt lat="45.0019" lon="4.64616">
        <ele>776</ele>
        <time>2018-10-24T11:48:08+02:00</time>
      </trkpt>
      <trkpt lat="45.00186" lon="4.64608">
        <ele>776</ele>
        <time>2018-10-24T11:48:17+02:00</time>
      </trkpt>
      <trkpt lat="45.00183" lon="4.64602">
        <ele>776</ele>
        <time>2018-10-24T11:48:25+02:00</time>
      </trkpt>
      <trkpt lat="45.00185" lon="4.64599">
        <ele>775</ele>
        <time>2018-10-24T11:48:36+02:00</time>
      </trkpt>
      <trkpt lat="45.00184" lon="4.64598">
        <ele>775</ele>
        <time>2018-10-24T11:48:50+02:00</time>
      </trkpt>
      <trkpt lat="45.00178" lon="4.6459">
        <ele>775</ele>
        <time>2018-10-24T11:49:00+02:00</time>
      </trkpt>
      <trkpt lat="45.00172" lon="4.64583">
        <ele>776</ele>
        <time>2018-10-24T11:49:06+02:00</time>
      </trkpt>
      <trkpt lat="45.00168" lon="4.64575">
        <ele>776</ele>
        <time>2018-10-24T11:49:13+02:00</time>
      </trkpt>
      <trkpt lat="45.00165" lon="4.64568">
        <ele>776</ele>
        <time>2018-10-24T11:49:19+02:00</time>
      </trkpt>
      <trkpt lat="45.00161" lon="4.64561">
        <ele>776</ele>
        <time>2018-10-24T11:49:27+02:00</time>
      </trkpt>
      <trkpt lat="45.00166" lon="4.64568">
        <ele>776</ele>
        <time>2018-10-24T11:49:35+02:00</time>
      </trkpt>
      <trkpt lat="45.00165" lon="4.64567">
        <ele>776</ele>
        <time>2018-10-24T11:49:48+02:00</time>
      </trkpt>
      <trkpt lat="45.00163" lon="4.64564">
        <ele>776</ele>
        <time>2018-10-24T11:50:06+02:00</time>
      </trkpt>
      <trkpt lat="45.00163" lon="4.64564">
        <ele>776</ele>
        <time>2018-10-24T11:50:16+02:00</time>
      </trkpt>
      <trkpt lat="45.00163" lon="4.64564">
        <ele>776</ele>
        <time>2018-10-24T11:50:17+02:00</time>
      </trkpt>
      <trkpt lat="45.00164" lon="4.64564">
        <ele>776</ele>
        <time>2018-10-24T11:50:18+02:00</time>
      </trkpt>
      <trkpt lat="45.00166" lon="4.64562">
        <ele>775</ele>
        <time>2018-10-24T11:50:33+02:00</time>
      </trkpt>
      <trkpt lat="45.00157" lon="4.64556">
        <ele>776</ele>
        <time>2018-10-24T11:50:42+02:00</time>
      </trkpt>
      <trkpt lat="45.00155" lon="4.64552">
        <ele>776</ele>
        <time>2018-10-24T11:50:45+02:00</time>
      </trkpt>
      <trkpt lat="45.00149" lon="4.64543">
        <ele>776</ele>
        <time>2018-10-24T11:50:52+02:00</time>
      </trkpt>
      <trkpt lat="45.00143" lon="4.64535">
        <ele>776</ele>
        <time>2018-10-24T11:51:00+02:00</time>
      </trkpt>
      <trkpt lat="45.00134" lon="4.64525">
        <ele>776</ele>
        <time>2018-10-24T11:51:08+02:00</time>
      </trkpt>
      <trkpt lat="45.00126" lon="4.64517">
        <ele>776</ele>
        <time>2018-10-24T11:51:15+02:00</time>
      </trkpt>
      <trkpt lat="45.00123" lon="4.64515">
        <ele>776</ele>
        <time>2018-10-24T11:51:17+02:00</time>
      </trkpt>
      <trkpt lat="45.00114" lon="4.6451">
        <ele>777</ele>
        <time>2018-10-24T11:51:24+02:00</time>
      </trkpt>
      <trkpt lat="45.00101" lon="4.64504">
        <ele>777</ele>
        <time>2018-10-24T11:51:32+02:00</time>
      </trkpt>
      <trkpt lat="45.0009" lon="4.64496">
        <ele>777</ele>
        <time>2018-10-24T11:51:40+02:00</time>
      </trkpt>
      <trkpt lat="45.00079" lon="4.64489">
        <ele>777</ele>
        <time>2018-10-24T11:51:48+02:00</time>
      </trkpt>
      <trkpt lat="45.00078" lon="4.64485">
        <ele>777</ele>
        <time>2018-10-24T11:51:57+02:00</time>
      </trkpt>
      <trkpt lat="45.00078" lon="4.64485">
        <ele>777</ele>
        <time>2018-10-24T11:52:10+02:00</time>
      </trkpt>
      <trkpt lat="45.00078" lon="4.64485">
        <ele>777</ele>
        <time>2018-10-24T11:52:23+02:00</time>
      </trkpt>
      <trkpt lat="45.0008" lon="4.64484">
        <ele>776</ele>
        <time>2018-10-24T11:52:35+02:00</time>
      </trkpt>
      <trkpt lat="45.0008" lon="4.6448">
        <ele>776</ele>
        <time>2018-10-24T11:52:49+02:00</time>
      </trkpt>
      <trkpt lat="45.00075" lon="4.64484">
        <ele>777</ele>
        <time>2018-10-24T11:53:04+02:00</time>
      </trkpt>
      <trkpt lat="45.00067" lon="4.64487">
        <ele>777</ele>
        <time>2018-10-24T11:53:11+02:00</time>
      </trkpt>
      <trkpt lat="45.00066" lon="4.64486">
        <ele>777</ele>
        <time>2018-10-24T11:53:12+02:00</time>
      </trkpt>
      <trkpt lat="45.00057" lon="4.64485">
        <ele>777</ele>
        <time>2018-10-24T11:53:20+02:00</time>
      </trkpt>
      <trkpt lat="45.0005" lon="4.64486">
        <ele>778</ele>
        <time>2018-10-24T11:53:26+02:00</time>
      </trkpt>
      <trkpt lat="45.00042" lon="4.64488">
        <ele>778</ele>
        <time>2018-10-24T11:53:33+02:00</time>
      </trkpt>
      <trkpt lat="45.00028" lon="4.64492">
        <ele>779</ele>
        <time>2018-10-24T11:53:43+02:00</time>
      </trkpt>
      <trkpt lat="45.00021" lon="4.645">
        <ele>781</ele>
        <time>2018-10-24T11:53:51+02:00</time>
      </trkpt>
      <trkpt lat="45.00019" lon="4.645">
        <ele>781</ele>
        <time>2018-10-24T11:53:53+02:00</time>
      </trkpt>
      <trkpt lat="45.00017" lon="4.64502">
        <ele>782</ele>
        <time>2018-10-24T11:53:55+02:00</time>
      </trkpt>
      <trkpt lat="45.00004" lon="4.64509">
        <ele>783</ele>
        <time>2018-10-24T11:54:03+02:00</time>
      </trkpt>
      <trkpt lat="44.99993" lon="4.64506">
        <ele>784</ele>
        <time>2018-10-24T11:54:11+02:00</time>
      </trkpt>
      <trkpt lat="44.99984" lon="4.64501">
        <ele>784</ele>
        <time>2018-10-24T11:54:18+02:00</time>
      </trkpt>
      <trkpt lat="44.99977" lon="4.64497">
        <ele>784</ele>
        <time>2018-10-24T11:54:25+02:00</time>
      </trkpt>
      <trkpt lat="44.99975" lon="4.64496">
        <ele>784</ele>
        <time>2018-10-24T11:54:26+02:00</time>
      </trkpt>
      <trkpt lat="44.99965" lon="4.64489">
        <ele>784</ele>
        <time>2018-10-24T11:54:35+02:00</time>
      </trkpt>
      <trkpt lat="44.99959" lon="4.64486">
        <ele>784</ele>
        <time>2018-10-24T11:54:41+02:00</time>
      </trkpt>
      <trkpt lat="44.99959" lon="4.64486">
        <ele>784</ele>
        <time>2018-10-24T11:54:48+02:00</time>
      </trkpt>
      <trkpt lat="44.99956" lon="4.64481">
        <ele>783</ele>
        <time>2018-10-24T11:54:54+02:00</time>
      </trkpt>
      <trkpt lat="44.99957" lon="4.64478">
        <ele>783</ele>
        <time>2018-10-24T11:55:08+02:00</time>
      </trkpt>
      <trkpt lat="44.99954" lon="4.64477">
        <ele>783</ele>
        <time>2018-10-24T11:55:15+02:00</time>
      </trkpt>
      <trkpt lat="44.99955" lon="4.64478">
        <ele>783</ele>
        <time>2018-10-24T11:55:26+02:00</time>
      </trkpt>
      <trkpt lat="44.99953" lon="4.64478">
        <ele>783</ele>
        <time>2018-10-24T11:55:28+02:00</time>
      </trkpt>
      <trkpt lat="44.99946" lon="4.64482">
        <ele>785</ele>
        <time>2018-10-24T11:55:33+02:00</time>
      </trkpt>
      <trkpt lat="44.99938" lon="4.64486">
        <ele>786</ele>
        <time>2018-10-24T11:55:41+02:00</time>
      </trkpt>
      <trkpt lat="44.99938" lon="4.64486">
        <ele>786</ele>
        <time>2018-10-24T11:55:52+02:00</time>
      </trkpt>
      <trkpt lat="44.99934" lon="4.64487">
        <ele>787</ele>
        <time>2018-10-24T11:56:01+02:00</time>
      </trkpt>
      <trkpt lat="44.99932" lon="4.6449">
        <ele>788</ele>
        <time>2018-10-24T11:56:04+02:00</time>
      </trkpt>
      <trkpt lat="44.99927" lon="4.64496">
        <ele>790</ele>
        <time>2018-10-24T11:56:11+02:00</time>
      </trkpt>
      <trkpt lat="44.99925" lon="4.64497">
        <ele>790</ele>
        <time>2018-10-24T11:56:17+02:00</time>
      </trkpt>
      <trkpt lat="44.99916" lon="4.64495">
        <ele>791</ele>
        <time>2018-10-24T11:56:26+02:00</time>
      </trkpt>
      <trkpt lat="44.9991" lon="4.64496">
        <ele>792</ele>
        <time>2018-10-24T11:56:33+02:00</time>
      </trkpt>
      <trkpt lat="44.99909" lon="4.64496">
        <ele>792</ele>
        <time>2018-10-24T11:56:34+02:00</time>
      </trkpt>
      <trkpt lat="44.99906" lon="4.64495">
        <ele>792</ele>
        <time>2018-10-24T11:56:39+02:00</time>
      </trkpt>
      <trkpt lat="44.99897" lon="4.64486">
        <ele>792</ele>
        <time>2018-10-24T11:56:48+02:00</time>
      </trkpt>
      <trkpt lat="44.9989" lon="4.64482">
        <ele>792</ele>
        <time>2018-10-24T11:56:55+02:00</time>
      </trkpt>
      <trkpt lat="44.99882" lon="4.64477">
        <ele>792</ele>
        <time>2018-10-24T11:57:03+02:00</time>
      </trkpt>
      <trkpt lat="44.99872" lon="4.64474">
        <ele>792</ele>
        <time>2018-10-24T11:57:10+02:00</time>
      </trkpt>
      <trkpt lat="44.99864" lon="4.64471">
        <ele>793</ele>
        <time>2018-10-24T11:57:16+02:00</time>
      </trkpt>
      <trkpt lat="44.99859" lon="4.64467">
        <ele>793</ele>
        <time>2018-10-24T11:57:20+02:00</time>
      </trkpt>
      <trkpt lat="44.99849" lon="4.64451">
        <ele>790</ele>
        <time>2018-10-24T11:57:30+02:00</time>
      </trkpt>
      <trkpt lat="44.99843" lon="4.64436">
        <ele>788</ele>
        <time>2018-10-24T11:57:38+02:00</time>
      </trkpt>
      <trkpt lat="44.99835" lon="4.64422">
        <ele>786</ele>
        <time>2018-10-24T11:57:47+02:00</time>
      </trkpt>
      <trkpt lat="44.99829" lon="4.64409">
        <ele>785</ele>
        <time>2018-10-24T11:57:56+02:00</time>
      </trkpt>
      <trkpt lat="44.99823" lon="4.64399">
        <ele>784</ele>
        <time>2018-10-24T11:58:02+02:00</time>
      </trkpt>
      <trkpt lat="44.99821" lon="4.64396">
        <ele>784</ele>
        <time>2018-10-24T11:58:04+02:00</time>
      </trkpt>
      <trkpt lat="44.99812" lon="4.64384">
        <ele>784</ele>
        <time>2018-10-24T11:58:13+02:00</time>
      </trkpt>
      <trkpt lat="44.99809" lon="4.64377">
        <ele>783</ele>
        <time>2018-10-24T11:58:19+02:00</time>
      </trkpt>
      <trkpt lat="44.99798" lon="4.64368">
        <ele>784</ele>
        <time>2018-10-24T11:58:28+02:00</time>
      </trkpt>
      <trkpt lat="44.99797" lon="4.64367">
        <ele>784</ele>
        <time>2018-10-24T11:58:29+02:00</time>
      </trkpt>
      <trkpt lat="44.99787" lon="4.64353">
        <ele>783</ele>
        <time>2018-10-24T11:58:37+02:00</time>
      </trkpt>
      <trkpt lat="44.99781" lon="4.64335">
        <ele>782</ele>
        <time>2018-10-24T11:58:46+02:00</time>
      </trkpt>
      <trkpt lat="44.99774" lon="4.64324">
        <ele>781</ele>
        <time>2018-10-24T11:58:55+02:00</time>
      </trkpt>
      <trkpt lat="44.99766" lon="4.64317">
        <ele>781</ele>
        <time>2018-10-24T11:59:03+02:00</time>
      </trkpt>
      <trkpt lat="44.99756" lon="4.64306">
        <ele>781</ele>
        <time>2018-10-24T11:59:12+02:00</time>
      </trkpt>
      <trkpt lat="44.99742" lon="4.64295">
        <ele>781</ele>
        <time>2018-10-24T11:59:22+02:00</time>
      </trkpt>
      <trkpt lat="44.99729" lon="4.64287">
        <ele>781</ele>
        <time>2018-10-24T11:59:32+02:00</time>
      </trkpt>
      <trkpt lat="44.9972" lon="4.6428">
        <ele>781</ele>
        <time>2018-10-24T11:59:39+02:00</time>
      </trkpt>
      <trkpt lat="44.99718" lon="4.64279">
        <ele>782</ele>
        <time>2018-10-24T11:59:40+02:00</time>
      </trkpt>
      <trkpt lat="44.99707" lon="4.64269">
        <ele>782</ele>
        <time>2018-10-24T11:59:49+02:00</time>
      </trkpt>
      <trkpt lat="44.99698" lon="4.6426">
        <ele>782</ele>
        <time>2018-10-24T11:59:57+02:00</time>
      </trkpt>
      <trkpt lat="44.9969" lon="4.64253">
        <ele>782</ele>
        <time>2018-10-24T12:00:04+02:00</time>
      </trkpt>
      <trkpt lat="44.99684" lon="4.64249">
        <ele>782</ele>
        <time>2018-10-24T12:00:09+02:00</time>
      </trkpt>
      <trkpt lat="44.99673" lon="4.64241">
        <ele>782</ele>
        <time>2018-10-24T12:00:18+02:00</time>
      </trkpt>
      <trkpt lat="44.99663" lon="4.64238">
        <ele>782</ele>
        <time>2018-10-24T12:00:25+02:00</time>
      </trkpt>
      <trkpt lat="44.99651" lon="4.64239">
        <ele>782</ele>
        <time>2018-10-24T12:00:33+02:00</time>
      </trkpt>
      <trkpt lat="44.99636" lon="4.64241">
        <ele>782</ele>
        <time>2018-10-24T12:00:42+02:00</time>
      </trkpt>
      <trkpt lat="44.99627" lon="4.64242">
        <ele>782</ele>
        <time>2018-10-24T12:00:50+02:00</time>
      </trkpt>
      <trkpt lat="44.99617" lon="4.64238">
        <ele>781</ele>
        <time>2018-10-24T12:00:59+02:00</time>
      </trkpt>
      <trkpt lat="44.9961" lon="4.64238">
        <ele>781</ele>
        <time>2018-10-24T12:01:03+02:00</time>
      </trkpt>
      <trkpt lat="44.99599" lon="4.64236">
        <ele>780</ele>
        <time>2018-10-24T12:01:10+02:00</time>
      </trkpt>
      <trkpt lat="44.99589" lon="4.64234">
        <ele>779</ele>
        <time>2018-10-24T12:01:16+02:00</time>
      </trkpt>
      <trkpt lat="44.99586" lon="4.64234">
        <ele>779</ele>
        <time>2018-10-24T12:01:18+02:00</time>
      </trkpt>
      <trkpt lat="44.99573" lon="4.64238">
        <ele>779</ele>
        <time>2018-10-24T12:01:27+02:00</time>
      </trkpt>
      <trkpt lat="44.99562" lon="4.64243">
        <ele>780</ele>
        <time>2018-10-24T12:01:34+02:00</time>
      </trkpt>
      <trkpt lat="44.99548" lon="4.64253">
        <ele>781</ele>
        <time>2018-10-24T12:01:44+02:00</time>
      </trkpt>
      <trkpt lat="44.99537" lon="4.6426">
        <ele>781</ele>
        <time>2018-10-24T12:01:53+02:00</time>
      </trkpt>
      <trkpt lat="44.99525" lon="4.64269">
        <ele>781</ele>
        <time>2018-10-24T12:02:03+02:00</time>
      </trkpt>
      <trkpt lat="44.99516" lon="4.64274">
        <ele>781</ele>
        <time>2018-10-24T12:02:10+02:00</time>
      </trkpt>
      <trkpt lat="44.99506" lon="4.64281">
        <ele>781</ele>
        <time>2018-10-24T12:02:18+02:00</time>
      </trkpt>
      <trkpt lat="44.99495" lon="4.64289">
        <ele>781</ele>
        <time>2018-10-24T12:02:27+02:00</time>
      </trkpt>
      <trkpt lat="44.99487" lon="4.64293">
        <ele>781</ele>
        <time>2018-10-24T12:02:34+02:00</time>
      </trkpt>
      <trkpt lat="44.99475" lon="4.64302">
        <ele>781</ele>
        <time>2018-10-24T12:02:43+02:00</time>
      </trkpt>
      <trkpt lat="44.99461" lon="4.64311">
        <ele>780</ele>
        <time>2018-10-24T12:02:53+02:00</time>
      </trkpt>
      <trkpt lat="44.99449" lon="4.64318">
        <ele>779</ele>
        <time>2018-10-24T12:03:03+02:00</time>
      </trkpt>
      <trkpt lat="44.99447" lon="4.6432">
        <ele>779</ele>
        <time>2018-10-24T12:03:08+02:00</time>
      </trkpt>
      <trkpt lat="44.9944" lon="4.6431">
        <ele>779</ele>
        <time>2018-10-24T12:03:16+02:00</time>
      </trkpt>
      <trkpt lat="44.9944" lon="4.64308">
        <ele>779</ele>
        <time>2018-10-24T12:03:17+02:00</time>
      </trkpt>
      <trkpt lat="44.99438" lon="4.64298">
        <ele>779</ele>
        <time>2018-10-24T12:03:24+02:00</time>
      </trkpt>
      <trkpt lat="44.99438" lon="4.64293">
        <ele>779</ele>
        <time>2018-10-24T12:03:27+02:00</time>
      </trkpt>
      <trkpt lat="44.99436" lon="4.64284">
        <ele>779</ele>
        <time>2018-10-24T12:03:32+02:00</time>
      </trkpt>
      <trkpt lat="44.9943" lon="4.64272">
        <ele>780</ele>
        <time>2018-10-24T12:03:39+02:00</time>
      </trkpt>
      <trkpt lat="44.99422" lon="4.64261">
        <ele>780</ele>
        <time>2018-10-24T12:03:47+02:00</time>
      </trkpt>
      <trkpt lat="44.99415" lon="4.64254">
        <ele>781</ele>
        <time>2018-10-24T12:03:55+02:00</time>
      </trkpt>
      <trkpt lat="44.99406" lon="4.64247">
        <ele>781</ele>
        <time>2018-10-24T12:04:01+02:00</time>
      </trkpt>
      <trkpt lat="44.99403" lon="4.64242">
        <ele>781</ele>
        <time>2018-10-24T12:04:05+02:00</time>
      </trkpt>
      <trkpt lat="44.99402" lon="4.6424">
        <ele>781</ele>
        <time>2018-10-24T12:04:06+02:00</time>
      </trkpt>
      <trkpt lat="44.99401" lon="4.64236">
        <ele>781</ele>
        <time>2018-10-24T12:04:13+02:00</time>
      </trkpt>
      <trkpt lat="44.99401" lon="4.6424">
        <ele>781</ele>
        <time>2018-10-24T12:04:24+02:00</time>
      </trkpt>
      <trkpt lat="44.99401" lon="4.64239">
        <ele>781</ele>
        <time>2018-10-24T12:04:42+02:00</time>
      </trkpt>
      <trkpt lat="44.99401" lon="4.64239">
        <ele>781</ele>
        <time>2018-10-24T12:04:59+02:00</time>
      </trkpt>
      <trkpt lat="44.99401" lon="4.6424">
        <ele>781</ele>
        <time>2018-10-24T12:05:13+02:00</time>
      </trkpt>
      <trkpt lat="44.994" lon="4.64238">
        <ele>781</ele>
        <time>2018-10-24T12:05:33+02:00</time>
      </trkpt>
      <trkpt lat="44.99399" lon="4.64238">
        <ele>781</ele>
        <time>2018-10-24T12:05:49+02:00</time>
      </trkpt>
      <trkpt lat="44.99402" lon="4.6424">
        <ele>781</ele>
        <time>2018-10-24T12:06:06+02:00</time>
      </trkpt>
      <trkpt lat="44.99401" lon="4.64239">
        <ele>781</ele>
        <time>2018-10-24T12:06:22+02:00</time>
      </trkpt>
      <trkpt lat="44.99401" lon="4.64238">
        <ele>781</ele>
        <time>2018-10-24T12:06:42+02:00</time>
      </trkpt>
      <trkpt lat="44.99401" lon="4.64237">
        <ele>781</ele>
        <time>2018-10-24T12:06:58+02:00</time>
      </trkpt>
      <trkpt lat="44.99402" lon="4.64238">
        <ele>781</ele>
        <time>2018-10-24T12:07:23+02:00</time>
      </trkpt>
      <trkpt lat="44.99402" lon="4.64236">
        <ele>781</ele>
        <time>2018-10-24T12:07:46+02:00</time>
      </trkpt>
      <trkpt lat="44.99402" lon="4.64238">
        <ele>781</ele>
        <time>2018-10-24T12:08:01+02:00</time>
      </trkpt>
      <trkpt lat="44.994" lon="4.64238">
        <ele>781</ele>
        <time>2018-10-24T12:08:20+02:00</time>
      </trkpt>
      <trkpt lat="44.99401" lon="4.64239">
        <ele>781</ele>
        <time>2018-10-24T12:08:39+02:00</time>
      </trkpt>
      <trkpt lat="44.99401" lon="4.64238">
        <ele>781</ele>
        <time>2018-10-24T12:08:57+02:00</time>
      </trkpt>
      <trkpt lat="44.99401" lon="4.64239">
        <ele>781</ele>
        <time>2018-10-24T12:09:18+02:00</time>
      </trkpt>
      <trkpt lat="44.994" lon="4.64237">
        <ele>781</ele>
        <time>2018-10-24T12:09:31+02:00</time>
      </trkpt>
      <trkpt lat="44.99398" lon="4.64237">
        <ele>781</ele>
        <time>2018-10-24T12:09:43+02:00</time>
      </trkpt>
      <trkpt lat="44.99398" lon="4.6424">
        <ele>781</ele>
        <time>2018-10-24T12:10:02+02:00</time>
      </trkpt>
      <trkpt lat="44.99396" lon="4.64239">
        <ele>781</ele>
        <time>2018-10-24T12:10:13+02:00</time>
      </trkpt>
      <trkpt lat="44.99392" lon="4.64236">
        <ele>781</ele>
        <time>2018-10-24T12:10:26+02:00</time>
      </trkpt>
      <trkpt lat="44.99391" lon="4.64236">
        <ele>781</ele>
        <time>2018-10-24T12:10:27+02:00</time>
      </trkpt>
      <trkpt lat="44.99389" lon="4.64232">
        <ele>781</ele>
        <time>2018-10-24T12:10:30+02:00</time>
      </trkpt>
      <trkpt lat="44.9938" lon="4.64225">
        <ele>781</ele>
        <time>2018-10-24T12:10:39+02:00</time>
      </trkpt>
      <trkpt lat="44.99379" lon="4.64224">
        <ele>781</ele>
        <time>2018-10-24T12:10:40+02:00</time>
      </trkpt>
      <trkpt lat="44.99371" lon="4.64218">
        <ele>781</ele>
        <time>2018-10-24T12:10:48+02:00</time>
      </trkpt>
      <trkpt lat="44.99359" lon="4.64214">
        <ele>781</ele>
        <time>2018-10-24T12:10:59+02:00</time>
      </trkpt>
      <trkpt lat="44.99352" lon="4.64212">
        <ele>781</ele>
        <time>2018-10-24T12:11:04+02:00</time>
      </trkpt>
      <trkpt lat="44.99342" lon="4.64215">
        <ele>780</ele>
        <time>2018-10-24T12:11:12+02:00</time>
      </trkpt>
      <trkpt lat="44.9933" lon="4.64215">
        <ele>779</ele>
        <time>2018-10-24T12:11:21+02:00</time>
      </trkpt>
      <trkpt lat="44.99328" lon="4.64214">
        <ele>779</ele>
        <time>2018-10-24T12:11:23+02:00</time>
      </trkpt>
      <trkpt lat="44.9932" lon="4.64205">
        <ele>779</ele>
        <time>2018-10-24T12:11:33+02:00</time>
      </trkpt>
      <trkpt lat="44.99317" lon="4.64198">
        <ele>779</ele>
        <time>2018-10-24T12:11:38+02:00</time>
      </trkpt>
      <trkpt lat="44.99312" lon="4.64181">
        <ele>780</ele>
        <time>2018-10-24T12:11:48+02:00</time>
      </trkpt>
      <trkpt lat="44.99312" lon="4.64167">
        <ele>781</ele>
        <time>2018-10-24T12:11:56+02:00</time>
      </trkpt>
      <trkpt lat="44.99311" lon="4.64147">
        <ele>782</ele>
        <time>2018-10-24T12:12:06+02:00</time>
      </trkpt>
      <trkpt lat="44.99309" lon="4.64127">
        <ele>782</ele>
        <time>2018-10-24T12:12:16+02:00</time>
      </trkpt>
      <trkpt lat="44.99305" lon="4.64114">
        <ele>782</ele>
        <time>2018-10-24T12:12:24+02:00</time>
      </trkpt>
      <trkpt lat="44.99302" lon="4.641">
        <ele>783</ele>
        <time>2018-10-24T12:12:32+02:00</time>
      </trkpt>
      <trkpt lat="44.99298" lon="4.64088">
        <ele>783</ele>
        <time>2018-10-24T12:12:41+02:00</time>
      </trkpt>
      <trkpt lat="44.99286" lon="4.64079">
        <ele>784</ele>
        <time>2018-10-24T12:12:51+02:00</time>
      </trkpt>
      <trkpt lat="44.99282" lon="4.64077">
        <ele>784</ele>
        <time>2018-10-24T12:12:54+02:00</time>
      </trkpt>
      <trkpt lat="44.99277" lon="4.64072">
        <ele>784</ele>
        <time>2018-10-24T12:13:03+02:00</time>
      </trkpt>
      <trkpt lat="44.99276" lon="4.64071">
        <ele>784</ele>
        <time>2018-10-24T12:13:04+02:00</time>
      </trkpt>
      <trkpt lat="44.9926" lon="4.64064">
        <ele>785</ele>
        <time>2018-10-24T12:13:14+02:00</time>
      </trkpt>
      <trkpt lat="44.99251" lon="4.64061">
        <ele>786</ele>
        <time>2018-10-24T12:13:20+02:00</time>
      </trkpt>
      <trkpt lat="44.9924" lon="4.64057">
        <ele>787</ele>
        <time>2018-10-24T12:13:28+02:00</time>
      </trkpt>
      <trkpt lat="44.99226" lon="4.64057">
        <ele>789</ele>
        <time>2018-10-24T12:13:37+02:00</time>
      </trkpt>
      <trkpt lat="44.99219" lon="4.64056">
        <ele>790</ele>
        <time>2018-10-24T12:13:44+02:00</time>
      </trkpt>
      <trkpt lat="44.9921" lon="4.64051">
        <ele>791</ele>
        <time>2018-10-24T12:13:53+02:00</time>
      </trkpt>
      <trkpt lat="44.992" lon="4.64051">
        <ele>792</ele>
        <time>2018-10-24T12:14:01+02:00</time>
      </trkpt>
      <trkpt lat="44.99192" lon="4.64052">
        <ele>793</ele>
        <time>2018-10-24T12:14:09+02:00</time>
      </trkpt>
      <trkpt lat="44.99186" lon="4.64058">
        <ele>793</ele>
        <time>2018-10-24T12:14:19+02:00</time>
      </trkpt>
      <trkpt lat="44.99176" lon="4.64067">
        <ele>793</ele>
        <time>2018-10-24T12:14:31+02:00</time>
      </trkpt>
      <trkpt lat="44.99173" lon="4.6407">
        <ele>793</ele>
        <time>2018-10-24T12:14:34+02:00</time>
      </trkpt>
      <trkpt lat="44.99166" lon="4.64074">
        <ele>793</ele>
        <time>2018-10-24T12:14:45+02:00</time>
      </trkpt>
      <trkpt lat="44.99158" lon="4.64076">
        <ele>794</ele>
        <time>2018-10-24T12:14:56+02:00</time>
      </trkpt>
      <trkpt lat="44.99145" lon="4.64082">
        <ele>796</ele>
        <time>2018-10-24T12:15:07+02:00</time>
      </trkpt>
      <trkpt lat="44.9914" lon="4.64082">
        <ele>797</ele>
        <time>2018-10-24T12:15:11+02:00</time>
      </trkpt>
      <trkpt lat="44.99128" lon="4.64089">
        <ele>798</ele>
        <time>2018-10-24T12:15:20+02:00</time>
      </trkpt>
      <trkpt lat="44.9912" lon="4.64096">
        <ele>800</ele>
        <time>2018-10-24T12:15:29+02:00</time>
      </trkpt>
      <trkpt lat="44.99116" lon="4.64101">
        <ele>800</ele>
        <time>2018-10-24T12:15:37+02:00</time>
      </trkpt>
      <trkpt lat="44.99112" lon="4.64104">
        <ele>801</ele>
        <time>2018-10-24T12:15:43+02:00</time>
      </trkpt>
      <trkpt lat="44.99107" lon="4.64111">
        <ele>802</ele>
        <time>2018-10-24T12:15:51+02:00</time>
      </trkpt>
      <trkpt lat="44.99099" lon="4.6412">
        <ele>803</ele>
        <time>2018-10-24T12:15:58+02:00</time>
      </trkpt>
      <trkpt lat="44.9909" lon="4.64127">
        <ele>805</ele>
        <time>2018-10-24T12:16:05+02:00</time>
      </trkpt>
      <trkpt lat="44.9908" lon="4.64138">
        <ele>806</ele>
        <time>2018-10-24T12:16:13+02:00</time>
      </trkpt>
      <trkpt lat="44.9907" lon="4.6415">
        <ele>804</ele>
        <time>2018-10-24T12:16:23+02:00</time>
      </trkpt>
      <trkpt lat="44.9906" lon="4.6416">
        <ele>803</ele>
        <time>2018-10-24T12:16:31+02:00</time>
      </trkpt>
      <trkpt lat="44.99052" lon="4.64169">
        <ele>801</ele>
        <time>2018-10-24T12:16:39+02:00</time>
      </trkpt>
      <trkpt lat="44.99043" lon="4.6418">
        <ele>800</ele>
        <time>2018-10-24T12:16:48+02:00</time>
      </trkpt>
      <trkpt lat="44.99033" lon="4.64193">
        <ele>798</ele>
        <time>2018-10-24T12:16:58+02:00</time>
      </trkpt>
      <trkpt lat="44.99028" lon="4.64199">
        <ele>797</ele>
        <time>2018-10-24T12:17:03+02:00</time>
      </trkpt>
      <trkpt lat="44.99017" lon="4.64208">
        <ele>796</ele>
        <time>2018-10-24T12:17:12+02:00</time>
      </trkpt>
      <trkpt lat="44.99015" lon="4.64208">
        <ele>796</ele>
        <time>2018-10-24T12:17:15+02:00</time>
      </trkpt>
      <trkpt lat="44.99011" lon="4.64211">
        <ele>795</ele>
        <time>2018-10-24T12:17:22+02:00</time>
      </trkpt>
      <trkpt lat="44.9901" lon="4.64213">
        <ele>795</ele>
        <time>2018-10-24T12:17:24+02:00</time>
      </trkpt>
      <trkpt lat="44.99006" lon="4.64214">
        <ele>795</ele>
        <time>2018-10-24T12:17:27+02:00</time>
      </trkpt>
      <trkpt lat="44.99001" lon="4.64213">
        <ele>795</ele>
        <time>2018-10-24T12:17:32+02:00</time>
      </trkpt>
      <trkpt lat="44.98997" lon="4.64211">
        <ele>794</ele>
        <time>2018-10-24T12:17:37+02:00</time>
      </trkpt>
      <trkpt lat="44.98994" lon="4.64201">
        <ele>793</ele>
        <time>2018-10-24T12:17:44+02:00</time>
      </trkpt>
      <trkpt lat="44.98995" lon="4.64189">
        <ele>794</ele>
        <time>2018-10-24T12:17:52+02:00</time>
      </trkpt>
      <trkpt lat="44.98996" lon="4.64179">
        <ele>795</ele>
        <time>2018-10-24T12:18:00+02:00</time>
      </trkpt>
      <trkpt lat="44.98994" lon="4.64155">
        <ele>795</ele>
        <time>2018-10-24T12:18:13+02:00</time>
      </trkpt>
      <trkpt lat="44.98991" lon="4.64141">
        <ele>794</ele>
        <time>2018-10-24T12:18:23+02:00</time>
      </trkpt>
      <trkpt lat="44.98988" lon="4.64129">
        <ele>794</ele>
        <time>2018-10-24T12:18:30+02:00</time>
      </trkpt>
      <trkpt lat="44.98988" lon="4.64116">
        <ele>795</ele>
        <time>2018-10-24T12:18:37+02:00</time>
      </trkpt>
      <trkpt lat="44.98984" lon="4.64106">
        <ele>794</ele>
        <time>2018-10-24T12:18:45+02:00</time>
      </trkpt>
      <trkpt lat="44.98976" lon="4.64097">
        <ele>792</ele>
        <time>2018-10-24T12:18:52+02:00</time>
      </trkpt>
      <trkpt lat="44.98966" lon="4.64089">
        <ele>789</ele>
        <time>2018-10-24T12:19:01+02:00</time>
      </trkpt>
      <trkpt lat="44.98957" lon="4.64077">
        <ele>787</ele>
        <time>2018-10-24T12:19:10+02:00</time>
      </trkpt>
      <trkpt lat="44.98951" lon="4.6407">
        <ele>786</ele>
        <time>2018-10-24T12:19:17+02:00</time>
      </trkpt>
      <trkpt lat="44.98948" lon="4.64062">
        <ele>786</ele>
        <time>2018-10-24T12:19:27+02:00</time>
      </trkpt>
      <trkpt lat="44.9894" lon="4.64058">
        <ele>784</ele>
        <time>2018-10-24T12:19:35+02:00</time>
      </trkpt>
      <trkpt lat="44.98929" lon="4.64044">
        <ele>782</ele>
        <time>2018-10-24T12:19:46+02:00</time>
      </trkpt>
      <trkpt lat="44.98919" lon="4.64034">
        <ele>780</ele>
        <time>2018-10-24T12:19:57+02:00</time>
      </trkpt>
      <trkpt lat="44.98907" lon="4.64026">
        <ele>776</ele>
        <time>2018-10-24T12:20:07+02:00</time>
      </trkpt>
      <trkpt lat="44.98906" lon="4.64021">
        <ele>776</ele>
        <time>2018-10-24T12:20:15+02:00</time>
      </trkpt>
      <trkpt lat="44.98903" lon="4.64026">
        <ele>775</ele>
        <time>2018-10-24T12:20:26+02:00</time>
      </trkpt>
      <trkpt lat="44.98901" lon="4.64033">
        <ele>774</ele>
        <time>2018-10-24T12:20:38+02:00</time>
      </trkpt>
      <trkpt lat="44.98896" lon="4.64037">
        <ele>771</ele>
        <time>2018-10-24T12:20:45+02:00</time>
      </trkpt>
      <trkpt lat="44.98896" lon="4.64048">
        <ele>771</ele>
        <time>2018-10-24T12:20:53+02:00</time>
      </trkpt>
      <trkpt lat="44.98899" lon="4.64055">
        <ele>771</ele>
        <time>2018-10-24T12:21:00+02:00</time>
      </trkpt>
      <trkpt lat="44.98904" lon="4.64063">
        <ele>772</ele>
        <time>2018-10-24T12:21:09+02:00</time>
      </trkpt>
      <trkpt lat="44.98909" lon="4.64075">
        <ele>772</ele>
        <time>2018-10-24T12:21:17+02:00</time>
      </trkpt>
      <trkpt lat="44.98914" lon="4.64089">
        <ele>772</ele>
        <time>2018-10-24T12:21:26+02:00</time>
      </trkpt>
      <trkpt lat="44.98914" lon="4.64093">
        <ele>772</ele>
        <time>2018-10-24T12:21:29+02:00</time>
      </trkpt>
      <trkpt lat="44.98909" lon="4.641">
        <ele>770</ele>
        <time>2018-10-24T12:21:35+02:00</time>
      </trkpt>
      <trkpt lat="44.98902" lon="4.64101">
        <ele>768</ele>
        <time>2018-10-24T12:21:43+02:00</time>
      </trkpt>
      <trkpt lat="44.98899" lon="4.64103">
        <ele>767</ele>
        <time>2018-10-24T12:21:50+02:00</time>
      </trkpt>
      <trkpt lat="44.98901" lon="4.64103">
        <ele>768</ele>
        <time>2018-10-24T12:22:05+02:00</time>
      </trkpt>
      <trkpt lat="44.98898" lon="4.64103">
        <ele>767</ele>
        <time>2018-10-24T12:22:19+02:00</time>
      </trkpt>
      <trkpt lat="44.98893" lon="4.64108">
        <ele>766</ele>
        <time>2018-10-24T12:22:25+02:00</time>
      </trkpt>
      <trkpt lat="44.98893" lon="4.64109">
        <ele>765</ele>
        <time>2018-10-24T12:22:26+02:00</time>
      </trkpt>
      <trkpt lat="44.9889" lon="4.64111">
        <ele>765</ele>
        <time>2018-10-24T12:22:32+02:00</time>
      </trkpt>
      <trkpt lat="44.98881" lon="4.64121">
        <ele>762</ele>
        <time>2018-10-24T12:22:41+02:00</time>
      </trkpt>
      <trkpt lat="44.98874" lon="4.64131">
        <ele>760</ele>
        <time>2018-10-24T12:22:49+02:00</time>
      </trkpt>
      <trkpt lat="44.98866" lon="4.64149">
        <ele>757</ele>
        <time>2018-10-24T12:22:59+02:00</time>
      </trkpt>
      <trkpt lat="44.98861" lon="4.64167">
        <ele>756</ele>
        <time>2018-10-24T12:23:08+02:00</time>
      </trkpt>
      <trkpt lat="44.98855" lon="4.64178">
        <ele>754</ele>
        <time>2018-10-24T12:23:16+02:00</time>
      </trkpt>
      <trkpt lat="44.98848" lon="4.6419">
        <ele>752</ele>
        <time>2018-10-24T12:23:25+02:00</time>
      </trkpt>
      <trkpt lat="44.98838" lon="4.64197">
        <ele>749</ele>
        <time>2018-10-24T12:23:34+02:00</time>
      </trkpt>
      <trkpt lat="44.98831" lon="4.64203">
        <ele>748</ele>
        <time>2018-10-24T12:23:41+02:00</time>
      </trkpt>
      <trkpt lat="44.98823" lon="4.64209">
        <ele>748</ele>
        <time>2018-10-24T12:23:48+02:00</time>
      </trkpt>
      <trkpt lat="44.98816" lon="4.64217">
        <ele>748</ele>
        <time>2018-10-24T12:23:55+02:00</time>
      </trkpt>
      <trkpt lat="44.98808" lon="4.64225">
        <ele>748</ele>
        <time>2018-10-24T12:24:04+02:00</time>
      </trkpt>
      <trkpt lat="44.988" lon="4.64234">
        <ele>748</ele>
        <time>2018-10-24T12:24:13+02:00</time>
      </trkpt>
      <trkpt lat="44.98791" lon="4.64246">
        <ele>748</ele>
        <time>2018-10-24T12:24:24+02:00</time>
      </trkpt>
      <trkpt lat="44.98781" lon="4.64255">
        <ele>747</ele>
        <time>2018-10-24T12:24:33+02:00</time>
      </trkpt>
      <trkpt lat="44.98772" lon="4.64265">
        <ele>746</ele>
        <time>2018-10-24T12:24:42+02:00</time>
      </trkpt>
      <trkpt lat="44.98766" lon="4.64274">
        <ele>744</ele>
        <time>2018-10-24T12:24:49+02:00</time>
      </trkpt>
      <trkpt lat="44.98758" lon="4.64287">
        <ele>742</ele>
        <time>2018-10-24T12:24:58+02:00</time>
      </trkpt>
      <trkpt lat="44.9875" lon="4.643">
        <ele>740</ele>
        <time>2018-10-24T12:25:07+02:00</time>
      </trkpt>
      <trkpt lat="44.98742" lon="4.64309">
        <ele>738</ele>
        <time>2018-10-24T12:25:14+02:00</time>
      </trkpt>
      <trkpt lat="44.98738" lon="4.64318">
        <ele>737</ele>
        <time>2018-10-24T12:25:22+02:00</time>
      </trkpt>
      <trkpt lat="44.98733" lon="4.64333">
        <ele>734</ele>
        <time>2018-10-24T12:25:31+02:00</time>
      </trkpt>
      <trkpt lat="44.98727" lon="4.64347">
        <ele>732</ele>
        <time>2018-10-24T12:25:40+02:00</time>
      </trkpt>
      <trkpt lat="44.98724" lon="4.64357">
        <ele>731</ele>
        <time>2018-10-24T12:25:48+02:00</time>
      </trkpt>
      <trkpt lat="44.98723" lon="4.64359">
        <ele>730</ele>
        <time>2018-10-24T12:25:53+02:00</time>
      </trkpt>
      <trkpt lat="44.9872" lon="4.64365">
        <ele>730</ele>
        <time>2018-10-24T12:26:01+02:00</time>
      </trkpt>
      <trkpt lat="44.98714" lon="4.64374">
        <ele>729</ele>
        <time>2018-10-24T12:26:10+02:00</time>
      </trkpt>
      <trkpt lat="44.98705" lon="4.64384">
        <ele>727</ele>
        <time>2018-10-24T12:26:19+02:00</time>
      </trkpt>
      <trkpt lat="44.98698" lon="4.64397">
        <ele>726</ele>
        <time>2018-10-24T12:26:28+02:00</time>
      </trkpt>
      <trkpt lat="44.98692" lon="4.64412">
        <ele>725</ele>
        <time>2018-10-24T12:26:37+02:00</time>
      </trkpt>
      <trkpt lat="44.9869" lon="4.6442">
        <ele>724</ele>
        <time>2018-10-24T12:26:44+02:00</time>
      </trkpt>
      <trkpt lat="44.98683" lon="4.64433">
        <ele>723</ele>
        <time>2018-10-24T12:26:53+02:00</time>
      </trkpt>
      <trkpt lat="44.98675" lon="4.64447">
        <ele>723</ele>
        <time>2018-10-24T12:27:03+02:00</time>
      </trkpt>
      <trkpt lat="44.98667" lon="4.64464">
        <ele>723</ele>
        <time>2018-10-24T12:27:14+02:00</time>
      </trkpt>
      <trkpt lat="44.98663" lon="4.6448">
        <ele>721</ele>
        <time>2018-10-24T12:27:24+02:00</time>
      </trkpt>
      <trkpt lat="44.98659" lon="4.64492">
        <ele>720</ele>
        <time>2018-10-24T12:27:34+02:00</time>
      </trkpt>
      <trkpt lat="44.98655" lon="4.64501">
        <ele>719</ele>
        <time>2018-10-24T12:27:42+02:00</time>
      </trkpt>
      <trkpt lat="44.98653" lon="4.64505">
        <ele>718</ele>
        <time>2018-10-24T12:27:46+02:00</time>
      </trkpt>
      <trkpt lat="44.98645" lon="4.64518">
        <ele>716</ele>
        <time>2018-10-24T12:27:55+02:00</time>
      </trkpt>
      <trkpt lat="44.9864" lon="4.64525">
        <ele>715</ele>
        <time>2018-10-24T12:28:00+02:00</time>
      </trkpt>
      <trkpt lat="44.9863" lon="4.64536">
        <ele>713</ele>
        <time>2018-10-24T12:28:10+02:00</time>
      </trkpt>
      <trkpt lat="44.98622" lon="4.64539">
        <ele>713</ele>
        <time>2018-10-24T12:28:16+02:00</time>
      </trkpt>
      <trkpt lat="44.98607" lon="4.64543">
        <ele>712</ele>
        <time>2018-10-24T12:28:25+02:00</time>
      </trkpt>
      <trkpt lat="44.98594" lon="4.64543">
        <ele>712</ele>
        <time>2018-10-24T12:28:34+02:00</time>
      </trkpt>
      <trkpt lat="44.98583" lon="4.6454">
        <ele>712</ele>
        <time>2018-10-24T12:28:42+02:00</time>
      </trkpt>
      <trkpt lat="44.98573" lon="4.64537">
        <ele>710</ele>
        <time>2018-10-24T12:28:50+02:00</time>
      </trkpt>
      <trkpt lat="44.98571" lon="4.64551">
        <ele>710</ele>
        <time>2018-10-24T12:28:58+02:00</time>
      </trkpt>
      <trkpt lat="44.98571" lon="4.64569">
        <ele>709</ele>
        <time>2018-10-24T12:29:07+02:00</time>
      </trkpt>
      <trkpt lat="44.98567" lon="4.64589">
        <ele>709</ele>
        <time>2018-10-24T12:29:17+02:00</time>
      </trkpt>
      <trkpt lat="44.98563" lon="4.64608">
        <ele>707</ele>
        <time>2018-10-24T12:29:27+02:00</time>
      </trkpt>
      <trkpt lat="44.9856" lon="4.64621">
        <ele>706</ele>
        <time>2018-10-24T12:29:35+02:00</time>
      </trkpt>
      <trkpt lat="44.98553" lon="4.64632">
        <ele>706</ele>
        <time>2018-10-24T12:29:43+02:00</time>
      </trkpt>
      <trkpt lat="44.98549" lon="4.64642">
        <ele>706</ele>
        <time>2018-10-24T12:29:49+02:00</time>
      </trkpt>
      <trkpt lat="44.98542" lon="4.64654">
        <ele>707</ele>
        <time>2018-10-24T12:29:57+02:00</time>
      </trkpt>
      <trkpt lat="44.98536" lon="4.6467">
        <ele>707</ele>
        <time>2018-10-24T12:30:06+02:00</time>
      </trkpt>
      <trkpt lat="44.98534" lon="4.64681">
        <ele>708</ele>
        <time>2018-10-24T12:30:13+02:00</time>
      </trkpt>
      <trkpt lat="44.98533" lon="4.64686">
        <ele>708</ele>
        <time>2018-10-24T12:30:15+02:00</time>
      </trkpt>
      <trkpt lat="44.98532" lon="4.64697">
        <ele>708</ele>
        <time>2018-10-24T12:30:22+02:00</time>
      </trkpt>
      <trkpt lat="44.98531" lon="4.64707">
        <ele>709</ele>
        <time>2018-10-24T12:30:30+02:00</time>
      </trkpt>
      <trkpt lat="44.98532" lon="4.64718">
        <ele>708</ele>
        <time>2018-10-24T12:30:38+02:00</time>
      </trkpt>
      <trkpt lat="44.98532" lon="4.64725">
        <ele>708</ele>
        <time>2018-10-24T12:30:42+02:00</time>
      </trkpt>
      <trkpt lat="44.98534" lon="4.64741">
        <ele>707</ele>
        <time>2018-10-24T12:30:49+02:00</time>
      </trkpt>
      <trkpt lat="44.98535" lon="4.64756">
        <ele>707</ele>
        <time>2018-10-24T12:30:56+02:00</time>
      </trkpt>
      <trkpt lat="44.98537" lon="4.64771">
        <ele>707</ele>
        <time>2018-10-24T12:31:05+02:00</time>
      </trkpt>
      <trkpt lat="44.98532" lon="4.64788">
        <ele>709</ele>
        <time>2018-10-24T12:31:14+02:00</time>
      </trkpt>
      <trkpt lat="44.9853" lon="4.64798">
        <ele>710</ele>
        <time>2018-10-24T12:31:21+02:00</time>
      </trkpt>
      <trkpt lat="44.98528" lon="4.64814">
        <ele>711</ele>
        <time>2018-10-24T12:31:29+02:00</time>
      </trkpt>
      <trkpt lat="44.9853" lon="4.64831">
        <ele>710</ele>
        <time>2018-10-24T12:31:37+02:00</time>
      </trkpt>
      <trkpt lat="44.98534" lon="4.64856">
        <ele>708</ele>
        <time>2018-10-24T12:31:45+02:00</time>
      </trkpt>
      <trkpt lat="44.98542" lon="4.64873">
        <ele>705</ele>
        <time>2018-10-24T12:31:54+02:00</time>
      </trkpt>
      <trkpt lat="44.98541" lon="4.64886">
        <ele>705</ele>
        <time>2018-10-24T12:32:01+02:00</time>
      </trkpt>
      <trkpt lat="44.98536" lon="4.649">
        <ele>706</ele>
        <time>2018-10-24T12:32:10+02:00</time>
      </trkpt>
      <trkpt lat="44.98532" lon="4.64912">
        <ele>707</ele>
        <time>2018-10-24T12:32:19+02:00</time>
      </trkpt>
      <trkpt lat="44.98526" lon="4.64924">
        <ele>708</ele>
        <time>2018-10-24T12:32:28+02:00</time>
      </trkpt>
      <trkpt lat="44.98515" lon="4.64954">
        <ele>709</ele>
        <time>2018-10-24T12:32:37+02:00</time>
      </trkpt>
      <trkpt lat="44.98513" lon="4.64965">
        <ele>709</ele>
        <time>2018-10-24T12:32:43+02:00</time>
      </trkpt>
      <trkpt lat="44.98514" lon="4.6498">
        <ele>707</ele>
        <time>2018-10-24T12:32:51+02:00</time>
      </trkpt>
      <trkpt lat="44.98515" lon="4.64991">
        <ele>706</ele>
        <time>2018-10-24T12:32:56+02:00</time>
      </trkpt>
      <trkpt lat="44.98519" lon="4.65012">
        <ele>704</ele>
        <time>2018-10-24T12:33:05+02:00</time>
      </trkpt>
      <trkpt lat="44.98518" lon="4.65024">
        <ele>703</ele>
        <time>2018-10-24T12:33:14+02:00</time>
      </trkpt>
      <trkpt lat="44.98518" lon="4.65026">
        <ele>703</ele>
        <time>2018-10-24T12:33:15+02:00</time>
      </trkpt>
      <trkpt lat="44.98515" lon="4.65044">
        <ele>703</ele>
        <time>2018-10-24T12:33:24+02:00</time>
      </trkpt>
      <trkpt lat="44.98508" lon="4.6507">
        <ele>703</ele>
        <time>2018-10-24T12:33:33+02:00</time>
      </trkpt>
      <trkpt lat="44.98508" lon="4.65085">
        <ele>702</ele>
        <time>2018-10-24T12:33:41+02:00</time>
      </trkpt>
      <trkpt lat="44.98506" lon="4.65107">
        <ele>702</ele>
        <time>2018-10-24T12:33:51+02:00</time>
      </trkpt>
      <trkpt lat="44.98504" lon="4.65117">
        <ele>702</ele>
        <time>2018-10-24T12:33:57+02:00</time>
      </trkpt>
      <trkpt lat="44.98501" lon="4.65131">
        <ele>702</ele>
        <time>2018-10-24T12:34:06+02:00</time>
      </trkpt>
      <trkpt lat="44.98501" lon="4.65133">
        <ele>702</ele>
        <time>2018-10-24T12:34:07+02:00</time>
      </trkpt>
      <trkpt lat="44.98498" lon="4.6515">
        <ele>703</ele>
        <time>2018-10-24T12:34:16+02:00</time>
      </trkpt>
      <trkpt lat="44.98497" lon="4.65174">
        <ele>702</ele>
        <time>2018-10-24T12:34:26+02:00</time>
      </trkpt>
      <trkpt lat="44.98495" lon="4.65191">
        <ele>703</ele>
        <time>2018-10-24T12:34:34+02:00</time>
      </trkpt>
      <trkpt lat="44.98495" lon="4.652">
        <ele>703</ele>
        <time>2018-10-24T12:34:38+02:00</time>
      </trkpt>
      <trkpt lat="44.98496" lon="4.6521">
        <ele>703</ele>
        <time>2018-10-24T12:34:46+02:00</time>
      </trkpt>
      <trkpt lat="44.98498" lon="4.65213">
        <ele>702</ele>
        <time>2018-10-24T12:34:56+02:00</time>
      </trkpt>
      <trkpt lat="44.98499" lon="4.65212">
        <ele>702</ele>
        <time>2018-10-24T12:35:17+02:00</time>
      </trkpt>
      <trkpt lat="44.98494" lon="4.65216">
        <ele>704</ele>
        <time>2018-10-24T12:35:31+02:00</time>
      </trkpt>
      <trkpt lat="44.98496" lon="4.65218">
        <ele>703</ele>
        <time>2018-10-24T12:35:49+02:00</time>
      </trkpt>
      <trkpt lat="44.98495" lon="4.65217">
        <ele>704</ele>
        <time>2018-10-24T12:36:06+02:00</time>
      </trkpt>
      <trkpt lat="44.98496" lon="4.65217">
        <ele>703</ele>
        <time>2018-10-24T12:36:23+02:00</time>
      </trkpt>
      <trkpt lat="44.985" lon="4.65219">
        <ele>702</ele>
        <time>2018-10-24T12:36:34+02:00</time>
      </trkpt>
      <trkpt lat="44.985" lon="4.65224">
        <ele>702</ele>
        <time>2018-10-24T12:36:38+02:00</time>
      </trkpt>
      <trkpt lat="44.98501" lon="4.65241">
        <ele>702</ele>
        <time>2018-10-24T12:36:48+02:00</time>
      </trkpt>
      <trkpt lat="44.98503" lon="4.65255">
        <ele>701</ele>
        <time>2018-10-24T12:36:56+02:00</time>
      </trkpt>
      <trkpt lat="44.98504" lon="4.65271">
        <ele>701</ele>
        <time>2018-10-24T12:37:04+02:00</time>
      </trkpt>
      <trkpt lat="44.98507" lon="4.65285">
        <ele>701</ele>
        <time>2018-10-24T12:37:10+02:00</time>
      </trkpt>
      <trkpt lat="44.98509" lon="4.65302">
        <ele>700</ele>
        <time>2018-10-24T12:37:18+02:00</time>
      </trkpt>
      <trkpt lat="44.98511" lon="4.65314">
        <ele>700</ele>
        <time>2018-10-24T12:37:24+02:00</time>
      </trkpt>
      <trkpt lat="44.98514" lon="4.65334">
        <ele>699</ele>
        <time>2018-10-24T12:37:34+02:00</time>
      </trkpt>
      <trkpt lat="44.98518" lon="4.65347">
        <ele>699</ele>
        <time>2018-10-24T12:37:41+02:00</time>
      </trkpt>
      <trkpt lat="44.98522" lon="4.65357">
        <ele>698</ele>
        <time>2018-10-24T12:37:48+02:00</time>
      </trkpt>
      <trkpt lat="44.98523" lon="4.65359">
        <ele>698</ele>
        <time>2018-10-24T12:37:49+02:00</time>
      </trkpt>
      <trkpt lat="44.98527" lon="4.65373">
        <ele>697</ele>
        <time>2018-10-24T12:37:56+02:00</time>
      </trkpt>
      <trkpt lat="44.98528" lon="4.65377">
        <ele>697</ele>
        <time>2018-10-24T12:37:58+02:00</time>
      </trkpt>
      <trkpt lat="44.98533" lon="4.65389">
        <ele>696</ele>
        <time>2018-10-24T12:38:03+02:00</time>
      </trkpt>
      <trkpt lat="44.98537" lon="4.65408">
        <ele>696</ele>
        <time>2018-10-24T12:38:13+02:00</time>
      </trkpt>
      <trkpt lat="44.98541" lon="4.65425">
        <ele>694</ele>
        <time>2018-10-24T12:38:22+02:00</time>
      </trkpt>
      <trkpt lat="44.98543" lon="4.65442">
        <ele>693</ele>
        <time>2018-10-24T12:38:30+02:00</time>
      </trkpt>
      <trkpt lat="44.98544" lon="4.65449">
        <ele>692</ele>
        <time>2018-10-24T12:38:33+02:00</time>
      </trkpt>
      <trkpt lat="44.98546" lon="4.65466">
        <ele>690</ele>
        <time>2018-10-24T12:38:42+02:00</time>
      </trkpt>
      <trkpt lat="44.98546" lon="4.65482">
        <ele>689</ele>
        <time>2018-10-24T12:38:50+02:00</time>
      </trkpt>
      <trkpt lat="44.98545" lon="4.65493">
        <ele>688</ele>
        <time>2018-10-24T12:38:57+02:00</time>
      </trkpt>
      <trkpt lat="44.98539" lon="4.65515">
        <ele>686</ele>
        <time>2018-10-24T12:39:08+02:00</time>
      </trkpt>
      <trkpt lat="44.98533" lon="4.6553">
        <ele>684</ele>
        <time>2018-10-24T12:39:16+02:00</time>
      </trkpt>
      <trkpt lat="44.98531" lon="4.65542">
        <ele>682</ele>
        <time>2018-10-24T12:39:23+02:00</time>
      </trkpt>
      <trkpt lat="44.98529" lon="4.65558">
        <ele>679</ele>
        <time>2018-10-24T12:39:31+02:00</time>
      </trkpt>
      <trkpt lat="44.98526" lon="4.6557">
        <ele>677</ele>
        <time>2018-10-24T12:39:38+02:00</time>
      </trkpt>
      <trkpt lat="44.98523" lon="4.65588">
        <ele>675</ele>
        <time>2018-10-24T12:39:45+02:00</time>
      </trkpt>
      <trkpt lat="44.9852" lon="4.65606">
        <ele>674</ele>
        <time>2018-10-24T12:39:53+02:00</time>
      </trkpt>
      <trkpt lat="44.98517" lon="4.65629">
        <ele>673</ele>
        <time>2018-10-24T12:40:03+02:00</time>
      </trkpt>
      <trkpt lat="44.98516" lon="4.65647">
        <ele>672</ele>
        <time>2018-10-24T12:40:11+02:00</time>
      </trkpt>
      <trkpt lat="44.98516" lon="4.65652">
        <ele>672</ele>
        <time>2018-10-24T12:40:13+02:00</time>
      </trkpt>
      <trkpt lat="44.98511" lon="4.65667">
        <ele>672</ele>
        <time>2018-10-24T12:40:22+02:00</time>
      </trkpt>
      <trkpt lat="44.98501" lon="4.65681">
        <ele>672</ele>
        <time>2018-10-24T12:40:32+02:00</time>
      </trkpt>
      <trkpt lat="44.9849" lon="4.65691">
        <ele>672</ele>
        <time>2018-10-24T12:40:41+02:00</time>
      </trkpt>
      <trkpt lat="44.98479" lon="4.65711">
        <ele>670</ele>
        <time>2018-10-24T12:40:53+02:00</time>
      </trkpt>
      <trkpt lat="44.98477" lon="4.65717">
        <ele>670</ele>
        <time>2018-10-24T12:40:56+02:00</time>
      </trkpt>
      <trkpt lat="44.98475" lon="4.65736">
        <ele>667</ele>
        <time>2018-10-24T12:41:05+02:00</time>
      </trkpt>
      <trkpt lat="44.98474" lon="4.65738">
        <ele>666</ele>
        <time>2018-10-24T12:41:06+02:00</time>
      </trkpt>
      <trkpt lat="44.98476" lon="4.65755">
        <ele>664</ele>
        <time>2018-10-24T12:41:15+02:00</time>
      </trkpt>
      <trkpt lat="44.9848" lon="4.65772">
        <ele>661</ele>
        <time>2018-10-24T12:41:24+02:00</time>
      </trkpt>
      <trkpt lat="44.98482" lon="4.65793">
        <ele>658</ele>
        <time>2018-10-24T12:41:33+02:00</time>
      </trkpt>
      <trkpt lat="44.98483" lon="4.65799">
        <ele>657</ele>
        <time>2018-10-24T12:41:36+02:00</time>
      </trkpt>
      <trkpt lat="44.98482" lon="4.65821">
        <ele>654</ele>
        <time>2018-10-24T12:41:46+02:00</time>
      </trkpt>
      <trkpt lat="44.98487" lon="4.65842">
        <ele>653</ele>
        <time>2018-10-24T12:41:56+02:00</time>
      </trkpt>
      <trkpt lat="44.9849" lon="4.65858">
        <ele>653</ele>
        <time>2018-10-24T12:42:04+02:00</time>
      </trkpt>
      <trkpt lat="44.98491" lon="4.65869">
        <ele>653</ele>
        <time>2018-10-24T12:42:10+02:00</time>
      </trkpt>
      <trkpt lat="44.98487" lon="4.65876">
        <ele>652</ele>
        <time>2018-10-24T12:42:16+02:00</time>
      </trkpt>
      <trkpt lat="44.98485" lon="4.65876">
        <ele>651</ele>
        <time>2018-10-24T12:42:18+02:00</time>
      </trkpt>
      <trkpt lat="44.9848" lon="4.65858">
        <ele>651</ele>
        <time>2018-10-24T12:42:27+02:00</time>
      </trkpt>
      <trkpt lat="44.98476" lon="4.6584">
        <ele>650</ele>
        <time>2018-10-24T12:42:36+02:00</time>
      </trkpt>
      <trkpt lat="44.98475" lon="4.65839">
        <ele>650</ele>
        <time>2018-10-24T12:42:37+02:00</time>
      </trkpt>
      <trkpt lat="44.98471" lon="4.65829">
        <ele>651</ele>
        <time>2018-10-24T12:42:42+02:00</time>
      </trkpt>
      <trkpt lat="44.98464" lon="4.65812">
        <ele>652</ele>
        <time>2018-10-24T12:42:51+02:00</time>
      </trkpt>
      <trkpt lat="44.98461" lon="4.65808">
        <ele>653</ele>
        <time>2018-10-24T12:42:54+02:00</time>
      </trkpt>
      <trkpt lat="44.98448" lon="4.65798">
        <ele>653</ele>
        <time>2018-10-24T12:43:04+02:00</time>
      </trkpt>
      <trkpt lat="44.98432" lon="4.65796">
        <ele>651</ele>
        <time>2018-10-24T12:43:15+02:00</time>
      </trkpt>
      <trkpt lat="44.98427" lon="4.65796">
        <ele>651</ele>
        <time>2018-10-24T12:43:19+02:00</time>
      </trkpt>
      <trkpt lat="44.98415" lon="4.65804">
        <ele>647</ele>
        <time>2018-10-24T12:43:29+02:00</time>
      </trkpt>
      <trkpt lat="44.98412" lon="4.65805">
        <ele>647</ele>
        <time>2018-10-24T12:43:31+02:00</time>
      </trkpt>
      <trkpt lat="44.98399" lon="4.65814">
        <ele>644</ele>
        <time>2018-10-24T12:43:40+02:00</time>
      </trkpt>
      <trkpt lat="44.98389" lon="4.65819">
        <ele>642</ele>
        <time>2018-10-24T12:43:47+02:00</time>
      </trkpt>
      <trkpt lat="44.98383" lon="4.65823">
        <ele>641</ele>
        <time>2018-10-24T12:43:52+02:00</time>
      </trkpt>
      <trkpt lat="44.98379" lon="4.65825">
        <ele>640</ele>
        <time>2018-10-24T12:43:56+02:00</time>
      </trkpt>
      <trkpt lat="44.98375" lon="4.65824">
        <ele>640</ele>
        <time>2018-10-24T12:43:59+02:00</time>
      </trkpt>
      <trkpt lat="44.98363" lon="4.65824">
        <ele>640</ele>
        <time>2018-10-24T12:44:09+02:00</time>
      </trkpt>
      <trkpt lat="44.98359" lon="4.65826">
        <ele>640</ele>
        <time>2018-10-24T12:44:12+02:00</time>
      </trkpt>
      <trkpt lat="44.98346" lon="4.65828">
        <ele>639</ele>
        <time>2018-10-24T12:44:21+02:00</time>
      </trkpt>
      <trkpt lat="44.98338" lon="4.65831">
        <ele>638</ele>
        <time>2018-10-24T12:44:28+02:00</time>
      </trkpt>
      <trkpt lat="44.98329" lon="4.65833">
        <ele>637</ele>
        <time>2018-10-24T12:44:36+02:00</time>
      </trkpt>
      <trkpt lat="44.98317" lon="4.65831">
        <ele>635</ele>
        <time>2018-10-24T12:44:44+02:00</time>
      </trkpt>
      <trkpt lat="44.98302" lon="4.65831">
        <ele>634</ele>
        <time>2018-10-24T12:44:53+02:00</time>
      </trkpt>
      <trkpt lat="44.98289" lon="4.65831">
        <ele>632</ele>
        <time>2018-10-24T12:45:01+02:00</time>
      </trkpt>
      <trkpt lat="44.98274" lon="4.65829">
        <ele>630</ele>
        <time>2018-10-24T12:45:11+02:00</time>
      </trkpt>
      <trkpt lat="44.9826" lon="4.6583">
        <ele>628</ele>
        <time>2018-10-24T12:45:20+02:00</time>
      </trkpt>
      <trkpt lat="44.98251" lon="4.65831">
        <ele>627</ele>
        <time>2018-10-24T12:45:26+02:00</time>
      </trkpt>
      <trkpt lat="44.98248" lon="4.65832">
        <ele>626</ele>
        <time>2018-10-24T12:45:28+02:00</time>
      </trkpt>
      <trkpt lat="44.98236" lon="4.65841">
        <ele>624</ele>
        <time>2018-10-24T12:45:37+02:00</time>
      </trkpt>
      <trkpt lat="44.98233" lon="4.6586">
        <ele>621</ele>
        <time>2018-10-24T12:45:46+02:00</time>
      </trkpt>
      <trkpt lat="44.98236" lon="4.65887">
        <ele>616</ele>
        <time>2018-10-24T12:45:58+02:00</time>
      </trkpt>
      <trkpt lat="44.98242" lon="4.65904">
        <ele>613</ele>
        <time>2018-10-24T12:46:07+02:00</time>
      </trkpt>
      <trkpt lat="44.98249" lon="4.65922">
        <ele>610</ele>
        <time>2018-10-24T12:46:17+02:00</time>
      </trkpt>
      <trkpt lat="44.98251" lon="4.65939">
        <ele>607</ele>
        <time>2018-10-24T12:46:27+02:00</time>
      </trkpt>
      <trkpt lat="44.98241" lon="4.65947">
        <ele>606</ele>
        <time>2018-10-24T12:46:36+02:00</time>
      </trkpt>
      <trkpt lat="44.9824" lon="4.65947">
        <ele>606</ele>
        <time>2018-10-24T12:46:37+02:00</time>
      </trkpt>
      <trkpt lat="44.98226" lon="4.65946">
        <ele>607</ele>
        <time>2018-10-24T12:46:46+02:00</time>
      </trkpt>
      <trkpt lat="44.98213" lon="4.65946">
        <ele>607</ele>
        <time>2018-10-24T12:46:55+02:00</time>
      </trkpt>
      <trkpt lat="44.98199" lon="4.65955">
        <ele>606</ele>
        <time>2018-10-24T12:47:05+02:00</time>
      </trkpt>
      <trkpt lat="44.98192" lon="4.65968">
        <ele>604</ele>
        <time>2018-10-24T12:47:13+02:00</time>
      </trkpt>
      <trkpt lat="44.98188" lon="4.65982">
        <ele>602</ele>
        <time>2018-10-24T12:47:20+02:00</time>
      </trkpt>
      <trkpt lat="44.98184" lon="4.66003">
        <ele>599</ele>
        <time>2018-10-24T12:47:30+02:00</time>
      </trkpt>
      <trkpt lat="44.98174" lon="4.66012">
        <ele>598</ele>
        <time>2018-10-24T12:47:38+02:00</time>
      </trkpt>
      <trkpt lat="44.98162" lon="4.66004">
        <ele>599</ele>
        <time>2018-10-24T12:47:47+02:00</time>
      </trkpt>
      <trkpt lat="44.98151" lon="4.65992">
        <ele>600</ele>
        <time>2018-10-24T12:47:57+02:00</time>
      </trkpt>
      <trkpt lat="44.98141" lon="4.6598">
        <ele>600</ele>
        <time>2018-10-24T12:48:06+02:00</time>
      </trkpt>
      <trkpt lat="44.98133" lon="4.65972">
        <ele>601</ele>
        <time>2018-10-24T12:48:13+02:00</time>
      </trkpt>
      <trkpt lat="44.98127" lon="4.65966">
        <ele>601</ele>
        <time>2018-10-24T12:48:19+02:00</time>
      </trkpt>
      <trkpt lat="44.98115" lon="4.65965">
        <ele>600</ele>
        <time>2018-10-24T12:48:28+02:00</time>
      </trkpt>
      <trkpt lat="44.98102" lon="4.6597">
        <ele>598</ele>
        <time>2018-10-24T12:48:37+02:00</time>
      </trkpt>
      <trkpt lat="44.98088" lon="4.65977">
        <ele>595</ele>
        <time>2018-10-24T12:48:48+02:00</time>
      </trkpt>
      <trkpt lat="44.98077" lon="4.65973">
        <ele>595</ele>
        <time>2018-10-24T12:48:56+02:00</time>
      </trkpt>
      <trkpt lat="44.98073" lon="4.6596">
        <ele>596</ele>
        <time>2018-10-24T12:49:04+02:00</time>
      </trkpt>
      <trkpt lat="44.98069" lon="4.65948">
        <ele>597</ele>
        <time>2018-10-24T12:49:12+02:00</time>
      </trkpt>
      <trkpt lat="44.98062" lon="4.65933">
        <ele>598</ele>
        <time>2018-10-24T12:49:20+02:00</time>
      </trkpt>
      <trkpt lat="44.9805" lon="4.65921">
        <ele>598</ele>
        <time>2018-10-24T12:49:29+02:00</time>
      </trkpt>
      <trkpt lat="44.98033" lon="4.65917">
        <ele>596</ele>
        <time>2018-10-24T12:49:41+02:00</time>
      </trkpt>
      <trkpt lat="44.98021" lon="4.65918">
        <ele>595</ele>
        <time>2018-10-24T12:49:50+02:00</time>
      </trkpt>
      <trkpt lat="44.98022" lon="4.65919">
        <ele>595</ele>
        <time>2018-10-24T12:49:56+02:00</time>
      </trkpt>
      <trkpt lat="44.98022" lon="4.6592">
        <ele>595</ele>
        <time>2018-10-24T12:50:12+02:00</time>
      </trkpt>
      <trkpt lat="44.98016" lon="4.65921">
        <ele>594</ele>
        <time>2018-10-24T12:50:23+02:00</time>
      </trkpt>
      <trkpt lat="44.98005" lon="4.65928">
        <ele>591</ele>
        <time>2018-10-24T12:50:34+02:00</time>
      </trkpt>
      <trkpt lat="44.9799" lon="4.65928">
        <ele>589</ele>
        <time>2018-10-24T12:50:43+02:00</time>
      </trkpt>
      <trkpt lat="44.97972" lon="4.65923">
        <ele>586</ele>
        <time>2018-10-24T12:50:55+02:00</time>
      </trkpt>
      <trkpt lat="44.97963" lon="4.65921">
        <ele>585</ele>
        <time>2018-10-24T12:51:02+02:00</time>
      </trkpt>
      <trkpt lat="44.9796" lon="4.65928">
        <ele>584</ele>
        <time>2018-10-24T12:51:08+02:00</time>
      </trkpt>
      <trkpt lat="44.97957" lon="4.65937">
        <ele>582</ele>
        <time>2018-10-24T12:51:13+02:00</time>
      </trkpt>
      <trkpt lat="44.97956" lon="4.65939">
        <ele>582</ele>
        <time>2018-10-24T12:51:14+02:00</time>
      </trkpt>
      <trkpt lat="44.97951" lon="4.6595">
        <ele>580</ele>
        <time>2018-10-24T12:51:22+02:00</time>
      </trkpt>
      <trkpt lat="44.97945" lon="4.65967">
        <ele>576</ele>
        <time>2018-10-24T12:51:32+02:00</time>
      </trkpt>
      <trkpt lat="44.97934" lon="4.65978">
        <ele>573</ele>
        <time>2018-10-24T12:51:42+02:00</time>
      </trkpt>
      <trkpt lat="44.97927" lon="4.65994">
        <ele>570</ele>
        <time>2018-10-24T12:51:53+02:00</time>
      </trkpt>
      <trkpt lat="44.97922" lon="4.66007">
        <ele>567</ele>
        <time>2018-10-24T12:52:01+02:00</time>
      </trkpt>
      <trkpt lat="44.9792" lon="4.66024">
        <ele>566</ele>
        <time>2018-10-24T12:52:09+02:00</time>
      </trkpt>
      <trkpt lat="44.97921" lon="4.66029">
        <ele>565</ele>
        <time>2018-10-24T12:52:12+02:00</time>
      </trkpt>
      <trkpt lat="44.97921" lon="4.66035">
        <ele>565</ele>
        <time>2018-10-24T12:52:15+02:00</time>
      </trkpt>
      <trkpt lat="44.97928" lon="4.66057">
        <ele>564</ele>
        <time>2018-10-24T12:52:27+02:00</time>
      </trkpt>
      <trkpt lat="44.97929" lon="4.6608">
        <ele>562</ele>
        <time>2018-10-24T12:52:38+02:00</time>
      </trkpt>
      <trkpt lat="44.97929" lon="4.66095">
        <ele>560</ele>
        <time>2018-10-24T12:52:46+02:00</time>
      </trkpt>
      <trkpt lat="44.97929" lon="4.66111">
        <ele>558</ele>
        <time>2018-10-24T12:52:55+02:00</time>
      </trkpt>
      <trkpt lat="44.97929" lon="4.66116">
        <ele>557</ele>
        <time>2018-10-24T12:52:58+02:00</time>
      </trkpt>
      <trkpt lat="44.97932" lon="4.66131">
        <ele>556</ele>
        <time>2018-10-24T12:53:07+02:00</time>
      </trkpt>
      <trkpt lat="44.97937" lon="4.66144">
        <ele>555</ele>
        <time>2018-10-24T12:53:15+02:00</time>
      </trkpt>
      <trkpt lat="44.9794" lon="4.66152">
        <ele>555</ele>
        <time>2018-10-24T12:53:19+02:00</time>
      </trkpt>
      <trkpt lat="44.97947" lon="4.66174">
        <ele>553</ele>
        <time>2018-10-24T12:53:30+02:00</time>
      </trkpt>
      <trkpt lat="44.9795" lon="4.66195">
        <ele>550</ele>
        <time>2018-10-24T12:53:41+02:00</time>
      </trkpt>
      <trkpt lat="44.97956" lon="4.66209">
        <ele>549</ele>
        <time>2018-10-24T12:53:49+02:00</time>
      </trkpt>
      <trkpt lat="44.97956" lon="4.66211">
        <ele>549</ele>
        <time>2018-10-24T12:53:50+02:00</time>
      </trkpt>
      <trkpt lat="44.97956" lon="4.66214">
        <ele>549</ele>
        <time>2018-10-24T12:53:52+02:00</time>
      </trkpt>
      <trkpt lat="44.97951" lon="4.66218">
        <ele>547</ele>
        <time>2018-10-24T12:53:59+02:00</time>
      </trkpt>
      <trkpt lat="44.97945" lon="4.6621">
        <ele>547</ele>
        <time>2018-10-24T12:54:07+02:00</time>
      </trkpt>
      <trkpt lat="44.97934" lon="4.662">
        <ele>547</ele>
        <time>2018-10-24T12:54:16+02:00</time>
      </trkpt>
      <trkpt lat="44.97928" lon="4.66196">
        <ele>546</ele>
        <time>2018-10-24T12:54:21+02:00</time>
      </trkpt>
      <trkpt lat="44.97915" lon="4.66187">
        <ele>545</ele>
        <time>2018-10-24T12:54:31+02:00</time>
      </trkpt>
      <trkpt lat="44.97907" lon="4.66179">
        <ele>544</ele>
        <time>2018-10-24T12:54:40+02:00</time>
      </trkpt>
      <trkpt lat="44.97899" lon="4.6617">
        <ele>543</ele>
        <time>2018-10-24T12:54:48+02:00</time>
      </trkpt>
      <trkpt lat="44.97888" lon="4.66158">
        <ele>542</ele>
        <time>2018-10-24T12:54:58+02:00</time>
      </trkpt>
      <trkpt lat="44.97881" lon="4.66151">
        <ele>541</ele>
        <time>2018-10-24T12:55:06+02:00</time>
      </trkpt>
      <trkpt lat="44.97876" lon="4.66145">
        <ele>540</ele>
        <time>2018-10-24T12:55:14+02:00</time>
      </trkpt>
      <trkpt lat="44.97868" lon="4.66133">
        <ele>539</ele>
        <time>2018-10-24T12:55:23+02:00</time>
      </trkpt>
      <trkpt lat="44.9786" lon="4.6612">
        <ele>539</ele>
        <time>2018-10-24T12:55:32+02:00</time>
      </trkpt>
      <trkpt lat="44.97852" lon="4.66109">
        <ele>538</ele>
        <time>2018-10-24T12:55:40+02:00</time>
      </trkpt>
      <trkpt lat="44.97843" lon="4.661">
        <ele>537</ele>
        <time>2018-10-24T12:55:48+02:00</time>
      </trkpt>
      <trkpt lat="44.97841" lon="4.66098">
        <ele>537</ele>
        <time>2018-10-24T12:55:50+02:00</time>
      </trkpt>
      <trkpt lat="44.9783" lon="4.66094">
        <ele>535</ele>
        <time>2018-10-24T12:55:59+02:00</time>
      </trkpt>
      <trkpt lat="44.97821" lon="4.66092">
        <ele>534</ele>
        <time>2018-10-24T12:56:08+02:00</time>
      </trkpt>
      <trkpt lat="44.97813" lon="4.66085">
        <ele>534</ele>
        <time>2018-10-24T12:56:16+02:00</time>
      </trkpt>
      <trkpt lat="44.97804" lon="4.66074">
        <ele>533</ele>
        <time>2018-10-24T12:56:25+02:00</time>
      </trkpt>
      <trkpt lat="44.97795" lon="4.66067">
        <ele>532</ele>
        <time>2018-10-24T12:56:32+02:00</time>
      </trkpt>
      <trkpt lat="44.9779" lon="4.66063">
        <ele>532</ele>
        <time>2018-10-24T12:56:36+02:00</time>
      </trkpt>
      <trkpt lat="44.97776" lon="4.66055">
        <ele>530</ele>
        <time>2018-10-24T12:56:46+02:00</time>
      </trkpt>
      <trkpt lat="44.97765" lon="4.66046">
        <ele>528</ele>
        <time>2018-10-24T12:56:57+02:00</time>
      </trkpt>
      <trkpt lat="44.97755" lon="4.6604">
        <ele>526</ele>
        <time>2018-10-24T12:57:06+02:00</time>
      </trkpt>
      <trkpt lat="44.97744" lon="4.66029">
        <ele>526</ele>
        <time>2018-10-24T12:57:15+02:00</time>
      </trkpt>
      <trkpt lat="44.97736" lon="4.66021">
        <ele>526</ele>
        <time>2018-10-24T12:57:25+02:00</time>
      </trkpt>
      <trkpt lat="44.97726" lon="4.66011">
        <ele>527</ele>
        <time>2018-10-24T12:57:33+02:00</time>
      </trkpt>
      <trkpt lat="44.97719" lon="4.66013">
        <ele>528</ele>
        <time>2018-10-24T12:57:40+02:00</time>
      </trkpt>
      <trkpt lat="44.97717" lon="4.66019">
        <ele>528</ele>
        <time>2018-10-24T12:57:48+02:00</time>
      </trkpt>
      <trkpt lat="44.97717" lon="4.66026">
        <ele>528</ele>
        <time>2018-10-24T12:57:54+02:00</time>
      </trkpt>
      <trkpt lat="44.97714" lon="4.66045">
        <ele>529</ele>
        <time>2018-10-24T12:58:03+02:00</time>
      </trkpt>
      <trkpt lat="44.97718" lon="4.66057">
        <ele>528</ele>
        <time>2018-10-24T12:58:09+02:00</time>
      </trkpt>
      <trkpt lat="44.97721" lon="4.66071">
        <ele>528</ele>
        <time>2018-10-24T12:58:16+02:00</time>
      </trkpt>
      <trkpt lat="44.97722" lon="4.66077">
        <ele>528</ele>
        <time>2018-10-24T12:58:19+02:00</time>
      </trkpt>
      <trkpt lat="44.97728" lon="4.66091">
        <ele>528</ele>
        <time>2018-10-24T12:58:27+02:00</time>
      </trkpt>
      <trkpt lat="44.97729" lon="4.66096">
        <ele>528</ele>
        <time>2018-10-24T12:58:30+02:00</time>
      </trkpt>
      <trkpt lat="44.97733" lon="4.66109">
        <ele>529</ele>
        <time>2018-10-24T12:58:37+02:00</time>
      </trkpt>
      <trkpt lat="44.97738" lon="4.66121">
        <ele>529</ele>
        <time>2018-10-24T12:58:44+02:00</time>
      </trkpt>
      <trkpt lat="44.97743" lon="4.66139">
        <ele>530</ele>
        <time>2018-10-24T12:58:53+02:00</time>
      </trkpt>
      <trkpt lat="44.97749" lon="4.66151">
        <ele>529</ele>
        <time>2018-10-24T12:59:01+02:00</time>
      </trkpt>
      <trkpt lat="44.97754" lon="4.6617">
        <ele>530</ele>
        <time>2018-10-24T12:59:11+02:00</time>
      </trkpt>
      <trkpt lat="44.97759" lon="4.66184">
        <ele>531</ele>
        <time>2018-10-24T12:59:19+02:00</time>
      </trkpt>
      <trkpt lat="44.97764" lon="4.66197">
        <ele>532</ele>
        <time>2018-10-24T12:59:28+02:00</time>
      </trkpt>
      <trkpt lat="44.9777" lon="4.66215">
        <ele>533</ele>
        <time>2018-10-24T12:59:38+02:00</time>
      </trkpt>
      <trkpt lat="44.97776" lon="4.6623">
        <ele>533</ele>
        <time>2018-10-24T12:59:47+02:00</time>
      </trkpt>
      <trkpt lat="44.9778" lon="4.6624">
        <ele>532</ele>
        <time>2018-10-24T12:59:55+02:00</time>
      </trkpt>
      <trkpt lat="44.97785" lon="4.66254">
        <ele>532</ele>
        <time>2018-10-24T13:00:03+02:00</time>
      </trkpt>
      <trkpt lat="44.9779" lon="4.66267">
        <ele>531</ele>
        <time>2018-10-24T13:00:09+02:00</time>
      </trkpt>
      <trkpt lat="44.97795" lon="4.66281">
        <ele>529</ele>
        <time>2018-10-24T13:00:17+02:00</time>
      </trkpt>
      <trkpt lat="44.97801" lon="4.66292">
        <ele>528</ele>
        <time>2018-10-24T13:00:25+02:00</time>
      </trkpt>
      <trkpt lat="44.97804" lon="4.66301">
        <ele>527</ele>
        <time>2018-10-24T13:00:33+02:00</time>
      </trkpt>
      <trkpt lat="44.97809" lon="4.66313">
        <ele>526</ele>
        <time>2018-10-24T13:00:41+02:00</time>
      </trkpt>
      <trkpt lat="44.97816" lon="4.66318">
        <ele>525</ele>
        <time>2018-10-24T13:00:46+02:00</time>
      </trkpt>
      <trkpt lat="44.97825" lon="4.66323">
        <ele>523</ele>
        <time>2018-10-24T13:00:53+02:00</time>
      </trkpt>
      <trkpt lat="44.97831" lon="4.66329">
        <ele>521</ele>
        <time>2018-10-24T13:00:59+02:00</time>
      </trkpt>
      <trkpt lat="44.97839" lon="4.66337">
        <ele>521</ele>
        <time>2018-10-24T13:01:06+02:00</time>
      </trkpt>
      <trkpt lat="44.97845" lon="4.66345">
        <ele>522</ele>
        <time>2018-10-24T13:01:12+02:00</time>
      </trkpt>
      <trkpt lat="44.97852" lon="4.6636">
        <ele>522</ele>
        <time>2018-10-24T13:01:20+02:00</time>
      </trkpt>
      <trkpt lat="44.97862" lon="4.66377">
        <ele>522</ele>
        <time>2018-10-24T13:01:29+02:00</time>
      </trkpt>
      <trkpt lat="44.97867" lon="4.66391">
        <ele>522</ele>
        <time>2018-10-24T13:01:37+02:00</time>
      </trkpt>
      <trkpt lat="44.97869" lon="4.66403">
        <ele>522</ele>
        <time>2018-10-24T13:01:47+02:00</time>
      </trkpt>
      <trkpt lat="44.97873" lon="4.66423">
        <ele>522</ele>
        <time>2018-10-24T13:01:57+02:00</time>
      </trkpt>
      <trkpt lat="44.97875" lon="4.66442">
        <ele>521</ele>
        <time>2018-10-24T13:02:07+02:00</time>
      </trkpt>
      <trkpt lat="44.97876" lon="4.66469">
        <ele>521</ele>
        <time>2018-10-24T13:02:18+02:00</time>
      </trkpt>
      <trkpt lat="44.97877" lon="4.66492">
        <ele>521</ele>
        <time>2018-10-24T13:02:28+02:00</time>
      </trkpt>
      <trkpt lat="44.9788" lon="4.66506">
        <ele>520</ele>
        <time>2018-10-24T13:02:35+02:00</time>
      </trkpt>
      <trkpt lat="44.97882" lon="4.66527">
        <ele>520</ele>
        <time>2018-10-24T13:02:44+02:00</time>
      </trkpt>
      <trkpt lat="44.97877" lon="4.66551">
        <ele>520</ele>
        <time>2018-10-24T13:02:54+02:00</time>
      </trkpt>
      <trkpt lat="44.97875" lon="4.66557">
        <ele>520</ele>
        <time>2018-10-24T13:02:58+02:00</time>
      </trkpt>
      <trkpt lat="44.97869" lon="4.66573">
        <ele>521</ele>
        <time>2018-10-24T13:03:08+02:00</time>
      </trkpt>
      <trkpt lat="44.9787" lon="4.66577">
        <ele>521</ele>
        <time>2018-10-24T13:03:12+02:00</time>
      </trkpt>
      <trkpt lat="44.9787" lon="4.66593">
        <ele>521</ele>
        <time>2018-10-24T13:03:22+02:00</time>
      </trkpt>
      <trkpt lat="44.9787" lon="4.66603">
        <ele>521</ele>
        <time>2018-10-24T13:03:29+02:00</time>
      </trkpt>
      <trkpt lat="44.97871" lon="4.66623">
        <ele>520</ele>
        <time>2018-10-24T13:03:37+02:00</time>
      </trkpt>
      <trkpt lat="44.97875" lon="4.6664">
        <ele>519</ele>
        <time>2018-10-24T13:03:46+02:00</time>
      </trkpt>
      <trkpt lat="44.9788" lon="4.66656">
        <ele>517</ele>
        <time>2018-10-24T13:03:55+02:00</time>
      </trkpt>
      <trkpt lat="44.97882" lon="4.66668">
        <ele>517</ele>
        <time>2018-10-24T13:04:02+02:00</time>
      </trkpt>
      <trkpt lat="44.97887" lon="4.66681">
        <ele>515</ele>
        <time>2018-10-24T13:04:11+02:00</time>
      </trkpt>
      <trkpt lat="44.97894" lon="4.66709">
        <ele>512</ele>
        <time>2018-10-24T13:04:23+02:00</time>
      </trkpt>
      <trkpt lat="44.979" lon="4.66732">
        <ele>510</ele>
        <time>2018-10-24T13:04:31+02:00</time>
      </trkpt>
      <trkpt lat="44.97905" lon="4.66746">
        <ele>508</ele>
        <time>2018-10-24T13:04:39+02:00</time>
      </trkpt>
      <trkpt lat="44.9791" lon="4.66756">
        <ele>506</ele>
        <time>2018-10-24T13:04:47+02:00</time>
      </trkpt>
      <trkpt lat="44.97916" lon="4.66772">
        <ele>505</ele>
        <time>2018-10-24T13:04:57+02:00</time>
      </trkpt>
      <trkpt lat="44.97917" lon="4.66788">
        <ele>504</ele>
        <time>2018-10-24T13:05:05+02:00</time>
      </trkpt>
      <trkpt lat="44.97918" lon="4.66791">
        <ele>504</ele>
        <time>2018-10-24T13:05:07+02:00</time>
      </trkpt>
      <trkpt lat="44.97926" lon="4.66817">
        <ele>504</ele>
        <time>2018-10-24T13:05:17+02:00</time>
      </trkpt>
      <trkpt lat="44.97938" lon="4.66826">
        <ele>504</ele>
        <time>2018-10-24T13:05:27+02:00</time>
      </trkpt>
      <trkpt lat="44.97941" lon="4.66827">
        <ele>504</ele>
        <time>2018-10-24T13:05:36+02:00</time>
      </trkpt>
      <trkpt lat="44.97946" lon="4.66833">
        <ele>503</ele>
        <time>2018-10-24T13:05:45+02:00</time>
      </trkpt>
      <trkpt lat="44.9795" lon="4.66839">
        <ele>504</ele>
        <time>2018-10-24T13:05:53+02:00</time>
      </trkpt>
      <trkpt lat="44.97952" lon="4.66852">
        <ele>504</ele>
        <time>2018-10-24T13:06:02+02:00</time>
      </trkpt>
      <trkpt lat="44.97952" lon="4.66853">
        <ele>504</ele>
        <time>2018-10-24T13:06:03+02:00</time>
      </trkpt>
      <trkpt lat="44.97939" lon="4.6686">
        <ele>504</ele>
        <time>2018-10-24T13:06:13+02:00</time>
      </trkpt>
      <trkpt lat="44.97934" lon="4.66875">
        <ele>505</ele>
        <time>2018-10-24T13:06:21+02:00</time>
      </trkpt>
      <trkpt lat="44.9794" lon="4.66889">
        <ele>505</ele>
        <time>2018-10-24T13:06:30+02:00</time>
      </trkpt>
      <trkpt lat="44.97944" lon="4.66906">
        <ele>505</ele>
        <time>2018-10-24T13:06:41+02:00</time>
      </trkpt>
      <trkpt lat="44.97944" lon="4.66919">
        <ele>506</ele>
        <time>2018-10-24T13:06:50+02:00</time>
      </trkpt>
      <trkpt lat="44.97942" lon="4.66938">
        <ele>505</ele>
        <time>2018-10-24T13:06:59+02:00</time>
      </trkpt>
      <trkpt lat="44.97943" lon="4.6696">
        <ele>505</ele>
        <time>2018-10-24T13:07:11+02:00</time>
      </trkpt>
      <trkpt lat="44.97947" lon="4.66974">
        <ele>504</ele>
        <time>2018-10-24T13:07:18+02:00</time>
      </trkpt>
      <trkpt lat="44.97952" lon="4.66986">
        <ele>504</ele>
        <time>2018-10-24T13:07:26+02:00</time>
      </trkpt>
      <trkpt lat="44.97956" lon="4.67001">
        <ele>503</ele>
        <time>2018-10-24T13:07:33+02:00</time>
      </trkpt>
      <trkpt lat="44.97961" lon="4.67013">
        <ele>503</ele>
        <time>2018-10-24T13:07:41+02:00</time>
      </trkpt>
      <trkpt lat="44.97965" lon="4.67015">
        <ele>502</ele>
        <time>2018-10-24T13:07:47+02:00</time>
      </trkpt>
      <trkpt lat="44.97967" lon="4.67016">
        <ele>502</ele>
        <time>2018-10-24T13:07:50+02:00</time>
      </trkpt>
      <trkpt lat="44.97971" lon="4.67017">
        <ele>502</ele>
        <time>2018-10-24T13:07:53+02:00</time>
      </trkpt>
      <trkpt lat="44.97974" lon="4.6702">
        <ele>502</ele>
        <time>2018-10-24T13:07:56+02:00</time>
      </trkpt>
      <trkpt lat="44.97983" lon="4.67029">
        <ele>501</ele>
        <time>2018-10-24T13:08:04+02:00</time>
      </trkpt>
      <trkpt lat="44.97994" lon="4.67039">
        <ele>500</ele>
        <time>2018-10-24T13:08:12+02:00</time>
      </trkpt>
      <trkpt lat="44.98" lon="4.67044">
        <ele>500</ele>
        <time>2018-10-24T13:08:17+02:00</time>
      </trkpt>
      <trkpt lat="44.98014" lon="4.67055">
        <ele>500</ele>
        <time>2018-10-24T13:08:25+02:00</time>
      </trkpt>
      <trkpt lat="44.98023" lon="4.67067">
        <ele>499</ele>
        <time>2018-10-24T13:08:34+02:00</time>
      </trkpt>
      <trkpt lat="44.9803" lon="4.67072">
        <ele>499</ele>
        <time>2018-10-24T13:08:41+02:00</time>
      </trkpt>
      <trkpt lat="44.98037" lon="4.6708">
        <ele>498</ele>
        <time>2018-10-24T13:08:47+02:00</time>
      </trkpt>
      <trkpt lat="44.98055" lon="4.67096">
        <ele>497</ele>
        <time>2018-10-24T13:08:58+02:00</time>
      </trkpt>
      <trkpt lat="44.98065" lon="4.67105">
        <ele>496</ele>
        <time>2018-10-24T13:09:06+02:00</time>
      </trkpt>
      <trkpt lat="44.98074" lon="4.67116">
        <ele>495</ele>
        <time>2018-10-24T13:09:13+02:00</time>
      </trkpt>
      <trkpt lat="44.98081" lon="4.67135">
        <ele>496</ele>
        <time>2018-10-24T13:09:22+02:00</time>
      </trkpt>
      <trkpt lat="44.98082" lon="4.67146">
        <ele>496</ele>
        <time>2018-10-24T13:09:29+02:00</time>
      </trkpt>
      <trkpt lat="44.98084" lon="4.67163">
        <ele>497</ele>
        <time>2018-10-24T13:09:39+02:00</time>
      </trkpt>
      <trkpt lat="44.9809" lon="4.67177">
        <ele>497</ele>
        <time>2018-10-24T13:09:47+02:00</time>
      </trkpt>
      <trkpt lat="44.98097" lon="4.67189">
        <ele>496</ele>
        <time>2018-10-24T13:09:54+02:00</time>
      </trkpt>
      <trkpt lat="44.98106" lon="4.67198">
        <ele>495</ele>
        <time>2018-10-24T13:10:03+02:00</time>
      </trkpt>
      <trkpt lat="44.98119" lon="4.6721">
        <ele>493</ele>
        <time>2018-10-24T13:10:12+02:00</time>
      </trkpt>
      <trkpt lat="44.98127" lon="4.67223">
        <ele>492</ele>
        <time>2018-10-24T13:10:20+02:00</time>
      </trkpt>
      <trkpt lat="44.98128" lon="4.67225">
        <ele>492</ele>
        <time>2018-10-24T13:10:21+02:00</time>
      </trkpt>
      <trkpt lat="44.98134" lon="4.67238">
        <ele>491</ele>
        <time>2018-10-24T13:10:29+02:00</time>
      </trkpt>
      <trkpt lat="44.98137" lon="4.67255">
        <ele>490</ele>
        <time>2018-10-24T13:10:38+02:00</time>
      </trkpt>
      <trkpt lat="44.98139" lon="4.67261">
        <ele>490</ele>
        <time>2018-10-24T13:10:41+02:00</time>
      </trkpt>
      <trkpt lat="44.98139" lon="4.67273">
        <ele>490</ele>
        <time>2018-10-24T13:10:46+02:00</time>
      </trkpt>
      <trkpt lat="44.98139" lon="4.67287">
        <ele>490</ele>
        <time>2018-10-24T13:10:53+02:00</time>
      </trkpt>
      <trkpt lat="44.9814" lon="4.67302">
        <ele>489</ele>
        <time>2018-10-24T13:11:01+02:00</time>
      </trkpt>
      <trkpt lat="44.98142" lon="4.67317">
        <ele>489</ele>
        <time>2018-10-24T13:11:10+02:00</time>
      </trkpt>
      <trkpt lat="44.98145" lon="4.67328">
        <ele>488</ele>
        <time>2018-10-24T13:11:18+02:00</time>
      </trkpt>
      <trkpt lat="44.98149" lon="4.67334">
        <ele>487</ele>
        <time>2018-10-24T13:11:24+02:00</time>
      </trkpt>
      <trkpt lat="44.9815" lon="4.67335">
        <ele>487</ele>
        <time>2018-10-24T13:11:25+02:00</time>
      </trkpt>
      <trkpt lat="44.98161" lon="4.67352">
        <ele>486</ele>
        <time>2018-10-24T13:11:36+02:00</time>
      </trkpt>
      <trkpt lat="44.98163" lon="4.67358">
        <ele>485</ele>
        <time>2018-10-24T13:11:39+02:00</time>
      </trkpt>
      <trkpt lat="44.98169" lon="4.67371">
        <ele>485</ele>
        <time>2018-10-24T13:11:47+02:00</time>
      </trkpt>
      <trkpt lat="44.98177" lon="4.67382">
        <ele>485</ele>
        <time>2018-10-24T13:11:56+02:00</time>
      </trkpt>
      <trkpt lat="44.9818" lon="4.67384">
        <ele>485</ele>
        <time>2018-10-24T13:11:58+02:00</time>
      </trkpt>
      <trkpt lat="44.98188" lon="4.67394">
        <ele>484</ele>
        <time>2018-10-24T13:12:05+02:00</time>
      </trkpt>
      <trkpt lat="44.98198" lon="4.67411">
        <ele>483</ele>
        <time>2018-10-24T13:12:15+02:00</time>
      </trkpt>
      <trkpt lat="44.98202" lon="4.67419">
        <ele>483</ele>
        <time>2018-10-24T13:12:19+02:00</time>
      </trkpt>
      <trkpt lat="44.98208" lon="4.67434">
        <ele>483</ele>
        <time>2018-10-24T13:12:27+02:00</time>
      </trkpt>
      <trkpt lat="44.98216" lon="4.67453">
        <ele>482</ele>
        <time>2018-10-24T13:12:37+02:00</time>
      </trkpt>
      <trkpt lat="44.98226" lon="4.67472">
        <ele>481</ele>
        <time>2018-10-24T13:12:48+02:00</time>
      </trkpt>
      <trkpt lat="44.98232" lon="4.67484">
        <ele>481</ele>
        <time>2018-10-24T13:12:55+02:00</time>
      </trkpt>
      <trkpt lat="44.98241" lon="4.67499">
        <ele>479</ele>
        <time>2018-10-24T13:13:05+02:00</time>
      </trkpt>
      <trkpt lat="44.98251" lon="4.67517">
        <ele>479</ele>
        <time>2018-10-24T13:13:16+02:00</time>
      </trkpt>
      <trkpt lat="44.98259" lon="4.6753">
        <ele>480</ele>
        <time>2018-10-24T13:13:25+02:00</time>
      </trkpt>
      <trkpt lat="44.98268" lon="4.67545">
        <ele>481</ele>
        <time>2018-10-24T13:13:35+02:00</time>
      </trkpt>
      <trkpt lat="44.98274" lon="4.67559">
        <ele>481</ele>
        <time>2018-10-24T13:13:43+02:00</time>
      </trkpt>
      <trkpt lat="44.98282" lon="4.67577">
        <ele>480</ele>
        <time>2018-10-24T13:13:54+02:00</time>
      </trkpt>
      <trkpt lat="44.98289" lon="4.67591">
        <ele>480</ele>
        <time>2018-10-24T13:14:03+02:00</time>
      </trkpt>
      <trkpt lat="44.98291" lon="4.67594">
        <ele>480</ele>
        <time>2018-10-24T13:14:05+02:00</time>
      </trkpt>
      <trkpt lat="44.98293" lon="4.67599">
        <ele>481</ele>
        <time>2018-10-24T13:14:08+02:00</time>
      </trkpt>
      <trkpt lat="44.98294" lon="4.67607">
        <ele>481</ele>
        <time>2018-10-24T13:14:12+02:00</time>
      </trkpt>
      <trkpt lat="44.983" lon="4.67623">
        <ele>481</ele>
        <time>2018-10-24T13:14:20+02:00</time>
      </trkpt>
      <trkpt lat="44.98309" lon="4.67635">
        <ele>480</ele>
        <time>2018-10-24T13:14:28+02:00</time>
      </trkpt>
      <trkpt lat="44.98318" lon="4.67646">
        <ele>479</ele>
        <time>2018-10-24T13:14:37+02:00</time>
      </trkpt>
      <trkpt lat="44.98324" lon="4.67656">
        <ele>477</ele>
        <time>2018-10-24T13:14:44+02:00</time>
      </trkpt>
      <trkpt lat="44.98327" lon="4.67662">
        <ele>477</ele>
        <time>2018-10-24T13:14:48+02:00</time>
      </trkpt>
      <trkpt lat="44.98334" lon="4.67672">
        <ele>476</ele>
        <time>2018-10-24T13:14:56+02:00</time>
      </trkpt>
      <trkpt lat="44.98339" lon="4.67682">
        <ele>477</ele>
        <time>2018-10-24T13:15:03+02:00</time>
      </trkpt>
      <trkpt lat="44.98349" lon="4.67693">
        <ele>478</ele>
        <time>2018-10-24T13:15:12+02:00</time>
      </trkpt>
      <trkpt lat="44.98355" lon="4.67699">
        <ele>478</ele>
        <time>2018-10-24T13:15:16+02:00</time>
      </trkpt>
      <trkpt lat="44.98366" lon="4.67713">
        <ele>479</ele>
        <time>2018-10-24T13:15:27+02:00</time>
      </trkpt>
      <trkpt lat="44.98371" lon="4.67721">
        <ele>478</ele>
        <time>2018-10-24T13:15:34+02:00</time>
      </trkpt>
      <trkpt lat="44.98378" lon="4.67733">
        <ele>478</ele>
        <time>2018-10-24T13:15:43+02:00</time>
      </trkpt>
      <trkpt lat="44.98379" lon="4.67734">
        <ele>478</ele>
        <time>2018-10-24T13:15:44+02:00</time>
      </trkpt>
      <trkpt lat="44.98381" lon="4.67739">
        <ele>478</ele>
        <time>2018-10-24T13:15:47+02:00</time>
      </trkpt>
      <trkpt lat="44.98387" lon="4.67753">
        <ele>477</ele>
        <time>2018-10-24T13:15:55+02:00</time>
      </trkpt>
      <trkpt lat="44.98393" lon="4.67762">
        <ele>477</ele>
        <time>2018-10-24T13:16:01+02:00</time>
      </trkpt>
      <trkpt lat="44.98404" lon="4.67779">
        <ele>476</ele>
        <time>2018-10-24T13:16:10+02:00</time>
      </trkpt>
      <trkpt lat="44.98415" lon="4.67791">
        <ele>474</ele>
        <time>2018-10-24T13:16:19+02:00</time>
      </trkpt>
      <trkpt lat="44.98423" lon="4.678">
        <ele>475</ele>
        <time>2018-10-24T13:16:27+02:00</time>
      </trkpt>
      <trkpt lat="44.98425" lon="4.67802">
        <ele>475</ele>
        <time>2018-10-24T13:16:29+02:00</time>
      </trkpt>
      <trkpt lat="44.98429" lon="4.67808">
        <ele>475</ele>
        <time>2018-10-24T13:16:34+02:00</time>
      </trkpt>
      <trkpt lat="44.98436" lon="4.67818">
        <ele>475</ele>
        <time>2018-10-24T13:16:41+02:00</time>
      </trkpt>
      <trkpt lat="44.98443" lon="4.67825">
        <ele>475</ele>
        <time>2018-10-24T13:16:45+02:00</time>
      </trkpt>
      <trkpt lat="44.9845" lon="4.67832">
        <ele>475</ele>
        <time>2018-10-24T13:16:52+02:00</time>
      </trkpt>
      <trkpt lat="44.98463" lon="4.67841">
        <ele>474</ele>
        <time>2018-10-24T13:17:01+02:00</time>
      </trkpt>
      <trkpt lat="44.98476" lon="4.6785">
        <ele>474</ele>
        <time>2018-10-24T13:17:11+02:00</time>
      </trkpt>
      <trkpt lat="44.98485" lon="4.67855">
        <ele>473</ele>
        <time>2018-10-24T13:17:19+02:00</time>
      </trkpt>
      <trkpt lat="44.98496" lon="4.67862">
        <ele>473</ele>
        <time>2018-10-24T13:17:28+02:00</time>
      </trkpt>
      <trkpt lat="44.9851" lon="4.67871">
        <ele>472</ele>
        <time>2018-10-24T13:17:36+02:00</time>
      </trkpt>
      <trkpt lat="44.98521" lon="4.67877">
        <ele>472</ele>
        <time>2018-10-24T13:17:44+02:00</time>
      </trkpt>
      <trkpt lat="44.98534" lon="4.67887">
        <ele>471</ele>
        <time>2018-10-24T13:17:53+02:00</time>
      </trkpt>
      <trkpt lat="44.98541" lon="4.67891">
        <ele>470</ele>
        <time>2018-10-24T13:17:58+02:00</time>
      </trkpt>
      <trkpt lat="44.98559" lon="4.67899">
        <ele>469</ele>
        <time>2018-10-24T13:18:07+02:00</time>
      </trkpt>
      <trkpt lat="44.98571" lon="4.67902">
        <ele>467</ele>
        <time>2018-10-24T13:18:16+02:00</time>
      </trkpt>
      <trkpt lat="44.98574" lon="4.67905">
        <ele>467</ele>
        <time>2018-10-24T13:18:19+02:00</time>
      </trkpt>
      <trkpt lat="44.98577" lon="4.67911">
        <ele>467</ele>
        <time>2018-10-24T13:18:23+02:00</time>
      </trkpt>
      <trkpt lat="44.98576" lon="4.67925">
        <ele>467</ele>
        <time>2018-10-24T13:18:31+02:00</time>
      </trkpt>
      <trkpt lat="44.98571" lon="4.6793">
        <ele>468</ele>
        <time>2018-10-24T13:18:35+02:00</time>
      </trkpt>
      <trkpt lat="44.98562" lon="4.67937">
        <ele>470</ele>
        <time>2018-10-24T13:18:44+02:00</time>
      </trkpt>
      <trkpt lat="44.98557" lon="4.67956">
        <ele>471</ele>
        <time>2018-10-24T13:18:53+02:00</time>
      </trkpt>
      <trkpt lat="44.98559" lon="4.67965">
        <ele>471</ele>
        <time>2018-10-24T13:18:57+02:00</time>
      </trkpt>
      <trkpt lat="44.98571" lon="4.67971">
        <ele>469</ele>
        <time>2018-10-24T13:19:06+02:00</time>
      </trkpt>
      <trkpt lat="44.98582" lon="4.67966">
        <ele>468</ele>
        <time>2018-10-24T13:19:13+02:00</time>
      </trkpt>
      <trkpt lat="44.98594" lon="4.67962">
        <ele>467</ele>
        <time>2018-10-24T13:19:22+02:00</time>
      </trkpt>
      <trkpt lat="44.98606" lon="4.67959">
        <ele>467</ele>
        <time>2018-10-24T13:19:31+02:00</time>
      </trkpt>
      <trkpt lat="44.9861" lon="4.67957">
        <ele>467</ele>
        <time>2018-10-24T13:19:34+02:00</time>
      </trkpt>
      <trkpt lat="44.98622" lon="4.67954">
        <ele>467</ele>
        <time>2018-10-24T13:19:43+02:00</time>
      </trkpt>
      <trkpt lat="44.98634" lon="4.67949">
        <ele>467</ele>
        <time>2018-10-24T13:19:52+02:00</time>
      </trkpt>
      <trkpt lat="44.98646" lon="4.67945">
        <ele>466</ele>
        <time>2018-10-24T13:20:01+02:00</time>
      </trkpt>
      <trkpt lat="44.98658" lon="4.67938">
        <ele>466</ele>
        <time>2018-10-24T13:20:10+02:00</time>
      </trkpt>
      <trkpt lat="44.98666" lon="4.67933">
        <ele>466</ele>
        <time>2018-10-24T13:20:17+02:00</time>
      </trkpt>
      <trkpt lat="44.98676" lon="4.67938">
        <ele>465</ele>
        <time>2018-10-24T13:20:26+02:00</time>
      </trkpt>
      <trkpt lat="44.98679" lon="4.67944">
        <ele>465</ele>
        <time>2018-10-24T13:20:33+02:00</time>
      </trkpt>
      <trkpt lat="44.9868" lon="4.67954">
        <ele>466</ele>
        <time>2018-10-24T13:20:41+02:00</time>
      </trkpt>
      <trkpt lat="44.9868" lon="4.67956">
        <ele>466</ele>
        <time>2018-10-24T13:20:42+02:00</time>
      </trkpt>
      <trkpt lat="44.98679" lon="4.67969">
        <ele>466</ele>
        <time>2018-10-24T13:20:51+02:00</time>
      </trkpt>
      <trkpt lat="44.98677" lon="4.67975">
        <ele>466</ele>
        <time>2018-10-24T13:20:56+02:00</time>
      </trkpt>
      <trkpt lat="44.98676" lon="4.67977">
        <ele>467</ele>
        <time>2018-10-24T13:20:58+02:00</time>
      </trkpt>
      <trkpt lat="44.98671" lon="4.6799">
        <ele>467</ele>
        <time>2018-10-24T13:21:08+02:00</time>
      </trkpt>
      <trkpt lat="44.9867" lon="4.67991">
        <ele>467</ele>
        <time>2018-10-24T13:21:10+02:00</time>
      </trkpt>
      <trkpt lat="44.98668" lon="4.67996">
        <ele>468</ele>
        <time>2018-10-24T13:21:15+02:00</time>
      </trkpt>
      <trkpt lat="44.98662" lon="4.68013">
        <ele>468</ele>
        <time>2018-10-24T13:21:26+02:00</time>
      </trkpt>
      <trkpt lat="44.98656" lon="4.68027">
        <ele>469</ele>
        <time>2018-10-24T13:21:35+02:00</time>
      </trkpt>
      <trkpt lat="44.98652" lon="4.68034">
        <ele>469</ele>
        <time>2018-10-24T13:21:41+02:00</time>
      </trkpt>
      <trkpt lat="44.98649" lon="4.68049">
        <ele>470</ele>
        <time>2018-10-24T13:21:50+02:00</time>
      </trkpt>
      <trkpt lat="44.98647" lon="4.68058">
        <ele>470</ele>
        <time>2018-10-24T13:21:55+02:00</time>
      </trkpt>
      <trkpt lat="44.98646" lon="4.68074">
        <ele>471</ele>
        <time>2018-10-24T13:22:04+02:00</time>
      </trkpt>
      <trkpt lat="44.98646" lon="4.68079">
        <ele>471</ele>
        <time>2018-10-24T13:22:07+02:00</time>
      </trkpt>
      <trkpt lat="44.98646" lon="4.68095">
        <ele>472</ele>
        <time>2018-10-24T13:22:16+02:00</time>
      </trkpt>
      <trkpt lat="44.9865" lon="4.68109">
        <ele>473</ele>
        <time>2018-10-24T13:22:24+02:00</time>
      </trkpt>
      <trkpt lat="44.98651" lon="4.68115">
        <ele>474</ele>
        <time>2018-10-24T13:22:28+02:00</time>
      </trkpt>
      <trkpt lat="44.98655" lon="4.6813">
        <ele>475</ele>
        <time>2018-10-24T13:22:37+02:00</time>
      </trkpt>
      <trkpt lat="44.98656" lon="4.68133">
        <ele>475</ele>
        <time>2018-10-24T13:22:39+02:00</time>
      </trkpt>
      <trkpt lat="44.98657" lon="4.68136">
        <ele>475</ele>
        <time>2018-10-24T13:22:41+02:00</time>
      </trkpt>
      <trkpt lat="44.98663" lon="4.68148">
        <ele>476</ele>
        <time>2018-10-24T13:22:49+02:00</time>
      </trkpt>
      <trkpt lat="44.98667" lon="4.68156">
        <ele>476</ele>
        <time>2018-10-24T13:22:57+02:00</time>
      </trkpt>
      <trkpt lat="44.98669" lon="4.68164">
        <ele>476</ele>
        <time>2018-10-24T13:23:04+02:00</time>
      </trkpt>
      <trkpt lat="44.98673" lon="4.68177">
        <ele>477</ele>
        <time>2018-10-24T13:23:12+02:00</time>
      </trkpt>
      <trkpt lat="44.98675" lon="4.68185">
        <ele>478</ele>
        <time>2018-10-24T13:23:16+02:00</time>
      </trkpt>
      <trkpt lat="44.98678" lon="4.68199">
        <ele>478</ele>
        <time>2018-10-24T13:23:24+02:00</time>
      </trkpt>
      <trkpt lat="44.98681" lon="4.68212">
        <ele>479</ele>
        <time>2018-10-24T13:23:31+02:00</time>
      </trkpt>
      <trkpt lat="44.98682" lon="4.68222">
        <ele>480</ele>
        <time>2018-10-24T13:23:37+02:00</time>
      </trkpt>
      <trkpt lat="44.98683" lon="4.68238">
        <ele>481</ele>
        <time>2018-10-24T13:23:46+02:00</time>
      </trkpt>
      <trkpt lat="44.98682" lon="4.68252">
        <ele>482</ele>
        <time>2018-10-24T13:23:54+02:00</time>
      </trkpt>
      <trkpt lat="44.98681" lon="4.68267">
        <ele>482</ele>
        <time>2018-10-24T13:24:03+02:00</time>
      </trkpt>
      <trkpt lat="44.98679" lon="4.6828">
        <ele>482</ele>
        <time>2018-10-24T13:24:11+02:00</time>
      </trkpt>
      <trkpt lat="44.98676" lon="4.68296">
        <ele>483</ele>
        <time>2018-10-24T13:24:20+02:00</time>
      </trkpt>
      <trkpt lat="44.98672" lon="4.6831">
        <ele>484</ele>
        <time>2018-10-24T13:24:28+02:00</time>
      </trkpt>
      <trkpt lat="44.98669" lon="4.68327">
        <ele>485</ele>
        <time>2018-10-24T13:24:37+02:00</time>
      </trkpt>
      <trkpt lat="44.98664" lon="4.68348">
        <ele>486</ele>
        <time>2018-10-24T13:24:47+02:00</time>
      </trkpt>
      <trkpt lat="44.98662" lon="4.68366">
        <ele>487</ele>
        <time>2018-10-24T13:24:55+02:00</time>
      </trkpt>
      <trkpt lat="44.9866" lon="4.68382">
        <ele>488</ele>
        <time>2018-10-24T13:25:03+02:00</time>
      </trkpt>
      <trkpt lat="44.98659" lon="4.68395">
        <ele>488</ele>
        <time>2018-10-24T13:25:12+02:00</time>
      </trkpt>
      <trkpt lat="44.98658" lon="4.68407">
        <ele>489</ele>
        <time>2018-10-24T13:25:21+02:00</time>
      </trkpt>
      <trkpt lat="44.98658" lon="4.6842">
        <ele>489</ele>
        <time>2018-10-24T13:25:29+02:00</time>
      </trkpt>
      <trkpt lat="44.98658" lon="4.68433">
        <ele>489</ele>
        <time>2018-10-24T13:25:36+02:00</time>
      </trkpt>
      <trkpt lat="44.98658" lon="4.68448">
        <ele>488</ele>
        <time>2018-10-24T13:25:45+02:00</time>
      </trkpt>
      <trkpt lat="44.98658" lon="4.68459">
        <ele>488</ele>
        <time>2018-10-24T13:25:51+02:00</time>
      </trkpt>
      <trkpt lat="44.98658" lon="4.6846">
        <ele>488</ele>
        <time>2018-10-24T13:25:52+02:00</time>
      </trkpt>
      <trkpt lat="44.98657" lon="4.68472">
        <ele>488</ele>
        <time>2018-10-24T13:25:59+02:00</time>
      </trkpt>
      <trkpt lat="44.98654" lon="4.68479">
        <ele>489</ele>
        <time>2018-10-24T13:26:04+02:00</time>
      </trkpt>
      <trkpt lat="44.9865" lon="4.68493">
        <ele>489</ele>
        <time>2018-10-24T13:26:11+02:00</time>
      </trkpt>
      <trkpt lat="44.98642" lon="4.68507">
        <ele>490</ele>
        <time>2018-10-24T13:26:21+02:00</time>
      </trkpt>
      <trkpt lat="44.98634" lon="4.6852">
        <ele>490</ele>
        <time>2018-10-24T13:26:31+02:00</time>
      </trkpt>
      <trkpt lat="44.98626" lon="4.68532">
        <ele>491</ele>
        <time>2018-10-24T13:26:40+02:00</time>
      </trkpt>
      <trkpt lat="44.98618" lon="4.68543">
        <ele>491</ele>
        <time>2018-10-24T13:26:48+02:00</time>
      </trkpt>
      <trkpt lat="44.98605" lon="4.68564">
        <ele>491</ele>
        <time>2018-10-24T13:27:02+02:00</time>
      </trkpt>
      <trkpt lat="44.98597" lon="4.68576">
        <ele>491</ele>
        <time>2018-10-24T13:27:11+02:00</time>
      </trkpt>
      <trkpt lat="44.98589" lon="4.68594">
        <ele>491</ele>
        <time>2018-10-24T13:27:21+02:00</time>
      </trkpt>
      <trkpt lat="44.98588" lon="4.68608">
        <ele>491</ele>
        <time>2018-10-24T13:27:28+02:00</time>
      </trkpt>
      <trkpt lat="44.98589" lon="4.68624">
        <ele>491</ele>
        <time>2018-10-24T13:27:37+02:00</time>
      </trkpt>
      <trkpt lat="44.98589" lon="4.68626">
        <ele>490</ele>
        <time>2018-10-24T13:27:38+02:00</time>
      </trkpt>
      <trkpt lat="44.98588" lon="4.68635">
        <ele>490</ele>
        <time>2018-10-24T13:27:43+02:00</time>
      </trkpt>
      <trkpt lat="44.98588" lon="4.68649">
        <ele>490</ele>
        <time>2018-10-24T13:27:51+02:00</time>
      </trkpt>
      <trkpt lat="44.98589" lon="4.68668">
        <ele>490</ele>
        <time>2018-10-24T13:28:01+02:00</time>
      </trkpt>
      <trkpt lat="44.98591" lon="4.68678">
        <ele>490</ele>
        <time>2018-10-24T13:28:08+02:00</time>
      </trkpt>
      <trkpt lat="44.98594" lon="4.68693">
        <ele>491</ele>
        <time>2018-10-24T13:28:16+02:00</time>
      </trkpt>
      <trkpt lat="44.98595" lon="4.68698">
        <ele>491</ele>
        <time>2018-10-24T13:28:20+02:00</time>
      </trkpt>
      <trkpt lat="44.986" lon="4.68719">
        <ele>492</ele>
        <time>2018-10-24T13:28:32+02:00</time>
      </trkpt>
      <trkpt lat="44.98602" lon="4.68731">
        <ele>492</ele>
        <time>2018-10-24T13:28:40+02:00</time>
      </trkpt>
      <trkpt lat="44.98606" lon="4.68747">
        <ele>493</ele>
        <time>2018-10-24T13:28:49+02:00</time>
      </trkpt>
      <trkpt lat="44.98608" lon="4.68761">
        <ele>492</ele>
        <time>2018-10-24T13:28:56+02:00</time>
      </trkpt>
      <trkpt lat="44.98609" lon="4.68779">
        <ele>492</ele>
        <time>2018-10-24T13:29:05+02:00</time>
      </trkpt>
    </trkseg>
  </trk>
</gpx>